<?xml version="1.0" encoding="UTF-8" standalone="no" ?>
<gpx xmlns="http://www.topografix.com/GPX/1/1" xmlns:xsi="http://www.w3.org/2001/XMLSchema-instance" xsi:schemaLocation="http://www.topografix.com/GPX/1/1 http://www.topografix.com/GPX/1/1/gpx.xsd" version="1.1" creator="VisuGPX - https://www.visugpx.com">
  <metadata>
    <name>2020-10-18 09:55:44 [Suunto App]</name>
  </metadata>
  <trk>
    <name><![CDATA[2020-10-18 09:55:44 [Suunto App]_1]]></name>
    <trkseg>
      <trkpt lat="43.56183" lon="1.44748">
        <ele>757</ele>
        <time>2020-10-18T07:55:44Z</time>
      </trkpt>
      <trkpt lat="43.5618" lon="1.44746">
        <ele>755</ele>
        <time>2020-10-18T07:55:46Z</time>
      </trkpt>
      <trkpt lat="43.56178" lon="1.44742">
        <ele>755</ele>
        <time>2020-10-18T07:55:48Z</time>
      </trkpt>
      <trkpt lat="43.56176" lon="1.4474">
        <ele>755</ele>
        <time>2020-10-18T07:55:49Z</time>
      </trkpt>
      <trkpt lat="43.56172" lon="1.44736">
        <ele>755</ele>
        <time>2020-10-18T07:55:50Z</time>
      </trkpt>
      <trkpt lat="43.5617" lon="1.44734">
        <ele>755</ele>
        <time>2020-10-18T07:55:51Z</time>
      </trkpt>
      <trkpt lat="43.56168" lon="1.44733">
        <ele>755</ele>
        <time>2020-10-18T07:55:52Z</time>
      </trkpt>
      <trkpt lat="43.56166" lon="1.44731">
        <ele>755</ele>
        <time>2020-10-18T07:55:53Z</time>
      </trkpt>
      <trkpt lat="43.56163" lon="1.44728">
        <ele>755</ele>
        <time>2020-10-18T07:55:55Z</time>
      </trkpt>
      <trkpt lat="43.56161" lon="1.44725">
        <ele>755</ele>
        <time>2020-10-18T07:55:57Z</time>
      </trkpt>
      <trkpt lat="43.5616" lon="1.44712">
        <ele>755</ele>
        <time>2020-10-18T07:56:01Z</time>
      </trkpt>
      <trkpt lat="43.56169" lon="1.44706">
        <ele>754</ele>
        <time>2020-10-18T07:56:06Z</time>
      </trkpt>
      <trkpt lat="43.56179" lon="1.447">
        <ele>754</ele>
        <time>2020-10-18T07:56:10Z</time>
      </trkpt>
      <trkpt lat="43.56187" lon="1.44693">
        <ele>755</ele>
        <time>2020-10-18T07:56:14Z</time>
      </trkpt>
      <trkpt lat="43.56192" lon="1.4469">
        <ele>756</ele>
        <time>2020-10-18T07:56:16Z</time>
      </trkpt>
      <trkpt lat="43.56194" lon="1.44689">
        <ele>756</ele>
        <time>2020-10-18T07:56:17Z</time>
      </trkpt>
      <trkpt lat="43.56201" lon="1.44686">
        <ele>756</ele>
        <time>2020-10-18T07:56:19Z</time>
      </trkpt>
      <trkpt lat="43.56203" lon="1.44685">
        <ele>756</ele>
        <time>2020-10-18T07:56:20Z</time>
      </trkpt>
      <trkpt lat="43.56206" lon="1.44685">
        <ele>756</ele>
        <time>2020-10-18T07:56:22Z</time>
      </trkpt>
      <trkpt lat="43.56208" lon="1.44684">
        <ele>756</ele>
        <time>2020-10-18T07:56:23Z</time>
      </trkpt>
      <trkpt lat="43.56213" lon="1.44684">
        <ele>756</ele>
        <time>2020-10-18T07:56:24Z</time>
      </trkpt>
      <trkpt lat="43.56215" lon="1.44683">
        <ele>756</ele>
        <time>2020-10-18T07:56:26Z</time>
      </trkpt>
      <trkpt lat="43.56217" lon="1.44683">
        <ele>756</ele>
        <time>2020-10-18T07:56:27Z</time>
      </trkpt>
      <trkpt lat="43.56222" lon="1.44682">
        <ele>756</ele>
        <time>2020-10-18T07:56:28Z</time>
      </trkpt>
      <trkpt lat="43.56224" lon="1.44681">
        <ele>756</ele>
        <time>2020-10-18T07:56:29Z</time>
      </trkpt>
      <trkpt lat="43.56234" lon="1.44678">
        <ele>756</ele>
        <time>2020-10-18T07:56:34Z</time>
      </trkpt>
      <trkpt lat="43.56242" lon="1.44672">
        <ele>755</ele>
        <time>2020-10-18T07:56:37Z</time>
      </trkpt>
      <trkpt lat="43.56251" lon="1.44669">
        <ele>756</ele>
        <time>2020-10-18T07:56:42Z</time>
      </trkpt>
      <trkpt lat="43.5626" lon="1.44663">
        <ele>757</ele>
        <time>2020-10-18T07:56:46Z</time>
      </trkpt>
      <trkpt lat="43.56269" lon="1.44661">
        <ele>757</ele>
        <time>2020-10-18T07:56:50Z</time>
      </trkpt>
      <trkpt lat="43.56278" lon="1.44655">
        <ele>756</ele>
        <time>2020-10-18T07:56:53Z</time>
      </trkpt>
      <trkpt lat="43.56288" lon="1.44651">
        <ele>756</ele>
        <time>2020-10-18T07:56:57Z</time>
      </trkpt>
      <trkpt lat="43.56297" lon="1.44648">
        <ele>756</ele>
        <time>2020-10-18T07:57:01Z</time>
      </trkpt>
      <trkpt lat="43.56305" lon="1.44638">
        <ele>756</ele>
        <time>2020-10-18T07:57:07Z</time>
      </trkpt>
      <trkpt lat="43.56313" lon="1.44628">
        <ele>755</ele>
        <time>2020-10-18T07:57:10Z</time>
      </trkpt>
      <trkpt lat="43.56316" lon="1.44624">
        <ele>755</ele>
        <time>2020-10-18T07:57:12Z</time>
      </trkpt>
      <trkpt lat="43.56318" lon="1.44623">
        <ele>754</ele>
        <time>2020-10-18T07:57:13Z</time>
      </trkpt>
      <trkpt lat="43.56321" lon="1.44622">
        <ele>754</ele>
        <time>2020-10-18T07:57:14Z</time>
      </trkpt>
      <trkpt lat="43.56325" lon="1.44618">
        <ele>753</ele>
        <time>2020-10-18T07:57:16Z</time>
      </trkpt>
      <trkpt lat="43.56327" lon="1.44617">
        <ele>753</ele>
        <time>2020-10-18T07:57:18Z</time>
      </trkpt>
      <trkpt lat="43.5633" lon="1.44615">
        <ele>751</ele>
        <time>2020-10-18T07:57:19Z</time>
      </trkpt>
      <trkpt lat="43.56333" lon="1.44611">
        <ele>751</ele>
        <time>2020-10-18T07:57:20Z</time>
      </trkpt>
      <trkpt lat="43.56335" lon="1.44609">
        <ele>752</ele>
        <time>2020-10-18T07:57:22Z</time>
      </trkpt>
      <trkpt lat="43.56337" lon="1.44607">
        <ele>752</ele>
        <time>2020-10-18T07:57:23Z</time>
      </trkpt>
      <trkpt lat="43.56345" lon="1.44599">
        <ele>751</ele>
        <time>2020-10-18T07:57:26Z</time>
      </trkpt>
      <trkpt lat="43.56354" lon="1.44592">
        <ele>751</ele>
        <time>2020-10-18T07:57:31Z</time>
      </trkpt>
      <trkpt lat="43.56362" lon="1.44584">
        <ele>752</ele>
        <time>2020-10-18T07:57:34Z</time>
      </trkpt>
      <trkpt lat="43.56364" lon="1.44582">
        <ele>752</ele>
        <time>2020-10-18T07:57:36Z</time>
      </trkpt>
      <trkpt lat="43.56366" lon="1.4458">
        <ele>752</ele>
        <time>2020-10-18T07:57:37Z</time>
      </trkpt>
      <trkpt lat="43.56368" lon="1.44578">
        <ele>752</ele>
        <time>2020-10-18T07:57:38Z</time>
      </trkpt>
      <trkpt lat="43.56372" lon="1.44574">
        <ele>752</ele>
        <time>2020-10-18T07:57:39Z</time>
      </trkpt>
      <trkpt lat="43.56374" lon="1.44573">
        <ele>752</ele>
        <time>2020-10-18T07:57:41Z</time>
      </trkpt>
      <trkpt lat="43.56376" lon="1.44571">
        <ele>752</ele>
        <time>2020-10-18T07:57:42Z</time>
      </trkpt>
      <trkpt lat="43.5638" lon="1.44568">
        <ele>752</ele>
        <time>2020-10-18T07:57:43Z</time>
      </trkpt>
      <trkpt lat="43.56382" lon="1.44566">
        <ele>751</ele>
        <time>2020-10-18T07:57:44Z</time>
      </trkpt>
      <trkpt lat="43.56384" lon="1.44564">
        <ele>751</ele>
        <time>2020-10-18T07:57:45Z</time>
      </trkpt>
      <trkpt lat="43.56386" lon="1.44562">
        <ele>751</ele>
        <time>2020-10-18T07:57:47Z</time>
      </trkpt>
      <trkpt lat="43.56389" lon="1.44561">
        <ele>751</ele>
        <time>2020-10-18T07:57:48Z</time>
      </trkpt>
      <trkpt lat="43.56391" lon="1.44559">
        <ele>751</ele>
        <time>2020-10-18T07:57:49Z</time>
      </trkpt>
      <trkpt lat="43.56393" lon="1.44557">
        <ele>751</ele>
        <time>2020-10-18T07:57:50Z</time>
      </trkpt>
      <trkpt lat="43.56398" lon="1.44554">
        <ele>751</ele>
        <time>2020-10-18T07:57:51Z</time>
      </trkpt>
      <trkpt lat="43.56401" lon="1.44553">
        <ele>751</ele>
        <time>2020-10-18T07:57:53Z</time>
      </trkpt>
      <trkpt lat="43.56403" lon="1.44551">
        <ele>751</ele>
        <time>2020-10-18T07:57:54Z</time>
      </trkpt>
      <trkpt lat="43.56405" lon="1.4455">
        <ele>751</ele>
        <time>2020-10-18T07:57:55Z</time>
      </trkpt>
      <trkpt lat="43.56407" lon="1.44548">
        <ele>751</ele>
        <time>2020-10-18T07:57:56Z</time>
      </trkpt>
      <trkpt lat="43.56411" lon="1.44546">
        <ele>751</ele>
        <time>2020-10-18T07:57:57Z</time>
      </trkpt>
      <trkpt lat="43.56413" lon="1.44544">
        <ele>751</ele>
        <time>2020-10-18T07:57:58Z</time>
      </trkpt>
      <trkpt lat="43.56415" lon="1.44543">
        <ele>752</ele>
        <time>2020-10-18T07:57:59Z</time>
      </trkpt>
      <trkpt lat="43.56419" lon="1.4454">
        <ele>752</ele>
        <time>2020-10-18T07:58:01Z</time>
      </trkpt>
      <trkpt lat="43.56421" lon="1.44538">
        <ele>752</ele>
        <time>2020-10-18T07:58:02Z</time>
      </trkpt>
      <trkpt lat="43.56426" lon="1.44535">
        <ele>752</ele>
        <time>2020-10-18T07:58:04Z</time>
      </trkpt>
      <trkpt lat="43.56428" lon="1.44533">
        <ele>752</ele>
        <time>2020-10-18T07:58:06Z</time>
      </trkpt>
      <trkpt lat="43.5643" lon="1.44532">
        <ele>752</ele>
        <time>2020-10-18T07:58:07Z</time>
      </trkpt>
      <trkpt lat="43.56435" lon="1.44528">
        <ele>752</ele>
        <time>2020-10-18T07:58:08Z</time>
      </trkpt>
      <trkpt lat="43.56437" lon="1.44526">
        <ele>752</ele>
        <time>2020-10-18T07:58:09Z</time>
      </trkpt>
      <trkpt lat="43.56439" lon="1.44524">
        <ele>752</ele>
        <time>2020-10-18T07:58:11Z</time>
      </trkpt>
      <trkpt lat="43.56448" lon="1.44517">
        <ele>751</ele>
        <time>2020-10-18T07:58:14Z</time>
      </trkpt>
      <trkpt lat="43.56456" lon="1.4451">
        <ele>751</ele>
        <time>2020-10-18T07:58:19Z</time>
      </trkpt>
      <trkpt lat="43.56466" lon="1.44504">
        <ele>751</ele>
        <time>2020-10-18T07:58:22Z</time>
      </trkpt>
      <trkpt lat="43.56474" lon="1.44497">
        <ele>751</ele>
        <time>2020-10-18T07:58:27Z</time>
      </trkpt>
      <trkpt lat="43.56479" lon="1.44494">
        <ele>751</ele>
        <time>2020-10-18T07:58:28Z</time>
      </trkpt>
      <trkpt lat="43.56481" lon="1.44492">
        <ele>751</ele>
        <time>2020-10-18T07:58:29Z</time>
      </trkpt>
      <trkpt lat="43.56483" lon="1.4449">
        <ele>751</ele>
        <time>2020-10-18T07:58:31Z</time>
      </trkpt>
      <trkpt lat="43.56485" lon="1.44488">
        <ele>751</ele>
        <time>2020-10-18T07:58:32Z</time>
      </trkpt>
      <trkpt lat="43.56489" lon="1.44484">
        <ele>751</ele>
        <time>2020-10-18T07:58:33Z</time>
      </trkpt>
      <trkpt lat="43.56491" lon="1.44483">
        <ele>751</ele>
        <time>2020-10-18T07:58:35Z</time>
      </trkpt>
      <trkpt lat="43.56495" lon="1.4448">
        <ele>751</ele>
        <time>2020-10-18T07:58:36Z</time>
      </trkpt>
      <trkpt lat="43.56497" lon="1.44478">
        <ele>751</ele>
        <time>2020-10-18T07:58:38Z</time>
      </trkpt>
      <trkpt lat="43.56499" lon="1.44476">
        <ele>751</ele>
        <time>2020-10-18T07:58:39Z</time>
      </trkpt>
      <trkpt lat="43.56501" lon="1.44475">
        <ele>751</ele>
        <time>2020-10-18T07:58:40Z</time>
      </trkpt>
      <trkpt lat="43.56506" lon="1.44472">
        <ele>751</ele>
        <time>2020-10-18T07:58:41Z</time>
      </trkpt>
      <trkpt lat="43.56515" lon="1.44465">
        <ele>751</ele>
        <time>2020-10-18T07:58:46Z</time>
      </trkpt>
      <trkpt lat="43.56524" lon="1.44459">
        <ele>751</ele>
        <time>2020-10-18T07:58:49Z</time>
      </trkpt>
      <trkpt lat="43.56528" lon="1.44455">
        <ele>751</ele>
        <time>2020-10-18T07:58:51Z</time>
      </trkpt>
      <trkpt lat="43.5653" lon="1.44453">
        <ele>751</ele>
        <time>2020-10-18T07:58:52Z</time>
      </trkpt>
      <trkpt lat="43.56533" lon="1.4445">
        <ele>751</ele>
        <time>2020-10-18T07:58:55Z</time>
      </trkpt>
      <trkpt lat="43.56536" lon="1.44449">
        <ele>751</ele>
        <time>2020-10-18T07:58:56Z</time>
      </trkpt>
      <trkpt lat="43.5654" lon="1.44446">
        <ele>751</ele>
        <time>2020-10-18T07:58:57Z</time>
      </trkpt>
      <trkpt lat="43.56542" lon="1.44445">
        <ele>751</ele>
        <time>2020-10-18T07:58:59Z</time>
      </trkpt>
      <trkpt lat="43.56544" lon="1.44444">
        <ele>751</ele>
        <time>2020-10-18T07:59:00Z</time>
      </trkpt>
      <trkpt lat="43.56546" lon="1.44442">
        <ele>750</ele>
        <time>2020-10-18T07:59:01Z</time>
      </trkpt>
      <trkpt lat="43.56552" lon="1.44438">
        <ele>750</ele>
        <time>2020-10-18T07:59:03Z</time>
      </trkpt>
      <trkpt lat="43.56554" lon="1.44436">
        <ele>750</ele>
        <time>2020-10-18T07:59:04Z</time>
      </trkpt>
      <trkpt lat="43.56565" lon="1.44428">
        <ele>750</ele>
        <time>2020-10-18T07:59:08Z</time>
      </trkpt>
      <trkpt lat="43.56567" lon="1.44427">
        <ele>750</ele>
        <time>2020-10-18T07:59:09Z</time>
      </trkpt>
      <trkpt lat="43.56569" lon="1.44426">
        <ele>750</ele>
        <time>2020-10-18T07:59:11Z</time>
      </trkpt>
      <trkpt lat="43.56571" lon="1.44426">
        <ele>750</ele>
        <time>2020-10-18T07:59:12Z</time>
      </trkpt>
      <trkpt lat="43.56574" lon="1.44425">
        <ele>750</ele>
        <time>2020-10-18T07:59:13Z</time>
      </trkpt>
      <trkpt lat="43.56576" lon="1.44423">
        <ele>749</ele>
        <time>2020-10-18T07:59:14Z</time>
      </trkpt>
      <trkpt lat="43.56581" lon="1.4442">
        <ele>750</ele>
        <time>2020-10-18T07:59:16Z</time>
      </trkpt>
      <trkpt lat="43.56583" lon="1.44418">
        <ele>750</ele>
        <time>2020-10-18T07:59:17Z</time>
      </trkpt>
      <trkpt lat="43.56587" lon="1.44415">
        <ele>750</ele>
        <time>2020-10-18T07:59:18Z</time>
      </trkpt>
      <trkpt lat="43.5659" lon="1.44413">
        <ele>750</ele>
        <time>2020-10-18T07:59:19Z</time>
      </trkpt>
      <trkpt lat="43.56592" lon="1.44411">
        <ele>749</ele>
        <time>2020-10-18T07:59:21Z</time>
      </trkpt>
      <trkpt lat="43.56598" lon="1.44401">
        <ele>748</ele>
        <time>2020-10-18T07:59:25Z</time>
      </trkpt>
      <trkpt lat="43.56602" lon="1.44388">
        <ele>747</ele>
        <time>2020-10-18T07:59:28Z</time>
      </trkpt>
      <trkpt lat="43.56604" lon="1.44374">
        <ele>747</ele>
        <time>2020-10-18T07:59:33Z</time>
      </trkpt>
      <trkpt lat="43.56606" lon="1.44365">
        <ele>746</ele>
        <time>2020-10-18T07:59:35Z</time>
      </trkpt>
      <trkpt lat="43.56607" lon="1.44361">
        <ele>746</ele>
        <time>2020-10-18T07:59:36Z</time>
      </trkpt>
      <trkpt lat="43.56607" lon="1.44358">
        <ele>746</ele>
        <time>2020-10-18T07:59:37Z</time>
      </trkpt>
      <trkpt lat="43.56608" lon="1.44355">
        <ele>745</ele>
        <time>2020-10-18T07:59:39Z</time>
      </trkpt>
      <trkpt lat="43.56609" lon="1.44349">
        <ele>744</ele>
        <time>2020-10-18T07:59:40Z</time>
      </trkpt>
      <trkpt lat="43.5661" lon="1.44346">
        <ele>744</ele>
        <time>2020-10-18T07:59:41Z</time>
      </trkpt>
      <trkpt lat="43.5661" lon="1.44342">
        <ele>744</ele>
        <time>2020-10-18T07:59:42Z</time>
      </trkpt>
      <trkpt lat="43.56611" lon="1.44339">
        <ele>743</ele>
        <time>2020-10-18T07:59:43Z</time>
      </trkpt>
      <trkpt lat="43.56612" lon="1.44336">
        <ele>743</ele>
        <time>2020-10-18T07:59:44Z</time>
      </trkpt>
      <trkpt lat="43.56613" lon="1.44332">
        <ele>742</ele>
        <time>2020-10-18T07:59:46Z</time>
      </trkpt>
      <trkpt lat="43.56613" lon="1.44329">
        <ele>742</ele>
        <time>2020-10-18T07:59:47Z</time>
      </trkpt>
      <trkpt lat="43.56614" lon="1.44326">
        <ele>742</ele>
        <time>2020-10-18T07:59:48Z</time>
      </trkpt>
      <trkpt lat="43.56615" lon="1.44319">
        <ele>742</ele>
        <time>2020-10-18T07:59:49Z</time>
      </trkpt>
      <trkpt lat="43.56616" lon="1.44316">
        <ele>742</ele>
        <time>2020-10-18T07:59:51Z</time>
      </trkpt>
      <trkpt lat="43.56618" lon="1.44309">
        <ele>742</ele>
        <time>2020-10-18T07:59:52Z</time>
      </trkpt>
      <trkpt lat="43.56619" lon="1.44306">
        <ele>741</ele>
        <time>2020-10-18T07:59:53Z</time>
      </trkpt>
      <trkpt lat="43.5662" lon="1.44303">
        <ele>741</ele>
        <time>2020-10-18T07:59:55Z</time>
      </trkpt>
      <trkpt lat="43.56623" lon="1.44298">
        <ele>740</ele>
        <time>2020-10-18T07:59:56Z</time>
      </trkpt>
      <trkpt lat="43.56624" lon="1.44295">
        <ele>740</ele>
        <time>2020-10-18T07:59:57Z</time>
      </trkpt>
      <trkpt lat="43.56626" lon="1.44292">
        <ele>740</ele>
        <time>2020-10-18T07:59:59Z</time>
      </trkpt>
      <trkpt lat="43.56627" lon="1.44289">
        <ele>740</ele>
        <time>2020-10-18T08:00:00Z</time>
      </trkpt>
      <trkpt lat="43.56629" lon="1.44287">
        <ele>739</ele>
        <time>2020-10-18T08:00:01Z</time>
      </trkpt>
      <trkpt lat="43.56631" lon="1.44284">
        <ele>739</ele>
        <time>2020-10-18T08:00:02Z</time>
      </trkpt>
      <trkpt lat="43.56633" lon="1.44281">
        <ele>739</ele>
        <time>2020-10-18T08:00:03Z</time>
      </trkpt>
      <trkpt lat="43.56636" lon="1.44275">
        <ele>739</ele>
        <time>2020-10-18T08:00:04Z</time>
      </trkpt>
      <trkpt lat="43.56638" lon="1.44272">
        <ele>739</ele>
        <time>2020-10-18T08:00:05Z</time>
      </trkpt>
      <trkpt lat="43.5664" lon="1.44269">
        <ele>739</ele>
        <time>2020-10-18T08:00:07Z</time>
      </trkpt>
      <trkpt lat="43.56642" lon="1.44267">
        <ele>738</ele>
        <time>2020-10-18T08:00:08Z</time>
      </trkpt>
      <trkpt lat="43.56643" lon="1.44264">
        <ele>738</ele>
        <time>2020-10-18T08:00:09Z</time>
      </trkpt>
      <trkpt lat="43.56645" lon="1.44262">
        <ele>738</ele>
        <time>2020-10-18T08:00:10Z</time>
      </trkpt>
      <trkpt lat="43.56648" lon="1.44257">
        <ele>737</ele>
        <time>2020-10-18T08:00:11Z</time>
      </trkpt>
      <trkpt lat="43.5665" lon="1.44254">
        <ele>737</ele>
        <time>2020-10-18T08:00:12Z</time>
      </trkpt>
      <trkpt lat="43.56652" lon="1.44252">
        <ele>737</ele>
        <time>2020-10-18T08:00:13Z</time>
      </trkpt>
      <trkpt lat="43.56653" lon="1.44249">
        <ele>737</ele>
        <time>2020-10-18T08:00:15Z</time>
      </trkpt>
      <trkpt lat="43.56655" lon="1.44247">
        <ele>737</ele>
        <time>2020-10-18T08:00:16Z</time>
      </trkpt>
      <trkpt lat="43.56657" lon="1.44245">
        <ele>737</ele>
        <time>2020-10-18T08:00:17Z</time>
      </trkpt>
      <trkpt lat="43.56659" lon="1.44243">
        <ele>736</ele>
        <time>2020-10-18T08:00:18Z</time>
      </trkpt>
      <trkpt lat="43.5666" lon="1.44241">
        <ele>736</ele>
        <time>2020-10-18T08:00:19Z</time>
      </trkpt>
      <trkpt lat="43.56662" lon="1.44238">
        <ele>735</ele>
        <time>2020-10-18T08:00:20Z</time>
      </trkpt>
      <trkpt lat="43.56663" lon="1.44236">
        <ele>734</ele>
        <time>2020-10-18T08:00:21Z</time>
      </trkpt>
      <trkpt lat="43.56665" lon="1.4423">
        <ele>734</ele>
        <time>2020-10-18T08:00:22Z</time>
      </trkpt>
      <trkpt lat="43.56666" lon="1.44228">
        <ele>734</ele>
        <time>2020-10-18T08:00:24Z</time>
      </trkpt>
      <trkpt lat="43.56667" lon="1.44225">
        <ele>734</ele>
        <time>2020-10-18T08:00:25Z</time>
      </trkpt>
      <trkpt lat="43.56667" lon="1.44222">
        <ele>733</ele>
        <time>2020-10-18T08:00:26Z</time>
      </trkpt>
      <trkpt lat="43.56668" lon="1.44219">
        <ele>733</ele>
        <time>2020-10-18T08:00:27Z</time>
      </trkpt>
      <trkpt lat="43.5667" lon="1.44217">
        <ele>733</ele>
        <time>2020-10-18T08:00:28Z</time>
      </trkpt>
      <trkpt lat="43.56672" lon="1.44216">
        <ele>733</ele>
        <time>2020-10-18T08:00:29Z</time>
      </trkpt>
      <trkpt lat="43.56675" lon="1.44215">
        <ele>733</ele>
        <time>2020-10-18T08:00:30Z</time>
      </trkpt>
      <trkpt lat="43.56677" lon="1.44214">
        <ele>733</ele>
        <time>2020-10-18T08:00:32Z</time>
      </trkpt>
      <trkpt lat="43.56679" lon="1.44214">
        <ele>733</ele>
        <time>2020-10-18T08:00:33Z</time>
      </trkpt>
      <trkpt lat="43.56683" lon="1.44214">
        <ele>733</ele>
        <time>2020-10-18T08:00:34Z</time>
      </trkpt>
      <trkpt lat="43.56686" lon="1.44215">
        <ele>733</ele>
        <time>2020-10-18T08:00:35Z</time>
      </trkpt>
      <trkpt lat="43.56691" lon="1.44214">
        <ele>734</ele>
        <time>2020-10-18T08:00:37Z</time>
      </trkpt>
      <trkpt lat="43.56693" lon="1.44214">
        <ele>734</ele>
        <time>2020-10-18T08:00:39Z</time>
      </trkpt>
      <trkpt lat="43.56696" lon="1.44215">
        <ele>734</ele>
        <time>2020-10-18T08:00:40Z</time>
      </trkpt>
      <trkpt lat="43.567" lon="1.44214">
        <ele>733</ele>
        <time>2020-10-18T08:00:41Z</time>
      </trkpt>
      <trkpt lat="43.56702" lon="1.44214">
        <ele>733</ele>
        <time>2020-10-18T08:00:42Z</time>
      </trkpt>
      <trkpt lat="43.56707" lon="1.44215">
        <ele>733</ele>
        <time>2020-10-18T08:00:44Z</time>
      </trkpt>
      <trkpt lat="43.56712" lon="1.44215">
        <ele>733</ele>
        <time>2020-10-18T08:00:46Z</time>
      </trkpt>
      <trkpt lat="43.56715" lon="1.44215">
        <ele>733</ele>
        <time>2020-10-18T08:00:48Z</time>
      </trkpt>
      <trkpt lat="43.56718" lon="1.44216">
        <ele>733</ele>
        <time>2020-10-18T08:00:49Z</time>
      </trkpt>
      <trkpt lat="43.56723" lon="1.44216">
        <ele>733</ele>
        <time>2020-10-18T08:00:50Z</time>
      </trkpt>
      <trkpt lat="43.56726" lon="1.44216">
        <ele>733</ele>
        <time>2020-10-18T08:00:51Z</time>
      </trkpt>
      <trkpt lat="43.56732" lon="1.44216">
        <ele>733</ele>
        <time>2020-10-18T08:00:53Z</time>
      </trkpt>
      <trkpt lat="43.56735" lon="1.44216">
        <ele>733</ele>
        <time>2020-10-18T08:00:55Z</time>
      </trkpt>
      <trkpt lat="43.56738" lon="1.44216">
        <ele>733</ele>
        <time>2020-10-18T08:00:56Z</time>
      </trkpt>
      <trkpt lat="43.56741" lon="1.44217">
        <ele>733</ele>
        <time>2020-10-18T08:00:57Z</time>
      </trkpt>
      <trkpt lat="43.56743" lon="1.44217">
        <ele>733</ele>
        <time>2020-10-18T08:00:58Z</time>
      </trkpt>
      <trkpt lat="43.56746" lon="1.44218">
        <ele>733</ele>
        <time>2020-10-18T08:00:59Z</time>
      </trkpt>
      <trkpt lat="43.56748" lon="1.44218">
        <ele>734</ele>
        <time>2020-10-18T08:01:00Z</time>
      </trkpt>
      <trkpt lat="43.56753" lon="1.44219">
        <ele>734</ele>
        <time>2020-10-18T08:01:01Z</time>
      </trkpt>
      <trkpt lat="43.56755" lon="1.44219">
        <ele>735</ele>
        <time>2020-10-18T08:01:03Z</time>
      </trkpt>
      <trkpt lat="43.56758" lon="1.4422">
        <ele>735</ele>
        <time>2020-10-18T08:01:04Z</time>
      </trkpt>
      <trkpt lat="43.5676" lon="1.4422">
        <ele>735</ele>
        <time>2020-10-18T08:01:05Z</time>
      </trkpt>
      <trkpt lat="43.56763" lon="1.4422">
        <ele>735</ele>
        <time>2020-10-18T08:01:06Z</time>
      </trkpt>
      <trkpt lat="43.56765" lon="1.4422">
        <ele>735</ele>
        <time>2020-10-18T08:01:07Z</time>
      </trkpt>
      <trkpt lat="43.56768" lon="1.44221">
        <ele>735</ele>
        <time>2020-10-18T08:01:08Z</time>
      </trkpt>
      <trkpt lat="43.5677" lon="1.44221">
        <ele>736</ele>
        <time>2020-10-18T08:01:09Z</time>
      </trkpt>
      <trkpt lat="43.56773" lon="1.44222">
        <ele>736</ele>
        <time>2020-10-18T08:01:10Z</time>
      </trkpt>
      <trkpt lat="43.56775" lon="1.44222">
        <ele>736</ele>
        <time>2020-10-18T08:01:11Z</time>
      </trkpt>
      <trkpt lat="43.56778" lon="1.44222">
        <ele>736</ele>
        <time>2020-10-18T08:01:12Z</time>
      </trkpt>
      <trkpt lat="43.56783" lon="1.44222">
        <ele>736</ele>
        <time>2020-10-18T08:01:13Z</time>
      </trkpt>
      <trkpt lat="43.56785" lon="1.44223">
        <ele>736</ele>
        <time>2020-10-18T08:01:14Z</time>
      </trkpt>
      <trkpt lat="43.56787" lon="1.44224">
        <ele>736</ele>
        <time>2020-10-18T08:01:15Z</time>
      </trkpt>
      <trkpt lat="43.5679" lon="1.44224">
        <ele>737</ele>
        <time>2020-10-18T08:01:16Z</time>
      </trkpt>
      <trkpt lat="43.56792" lon="1.44225">
        <ele>737</ele>
        <time>2020-10-18T08:01:18Z</time>
      </trkpt>
      <trkpt lat="43.56797" lon="1.44226">
        <ele>737</ele>
        <time>2020-10-18T08:01:19Z</time>
      </trkpt>
      <trkpt lat="43.56799" lon="1.44227">
        <ele>737</ele>
        <time>2020-10-18T08:01:21Z</time>
      </trkpt>
      <trkpt lat="43.56802" lon="1.44227">
        <ele>737</ele>
        <time>2020-10-18T08:01:22Z</time>
      </trkpt>
      <trkpt lat="43.56806" lon="1.44229">
        <ele>737</ele>
        <time>2020-10-18T08:01:23Z</time>
      </trkpt>
      <trkpt lat="43.56809" lon="1.4423">
        <ele>737</ele>
        <time>2020-10-18T08:01:25Z</time>
      </trkpt>
      <trkpt lat="43.56811" lon="1.4423">
        <ele>738</ele>
        <time>2020-10-18T08:01:26Z</time>
      </trkpt>
      <trkpt lat="43.56816" lon="1.44231">
        <ele>738</ele>
        <time>2020-10-18T08:01:27Z</time>
      </trkpt>
      <trkpt lat="43.56818" lon="1.44231">
        <ele>737</ele>
        <time>2020-10-18T08:01:29Z</time>
      </trkpt>
      <trkpt lat="43.56821" lon="1.4423">
        <ele>737</ele>
        <time>2020-10-18T08:01:30Z</time>
      </trkpt>
      <trkpt lat="43.56823" lon="1.4423">
        <ele>737</ele>
        <time>2020-10-18T08:01:31Z</time>
      </trkpt>
      <trkpt lat="43.56826" lon="1.4423">
        <ele>737</ele>
        <time>2020-10-18T08:01:32Z</time>
      </trkpt>
      <trkpt lat="43.56828" lon="1.44229">
        <ele>737</ele>
        <time>2020-10-18T08:01:33Z</time>
      </trkpt>
      <trkpt lat="43.56832" lon="1.44227">
        <ele>737</ele>
        <time>2020-10-18T08:01:34Z</time>
      </trkpt>
      <trkpt lat="43.56835" lon="1.44226">
        <ele>737</ele>
        <time>2020-10-18T08:01:35Z</time>
      </trkpt>
      <trkpt lat="43.56837" lon="1.44225">
        <ele>737</ele>
        <time>2020-10-18T08:01:37Z</time>
      </trkpt>
      <trkpt lat="43.5684" lon="1.44224">
        <ele>737</ele>
        <time>2020-10-18T08:01:38Z</time>
      </trkpt>
      <trkpt lat="43.56842" lon="1.44223">
        <ele>737</ele>
        <time>2020-10-18T08:01:39Z</time>
      </trkpt>
      <trkpt lat="43.56847" lon="1.44221">
        <ele>737</ele>
        <time>2020-10-18T08:01:40Z</time>
      </trkpt>
      <trkpt lat="43.5685" lon="1.44221">
        <ele>737</ele>
        <time>2020-10-18T08:01:41Z</time>
      </trkpt>
      <trkpt lat="43.56852" lon="1.4422">
        <ele>737</ele>
        <time>2020-10-18T08:01:42Z</time>
      </trkpt>
      <trkpt lat="43.56855" lon="1.4422">
        <ele>737</ele>
        <time>2020-10-18T08:01:44Z</time>
      </trkpt>
      <trkpt lat="43.56858" lon="1.4422">
        <ele>737</ele>
        <time>2020-10-18T08:01:45Z</time>
      </trkpt>
      <trkpt lat="43.56862" lon="1.4422">
        <ele>736</ele>
        <time>2020-10-18T08:01:46Z</time>
      </trkpt>
      <trkpt lat="43.56867" lon="1.44219">
        <ele>736</ele>
        <time>2020-10-18T08:01:48Z</time>
      </trkpt>
      <trkpt lat="43.56869" lon="1.44219">
        <ele>736</ele>
        <time>2020-10-18T08:01:49Z</time>
      </trkpt>
      <trkpt lat="43.56872" lon="1.44218">
        <ele>735</ele>
        <time>2020-10-18T08:01:51Z</time>
      </trkpt>
      <trkpt lat="43.56874" lon="1.44218">
        <ele>735</ele>
        <time>2020-10-18T08:01:52Z</time>
      </trkpt>
      <trkpt lat="43.56876" lon="1.44217">
        <ele>735</ele>
        <time>2020-10-18T08:01:53Z</time>
      </trkpt>
      <trkpt lat="43.56878" lon="1.44216">
        <ele>735</ele>
        <time>2020-10-18T08:01:54Z</time>
      </trkpt>
      <trkpt lat="43.56881" lon="1.44215">
        <ele>735</ele>
        <time>2020-10-18T08:01:55Z</time>
      </trkpt>
      <trkpt lat="43.56886" lon="1.44214">
        <ele>734</ele>
        <time>2020-10-18T08:01:56Z</time>
      </trkpt>
      <trkpt lat="43.56888" lon="1.44213">
        <ele>733</ele>
        <time>2020-10-18T08:01:58Z</time>
      </trkpt>
      <trkpt lat="43.56891" lon="1.44212">
        <ele>733</ele>
        <time>2020-10-18T08:01:59Z</time>
      </trkpt>
      <trkpt lat="43.56896" lon="1.44211">
        <ele>733</ele>
        <time>2020-10-18T08:02:00Z</time>
      </trkpt>
      <trkpt lat="43.56899" lon="1.4421">
        <ele>733</ele>
        <time>2020-10-18T08:02:01Z</time>
      </trkpt>
      <trkpt lat="43.56901" lon="1.4421">
        <ele>733</ele>
        <time>2020-10-18T08:02:02Z</time>
      </trkpt>
      <trkpt lat="43.56906" lon="1.44208">
        <ele>733</ele>
        <time>2020-10-18T08:02:04Z</time>
      </trkpt>
      <trkpt lat="43.56909" lon="1.44207">
        <ele>732</ele>
        <time>2020-10-18T08:02:05Z</time>
      </trkpt>
      <trkpt lat="43.56911" lon="1.44207">
        <ele>732</ele>
        <time>2020-10-18T08:02:07Z</time>
      </trkpt>
      <trkpt lat="43.56914" lon="1.44206">
        <ele>732</ele>
        <time>2020-10-18T08:02:08Z</time>
      </trkpt>
      <trkpt lat="43.56916" lon="1.44205">
        <ele>732</ele>
        <time>2020-10-18T08:02:09Z</time>
      </trkpt>
      <trkpt lat="43.56919" lon="1.44205">
        <ele>732</ele>
        <time>2020-10-18T08:02:10Z</time>
      </trkpt>
      <trkpt lat="43.56922" lon="1.44204">
        <ele>731</ele>
        <time>2020-10-18T08:02:11Z</time>
      </trkpt>
      <trkpt lat="43.56924" lon="1.44204">
        <ele>731</ele>
        <time>2020-10-18T08:02:12Z</time>
      </trkpt>
      <trkpt lat="43.56927" lon="1.44203">
        <ele>730</ele>
        <time>2020-10-18T08:02:13Z</time>
      </trkpt>
      <trkpt lat="43.56929" lon="1.44203">
        <ele>730</ele>
        <time>2020-10-18T08:02:14Z</time>
      </trkpt>
      <trkpt lat="43.56932" lon="1.44202">
        <ele>729</ele>
        <time>2020-10-18T08:02:15Z</time>
      </trkpt>
      <trkpt lat="43.56937" lon="1.44202">
        <ele>729</ele>
        <time>2020-10-18T08:02:16Z</time>
      </trkpt>
      <trkpt lat="43.56939" lon="1.44201">
        <ele>728</ele>
        <time>2020-10-18T08:02:18Z</time>
      </trkpt>
      <trkpt lat="43.56942" lon="1.44202">
        <ele>728</ele>
        <time>2020-10-18T08:02:19Z</time>
      </trkpt>
      <trkpt lat="43.56944" lon="1.44202">
        <ele>728</ele>
        <time>2020-10-18T08:02:20Z</time>
      </trkpt>
      <trkpt lat="43.56947" lon="1.44201">
        <ele>728</ele>
        <time>2020-10-18T08:02:21Z</time>
      </trkpt>
      <trkpt lat="43.56949" lon="1.44202">
        <ele>728</ele>
        <time>2020-10-18T08:02:22Z</time>
      </trkpt>
      <trkpt lat="43.56955" lon="1.44202">
        <ele>727</ele>
        <time>2020-10-18T08:02:23Z</time>
      </trkpt>
      <trkpt lat="43.56958" lon="1.44202">
        <ele>727</ele>
        <time>2020-10-18T08:02:25Z</time>
      </trkpt>
      <trkpt lat="43.5696" lon="1.44202">
        <ele>726</ele>
        <time>2020-10-18T08:02:26Z</time>
      </trkpt>
      <trkpt lat="43.56963" lon="1.44202">
        <ele>726</ele>
        <time>2020-10-18T08:02:27Z</time>
      </trkpt>
      <trkpt lat="43.56969" lon="1.44201">
        <ele>725</ele>
        <time>2020-10-18T08:02:28Z</time>
      </trkpt>
      <trkpt lat="43.56974" lon="1.442">
        <ele>725</ele>
        <time>2020-10-18T08:02:30Z</time>
      </trkpt>
      <trkpt lat="43.56976" lon="1.44199">
        <ele>724</ele>
        <time>2020-10-18T08:02:32Z</time>
      </trkpt>
      <trkpt lat="43.56981" lon="1.44198">
        <ele>724</ele>
        <time>2020-10-18T08:02:33Z</time>
      </trkpt>
      <trkpt lat="43.56983" lon="1.44197">
        <ele>724</ele>
        <time>2020-10-18T08:02:34Z</time>
      </trkpt>
      <trkpt lat="43.56986" lon="1.44197">
        <ele>724</ele>
        <time>2020-10-18T08:02:35Z</time>
      </trkpt>
      <trkpt lat="43.56988" lon="1.44197">
        <ele>724</ele>
        <time>2020-10-18T08:02:37Z</time>
      </trkpt>
      <trkpt lat="43.56994" lon="1.44197">
        <ele>724</ele>
        <time>2020-10-18T08:02:38Z</time>
      </trkpt>
      <trkpt lat="43.56996" lon="1.44198">
        <ele>724</ele>
        <time>2020-10-18T08:02:40Z</time>
      </trkpt>
      <trkpt lat="43.56999" lon="1.44198">
        <ele>724</ele>
        <time>2020-10-18T08:02:41Z</time>
      </trkpt>
      <trkpt lat="43.57004" lon="1.44198">
        <ele>724</ele>
        <time>2020-10-18T08:02:42Z</time>
      </trkpt>
      <trkpt lat="43.57006" lon="1.44199">
        <ele>724</ele>
        <time>2020-10-18T08:02:43Z</time>
      </trkpt>
      <trkpt lat="43.57009" lon="1.44199">
        <ele>723</ele>
        <time>2020-10-18T08:02:45Z</time>
      </trkpt>
      <trkpt lat="43.57011" lon="1.44199">
        <ele>723</ele>
        <time>2020-10-18T08:02:46Z</time>
      </trkpt>
      <trkpt lat="43.57016" lon="1.44198">
        <ele>723</ele>
        <time>2020-10-18T08:02:47Z</time>
      </trkpt>
      <trkpt lat="43.57019" lon="1.44198">
        <ele>722</ele>
        <time>2020-10-18T08:02:48Z</time>
      </trkpt>
      <trkpt lat="43.57022" lon="1.44197">
        <ele>721</ele>
        <time>2020-10-18T08:02:49Z</time>
      </trkpt>
      <trkpt lat="43.57025" lon="1.44197">
        <ele>721</ele>
        <time>2020-10-18T08:02:50Z</time>
      </trkpt>
      <trkpt lat="43.5703" lon="1.44196">
        <ele>721</ele>
        <time>2020-10-18T08:02:52Z</time>
      </trkpt>
      <trkpt lat="43.57036" lon="1.44195">
        <ele>721</ele>
        <time>2020-10-18T08:02:54Z</time>
      </trkpt>
      <trkpt lat="43.57039" lon="1.44195">
        <ele>720</ele>
        <time>2020-10-18T08:02:56Z</time>
      </trkpt>
      <trkpt lat="43.57042" lon="1.44194">
        <ele>719</ele>
        <time>2020-10-18T08:02:57Z</time>
      </trkpt>
      <trkpt lat="43.57048" lon="1.44191">
        <ele>719</ele>
        <time>2020-10-18T08:02:58Z</time>
      </trkpt>
      <trkpt lat="43.5705" lon="1.44189">
        <ele>719</ele>
        <time>2020-10-18T08:02:59Z</time>
      </trkpt>
      <trkpt lat="43.57053" lon="1.44188">
        <ele>719</ele>
        <time>2020-10-18T08:03:01Z</time>
      </trkpt>
      <trkpt lat="43.57055" lon="1.44186">
        <ele>718</ele>
        <time>2020-10-18T08:03:02Z</time>
      </trkpt>
      <trkpt lat="43.5706" lon="1.44182">
        <ele>718</ele>
        <time>2020-10-18T08:03:03Z</time>
      </trkpt>
      <trkpt lat="43.57063" lon="1.4418">
        <ele>716</ele>
        <time>2020-10-18T08:03:05Z</time>
      </trkpt>
      <trkpt lat="43.57065" lon="1.44178">
        <ele>716</ele>
        <time>2020-10-18T08:03:06Z</time>
      </trkpt>
      <trkpt lat="43.57068" lon="1.44176">
        <ele>716</ele>
        <time>2020-10-18T08:03:07Z</time>
      </trkpt>
      <trkpt lat="43.5707" lon="1.44174">
        <ele>716</ele>
        <time>2020-10-18T08:03:08Z</time>
      </trkpt>
      <trkpt lat="43.57076" lon="1.44172">
        <ele>715</ele>
        <time>2020-10-18T08:03:09Z</time>
      </trkpt>
      <trkpt lat="43.57079" lon="1.44171">
        <ele>715</ele>
        <time>2020-10-18T08:03:10Z</time>
      </trkpt>
      <trkpt lat="43.57082" lon="1.44171">
        <ele>715</ele>
        <time>2020-10-18T08:03:11Z</time>
      </trkpt>
      <trkpt lat="43.57084" lon="1.44169">
        <ele>715</ele>
        <time>2020-10-18T08:03:12Z</time>
      </trkpt>
      <trkpt lat="43.57087" lon="1.44169">
        <ele>715</ele>
        <time>2020-10-18T08:03:14Z</time>
      </trkpt>
      <trkpt lat="43.57092" lon="1.44167">
        <ele>715</ele>
        <time>2020-10-18T08:03:15Z</time>
      </trkpt>
      <trkpt lat="43.57095" lon="1.44167">
        <ele>714</ele>
        <time>2020-10-18T08:03:17Z</time>
      </trkpt>
      <trkpt lat="43.57098" lon="1.44167">
        <ele>714</ele>
        <time>2020-10-18T08:03:18Z</time>
      </trkpt>
      <trkpt lat="43.571" lon="1.44167">
        <ele>714</ele>
        <time>2020-10-18T08:03:19Z</time>
      </trkpt>
      <trkpt lat="43.57103" lon="1.44166">
        <ele>714</ele>
        <time>2020-10-18T08:03:20Z</time>
      </trkpt>
      <trkpt lat="43.57108" lon="1.44165">
        <ele>713</ele>
        <time>2020-10-18T08:03:21Z</time>
      </trkpt>
      <trkpt lat="43.5711" lon="1.44165">
        <ele>712</ele>
        <time>2020-10-18T08:03:23Z</time>
      </trkpt>
      <trkpt lat="43.57113" lon="1.44164">
        <ele>712</ele>
        <time>2020-10-18T08:03:24Z</time>
      </trkpt>
      <trkpt lat="43.57115" lon="1.44163">
        <ele>711</ele>
        <time>2020-10-18T08:03:25Z</time>
      </trkpt>
      <trkpt lat="43.57118" lon="1.44162">
        <ele>711</ele>
        <time>2020-10-18T08:03:26Z</time>
      </trkpt>
      <trkpt lat="43.57123" lon="1.44162">
        <ele>711</ele>
        <time>2020-10-18T08:03:27Z</time>
      </trkpt>
      <trkpt lat="43.57125" lon="1.44161">
        <ele>710</ele>
        <time>2020-10-18T08:03:29Z</time>
      </trkpt>
      <trkpt lat="43.57131" lon="1.4416">
        <ele>710</ele>
        <time>2020-10-18T08:03:30Z</time>
      </trkpt>
      <trkpt lat="43.57133" lon="1.44159">
        <ele>710</ele>
        <time>2020-10-18T08:03:31Z</time>
      </trkpt>
      <trkpt lat="43.57136" lon="1.44158">
        <ele>709</ele>
        <time>2020-10-18T08:03:33Z</time>
      </trkpt>
      <trkpt lat="43.57138" lon="1.44157">
        <ele>709</ele>
        <time>2020-10-18T08:03:34Z</time>
      </trkpt>
      <trkpt lat="43.5714" lon="1.44155">
        <ele>708</ele>
        <time>2020-10-18T08:03:35Z</time>
      </trkpt>
      <trkpt lat="43.57142" lon="1.44153">
        <ele>708</ele>
        <time>2020-10-18T08:03:36Z</time>
      </trkpt>
      <trkpt lat="43.57146" lon="1.44152">
        <ele>707</ele>
        <time>2020-10-18T08:03:37Z</time>
      </trkpt>
      <trkpt lat="43.57148" lon="1.44151">
        <ele>707</ele>
        <time>2020-10-18T08:03:39Z</time>
      </trkpt>
      <trkpt lat="43.5715" lon="1.44149">
        <ele>707</ele>
        <time>2020-10-18T08:03:40Z</time>
      </trkpt>
      <trkpt lat="43.57153" lon="1.44148">
        <ele>706</ele>
        <time>2020-10-18T08:03:41Z</time>
      </trkpt>
      <trkpt lat="43.57158" lon="1.44149">
        <ele>706</ele>
        <time>2020-10-18T08:03:42Z</time>
      </trkpt>
      <trkpt lat="43.5716" lon="1.44148">
        <ele>705</ele>
        <time>2020-10-18T08:03:43Z</time>
      </trkpt>
      <trkpt lat="43.57162" lon="1.44148">
        <ele>704</ele>
        <time>2020-10-18T08:03:45Z</time>
      </trkpt>
      <trkpt lat="43.57165" lon="1.44148">
        <ele>703</ele>
        <time>2020-10-18T08:03:46Z</time>
      </trkpt>
      <trkpt lat="43.57167" lon="1.44148">
        <ele>703</ele>
        <time>2020-10-18T08:03:47Z</time>
      </trkpt>
      <trkpt lat="43.57172" lon="1.44148">
        <ele>702</ele>
        <time>2020-10-18T08:03:48Z</time>
      </trkpt>
      <trkpt lat="43.57174" lon="1.44148">
        <ele>702</ele>
        <time>2020-10-18T08:03:50Z</time>
      </trkpt>
      <trkpt lat="43.57177" lon="1.44147">
        <ele>701</ele>
        <time>2020-10-18T08:03:51Z</time>
      </trkpt>
      <trkpt lat="43.57179" lon="1.44147">
        <ele>701</ele>
        <time>2020-10-18T08:03:52Z</time>
      </trkpt>
      <trkpt lat="43.57181" lon="1.44145">
        <ele>701</ele>
        <time>2020-10-18T08:03:53Z</time>
      </trkpt>
      <trkpt lat="43.57186" lon="1.44144">
        <ele>701</ele>
        <time>2020-10-18T08:03:54Z</time>
      </trkpt>
      <trkpt lat="43.57188" lon="1.44143">
        <ele>701</ele>
        <time>2020-10-18T08:03:55Z</time>
      </trkpt>
      <trkpt lat="43.57191" lon="1.44142">
        <ele>701</ele>
        <time>2020-10-18T08:03:57Z</time>
      </trkpt>
      <trkpt lat="43.57193" lon="1.44142">
        <ele>700</ele>
        <time>2020-10-18T08:03:58Z</time>
      </trkpt>
      <trkpt lat="43.57198" lon="1.44141">
        <ele>699</ele>
        <time>2020-10-18T08:03:59Z</time>
      </trkpt>
      <trkpt lat="43.57201" lon="1.4414">
        <ele>699</ele>
        <time>2020-10-18T08:04:01Z</time>
      </trkpt>
      <trkpt lat="43.57203" lon="1.4414">
        <ele>699</ele>
        <time>2020-10-18T08:04:02Z</time>
      </trkpt>
      <trkpt lat="43.57208" lon="1.44138">
        <ele>699</ele>
        <time>2020-10-18T08:04:03Z</time>
      </trkpt>
      <trkpt lat="43.57211" lon="1.44137">
        <ele>699</ele>
        <time>2020-10-18T08:04:04Z</time>
      </trkpt>
      <trkpt lat="43.57213" lon="1.44136">
        <ele>699</ele>
        <time>2020-10-18T08:04:05Z</time>
      </trkpt>
      <trkpt lat="43.57216" lon="1.44136">
        <ele>699</ele>
        <time>2020-10-18T08:04:06Z</time>
      </trkpt>
      <trkpt lat="43.57218" lon="1.44135">
        <ele>698</ele>
        <time>2020-10-18T08:04:08Z</time>
      </trkpt>
      <trkpt lat="43.57224" lon="1.44137">
        <ele>698</ele>
        <time>2020-10-18T08:04:09Z</time>
      </trkpt>
      <trkpt lat="43.57229" lon="1.44138">
        <ele>697</ele>
        <time>2020-10-18T08:04:11Z</time>
      </trkpt>
      <trkpt lat="43.57232" lon="1.44138">
        <ele>697</ele>
        <time>2020-10-18T08:04:12Z</time>
      </trkpt>
      <trkpt lat="43.57237" lon="1.44139">
        <ele>697</ele>
        <time>2020-10-18T08:04:14Z</time>
      </trkpt>
      <trkpt lat="43.5724" lon="1.4414">
        <ele>697</ele>
        <time>2020-10-18T08:04:16Z</time>
      </trkpt>
      <trkpt lat="43.57243" lon="1.44141">
        <ele>697</ele>
        <time>2020-10-18T08:04:17Z</time>
      </trkpt>
      <trkpt lat="43.57246" lon="1.4414">
        <ele>697</ele>
        <time>2020-10-18T08:04:18Z</time>
      </trkpt>
      <trkpt lat="43.57249" lon="1.44141">
        <ele>697</ele>
        <time>2020-10-18T08:04:19Z</time>
      </trkpt>
      <trkpt lat="43.57254" lon="1.44141">
        <ele>697</ele>
        <time>2020-10-18T08:04:20Z</time>
      </trkpt>
      <trkpt lat="43.57257" lon="1.44142">
        <ele>696</ele>
        <time>2020-10-18T08:04:22Z</time>
      </trkpt>
      <trkpt lat="43.5726" lon="1.44142">
        <ele>696</ele>
        <time>2020-10-18T08:04:23Z</time>
      </trkpt>
      <trkpt lat="43.57266" lon="1.44143">
        <ele>696</ele>
        <time>2020-10-18T08:04:24Z</time>
      </trkpt>
      <trkpt lat="43.57271" lon="1.44142">
        <ele>696</ele>
        <time>2020-10-18T08:04:26Z</time>
      </trkpt>
      <trkpt lat="43.57273" lon="1.44142">
        <ele>695</ele>
        <time>2020-10-18T08:04:27Z</time>
      </trkpt>
      <trkpt lat="43.57276" lon="1.44141">
        <ele>695</ele>
        <time>2020-10-18T08:04:28Z</time>
      </trkpt>
      <trkpt lat="43.57279" lon="1.4414">
        <ele>695</ele>
        <time>2020-10-18T08:04:29Z</time>
      </trkpt>
      <trkpt lat="43.57281" lon="1.4414">
        <ele>695</ele>
        <time>2020-10-18T08:04:30Z</time>
      </trkpt>
      <trkpt lat="43.57284" lon="1.4414">
        <ele>695</ele>
        <time>2020-10-18T08:04:32Z</time>
      </trkpt>
      <trkpt lat="43.57286" lon="1.44139">
        <ele>694</ele>
        <time>2020-10-18T08:04:33Z</time>
      </trkpt>
      <trkpt lat="43.57289" lon="1.44139">
        <ele>693</ele>
        <time>2020-10-18T08:04:34Z</time>
      </trkpt>
      <trkpt lat="43.57292" lon="1.44138">
        <ele>693</ele>
        <time>2020-10-18T08:04:35Z</time>
      </trkpt>
      <trkpt lat="43.57294" lon="1.44138">
        <ele>693</ele>
        <time>2020-10-18T08:04:36Z</time>
      </trkpt>
      <trkpt lat="43.57297" lon="1.44138">
        <ele>692</ele>
        <time>2020-10-18T08:04:37Z</time>
      </trkpt>
      <trkpt lat="43.573" lon="1.44138">
        <ele>692</ele>
        <time>2020-10-18T08:04:38Z</time>
      </trkpt>
      <trkpt lat="43.57305" lon="1.44136">
        <ele>692</ele>
        <time>2020-10-18T08:04:39Z</time>
      </trkpt>
      <trkpt lat="43.57309" lon="1.44133">
        <ele>691</ele>
        <time>2020-10-18T08:04:41Z</time>
      </trkpt>
      <trkpt lat="43.57312" lon="1.44132">
        <ele>691</ele>
        <time>2020-10-18T08:04:42Z</time>
      </trkpt>
      <trkpt lat="43.57314" lon="1.44132">
        <ele>691</ele>
        <time>2020-10-18T08:04:43Z</time>
      </trkpt>
      <trkpt lat="43.57317" lon="1.44131">
        <ele>689</ele>
        <time>2020-10-18T08:04:45Z</time>
      </trkpt>
      <trkpt lat="43.57319" lon="1.44129">
        <ele>689</ele>
        <time>2020-10-18T08:04:46Z</time>
      </trkpt>
      <trkpt lat="43.57321" lon="1.44129">
        <ele>688</ele>
        <time>2020-10-18T08:04:47Z</time>
      </trkpt>
      <trkpt lat="43.57323" lon="1.44128">
        <ele>688</ele>
        <time>2020-10-18T08:04:48Z</time>
      </trkpt>
      <trkpt lat="43.57328" lon="1.44126">
        <ele>688</ele>
        <time>2020-10-18T08:04:49Z</time>
      </trkpt>
      <trkpt lat="43.5733" lon="1.44124">
        <ele>688</ele>
        <time>2020-10-18T08:04:51Z</time>
      </trkpt>
      <trkpt lat="43.57333" lon="1.44122">
        <ele>688</ele>
        <time>2020-10-18T08:04:52Z</time>
      </trkpt>
      <trkpt lat="43.57335" lon="1.4412">
        <ele>688</ele>
        <time>2020-10-18T08:04:53Z</time>
      </trkpt>
      <trkpt lat="43.57337" lon="1.44118">
        <ele>688</ele>
        <time>2020-10-18T08:04:54Z</time>
      </trkpt>
      <trkpt lat="43.57341" lon="1.44115">
        <ele>687</ele>
        <time>2020-10-18T08:04:55Z</time>
      </trkpt>
      <trkpt lat="43.57344" lon="1.44114">
        <ele>685</ele>
        <time>2020-10-18T08:04:57Z</time>
      </trkpt>
      <trkpt lat="43.57346" lon="1.44112">
        <ele>684</ele>
        <time>2020-10-18T08:04:58Z</time>
      </trkpt>
      <trkpt lat="43.57349" lon="1.44111">
        <ele>683</ele>
        <time>2020-10-18T08:04:59Z</time>
      </trkpt>
      <trkpt lat="43.57352" lon="1.44109">
        <ele>683</ele>
        <time>2020-10-18T08:05:00Z</time>
      </trkpt>
      <trkpt lat="43.57358" lon="1.44107">
        <ele>683</ele>
        <time>2020-10-18T08:05:01Z</time>
      </trkpt>
      <trkpt lat="43.57361" lon="1.44106">
        <ele>683</ele>
        <time>2020-10-18T08:05:03Z</time>
      </trkpt>
      <trkpt lat="43.57367" lon="1.44104">
        <ele>683</ele>
        <time>2020-10-18T08:05:04Z</time>
      </trkpt>
      <trkpt lat="43.5737" lon="1.44103">
        <ele>683</ele>
        <time>2020-10-18T08:05:05Z</time>
      </trkpt>
      <trkpt lat="43.57377" lon="1.44101">
        <ele>682</ele>
        <time>2020-10-18T08:05:07Z</time>
      </trkpt>
      <trkpt lat="43.5738" lon="1.441">
        <ele>681</ele>
        <time>2020-10-18T08:05:08Z</time>
      </trkpt>
      <trkpt lat="43.57386" lon="1.441">
        <ele>680</ele>
        <time>2020-10-18T08:05:10Z</time>
      </trkpt>
      <trkpt lat="43.57391" lon="1.44101">
        <ele>680</ele>
        <time>2020-10-18T08:05:12Z</time>
      </trkpt>
      <trkpt lat="43.57393" lon="1.44104">
        <ele>679</ele>
        <time>2020-10-18T08:05:14Z</time>
      </trkpt>
      <trkpt lat="43.57395" lon="1.44106">
        <ele>679</ele>
        <time>2020-10-18T08:05:15Z</time>
      </trkpt>
      <trkpt lat="43.57397" lon="1.4411">
        <ele>679</ele>
        <time>2020-10-18T08:05:16Z</time>
      </trkpt>
      <trkpt lat="43.57398" lon="1.44113">
        <ele>679</ele>
        <time>2020-10-18T08:05:17Z</time>
      </trkpt>
      <trkpt lat="43.57403" lon="1.44118">
        <ele>679</ele>
        <time>2020-10-18T08:05:18Z</time>
      </trkpt>
      <trkpt lat="43.57405" lon="1.4412">
        <ele>679</ele>
        <time>2020-10-18T08:05:20Z</time>
      </trkpt>
      <trkpt lat="43.57409" lon="1.44123">
        <ele>678</ele>
        <time>2020-10-18T08:05:21Z</time>
      </trkpt>
      <trkpt lat="43.57411" lon="1.44125">
        <ele>676</ele>
        <time>2020-10-18T08:05:23Z</time>
      </trkpt>
      <trkpt lat="43.57414" lon="1.44128">
        <ele>676</ele>
        <time>2020-10-18T08:05:24Z</time>
      </trkpt>
      <trkpt lat="43.57416" lon="1.44131">
        <ele>675</ele>
        <time>2020-10-18T08:05:25Z</time>
      </trkpt>
      <trkpt lat="43.57419" lon="1.44137">
        <ele>674</ele>
        <time>2020-10-18T08:05:26Z</time>
      </trkpt>
      <trkpt lat="43.57421" lon="1.4414">
        <ele>673</ele>
        <time>2020-10-18T08:05:27Z</time>
      </trkpt>
      <trkpt lat="43.57423" lon="1.44143">
        <ele>673</ele>
        <time>2020-10-18T08:05:28Z</time>
      </trkpt>
      <trkpt lat="43.57426" lon="1.44144">
        <ele>673</ele>
        <time>2020-10-18T08:05:30Z</time>
      </trkpt>
      <trkpt lat="43.57428" lon="1.44145">
        <ele>672</ele>
        <time>2020-10-18T08:05:31Z</time>
      </trkpt>
      <trkpt lat="43.5743" lon="1.44148">
        <ele>672</ele>
        <time>2020-10-18T08:05:32Z</time>
      </trkpt>
      <trkpt lat="43.57431" lon="1.44151">
        <ele>671</ele>
        <time>2020-10-18T08:05:33Z</time>
      </trkpt>
      <trkpt lat="43.57433" lon="1.44154">
        <ele>671</ele>
        <time>2020-10-18T08:05:34Z</time>
      </trkpt>
      <trkpt lat="43.57435" lon="1.44157">
        <ele>670</ele>
        <time>2020-10-18T08:05:35Z</time>
      </trkpt>
      <trkpt lat="43.57439" lon="1.44161">
        <ele>670</ele>
        <time>2020-10-18T08:05:36Z</time>
      </trkpt>
      <trkpt lat="43.57441" lon="1.44162">
        <ele>669</ele>
        <time>2020-10-18T08:05:37Z</time>
      </trkpt>
      <trkpt lat="43.57447" lon="1.44168">
        <ele>669</ele>
        <time>2020-10-18T08:05:39Z</time>
      </trkpt>
      <trkpt lat="43.57449" lon="1.4417">
        <ele>667</ele>
        <time>2020-10-18T08:05:41Z</time>
      </trkpt>
      <trkpt lat="43.57452" lon="1.44172">
        <ele>666</ele>
        <time>2020-10-18T08:05:42Z</time>
      </trkpt>
      <trkpt lat="43.57454" lon="1.44174">
        <ele>665</ele>
        <time>2020-10-18T08:05:43Z</time>
      </trkpt>
      <trkpt lat="43.57456" lon="1.44176">
        <ele>665</ele>
        <time>2020-10-18T08:05:44Z</time>
      </trkpt>
      <trkpt lat="43.57458" lon="1.44178">
        <ele>664</ele>
        <time>2020-10-18T08:05:45Z</time>
      </trkpt>
      <trkpt lat="43.5746" lon="1.44181">
        <ele>664</ele>
        <time>2020-10-18T08:05:46Z</time>
      </trkpt>
      <trkpt lat="43.57464" lon="1.44187">
        <ele>663</ele>
        <time>2020-10-18T08:05:47Z</time>
      </trkpt>
      <trkpt lat="43.57466" lon="1.44189">
        <ele>662</ele>
        <time>2020-10-18T08:05:49Z</time>
      </trkpt>
      <trkpt lat="43.57468" lon="1.44192">
        <ele>662</ele>
        <time>2020-10-18T08:05:50Z</time>
      </trkpt>
      <trkpt lat="43.57469" lon="1.44194">
        <ele>662</ele>
        <time>2020-10-18T08:05:51Z</time>
      </trkpt>
      <trkpt lat="43.5747" lon="1.44198">
        <ele>661</ele>
        <time>2020-10-18T08:05:52Z</time>
      </trkpt>
      <trkpt lat="43.57471" lon="1.44201">
        <ele>661</ele>
        <time>2020-10-18T08:05:53Z</time>
      </trkpt>
      <trkpt lat="43.57473" lon="1.44203">
        <ele>661</ele>
        <time>2020-10-18T08:05:54Z</time>
      </trkpt>
      <trkpt lat="43.57475" lon="1.44206">
        <ele>660</ele>
        <time>2020-10-18T08:05:55Z</time>
      </trkpt>
      <trkpt lat="43.57476" lon="1.44209">
        <ele>660</ele>
        <time>2020-10-18T08:05:56Z</time>
      </trkpt>
      <trkpt lat="43.57479" lon="1.44211">
        <ele>659</ele>
        <time>2020-10-18T08:05:57Z</time>
      </trkpt>
      <trkpt lat="43.57483" lon="1.44216">
        <ele>659</ele>
        <time>2020-10-18T08:05:58Z</time>
      </trkpt>
      <trkpt lat="43.57484" lon="1.44218">
        <ele>658</ele>
        <time>2020-10-18T08:05:59Z</time>
      </trkpt>
      <trkpt lat="43.57486" lon="1.4422">
        <ele>658</ele>
        <time>2020-10-18T08:06:01Z</time>
      </trkpt>
      <trkpt lat="43.57488" lon="1.44222">
        <ele>657</ele>
        <time>2020-10-18T08:06:02Z</time>
      </trkpt>
      <trkpt lat="43.57489" lon="1.44224">
        <ele>657</ele>
        <time>2020-10-18T08:06:03Z</time>
      </trkpt>
      <trkpt lat="43.57491" lon="1.44229">
        <ele>657</ele>
        <time>2020-10-18T08:06:04Z</time>
      </trkpt>
      <trkpt lat="43.57493" lon="1.44231">
        <ele>657</ele>
        <time>2020-10-18T08:06:06Z</time>
      </trkpt>
      <trkpt lat="43.57497" lon="1.44237">
        <ele>656</ele>
        <time>2020-10-18T08:06:08Z</time>
      </trkpt>
      <trkpt lat="43.57498" lon="1.4424">
        <ele>656</ele>
        <time>2020-10-18T08:06:10Z</time>
      </trkpt>
      <trkpt lat="43.575" lon="1.44243">
        <ele>655</ele>
        <time>2020-10-18T08:06:11Z</time>
      </trkpt>
      <trkpt lat="43.57501" lon="1.44246">
        <ele>655</ele>
        <time>2020-10-18T08:06:12Z</time>
      </trkpt>
      <trkpt lat="43.57505" lon="1.44251">
        <ele>655</ele>
        <time>2020-10-18T08:06:13Z</time>
      </trkpt>
      <trkpt lat="43.57507" lon="1.44254">
        <ele>654</ele>
        <time>2020-10-18T08:06:15Z</time>
      </trkpt>
      <trkpt lat="43.57509" lon="1.44256">
        <ele>654</ele>
        <time>2020-10-18T08:06:16Z</time>
      </trkpt>
      <trkpt lat="43.5751" lon="1.44259">
        <ele>654</ele>
        <time>2020-10-18T08:06:17Z</time>
      </trkpt>
      <trkpt lat="43.57512" lon="1.44262">
        <ele>654</ele>
        <time>2020-10-18T08:06:18Z</time>
      </trkpt>
      <trkpt lat="43.57516" lon="1.44266">
        <ele>654</ele>
        <time>2020-10-18T08:06:19Z</time>
      </trkpt>
      <trkpt lat="43.57519" lon="1.44272">
        <ele>654</ele>
        <time>2020-10-18T08:06:21Z</time>
      </trkpt>
      <trkpt lat="43.57521" lon="1.44274">
        <ele>654</ele>
        <time>2020-10-18T08:06:22Z</time>
      </trkpt>
      <trkpt lat="43.57523" lon="1.44277">
        <ele>654</ele>
        <time>2020-10-18T08:06:23Z</time>
      </trkpt>
      <trkpt lat="43.57525" lon="1.44279">
        <ele>654</ele>
        <time>2020-10-18T08:06:24Z</time>
      </trkpt>
      <trkpt lat="43.57527" lon="1.44282">
        <ele>654</ele>
        <time>2020-10-18T08:06:26Z</time>
      </trkpt>
      <trkpt lat="43.5753" lon="1.44286">
        <ele>654</ele>
        <time>2020-10-18T08:06:27Z</time>
      </trkpt>
      <trkpt lat="43.57531" lon="1.44289">
        <ele>654</ele>
        <time>2020-10-18T08:06:28Z</time>
      </trkpt>
      <trkpt lat="43.57532" lon="1.44293">
        <ele>654</ele>
        <time>2020-10-18T08:06:29Z</time>
      </trkpt>
      <trkpt lat="43.57533" lon="1.44297">
        <ele>654</ele>
        <time>2020-10-18T08:06:30Z</time>
      </trkpt>
      <trkpt lat="43.57534" lon="1.44301">
        <ele>654</ele>
        <time>2020-10-18T08:06:31Z</time>
      </trkpt>
      <trkpt lat="43.57536" lon="1.44306">
        <ele>654</ele>
        <time>2020-10-18T08:06:32Z</time>
      </trkpt>
      <trkpt lat="43.57534" lon="1.44302">
        <ele>654</ele>
        <time>2020-10-18T08:06:38Z</time>
      </trkpt>
      <trkpt lat="43.57532" lon="1.44299">
        <ele>654</ele>
        <time>2020-10-18T08:06:39Z</time>
      </trkpt>
      <trkpt lat="43.57529" lon="1.44293">
        <ele>654</ele>
        <time>2020-10-18T08:06:40Z</time>
      </trkpt>
      <trkpt lat="43.57528" lon="1.4429">
        <ele>654</ele>
        <time>2020-10-18T08:06:41Z</time>
      </trkpt>
      <trkpt lat="43.57526" lon="1.44288">
        <ele>654</ele>
        <time>2020-10-18T08:06:42Z</time>
      </trkpt>
      <trkpt lat="43.57524" lon="1.44286">
        <ele>654</ele>
        <time>2020-10-18T08:06:43Z</time>
      </trkpt>
      <trkpt lat="43.57523" lon="1.44284">
        <ele>654</ele>
        <time>2020-10-18T08:06:44Z</time>
      </trkpt>
      <trkpt lat="43.57522" lon="1.44282">
        <ele>654</ele>
        <time>2020-10-18T08:06:46Z</time>
      </trkpt>
      <trkpt lat="43.5752" lon="1.4428">
        <ele>654</ele>
        <time>2020-10-18T08:06:47Z</time>
      </trkpt>
      <trkpt lat="43.57518" lon="1.44278">
        <ele>654</ele>
        <time>2020-10-18T08:06:48Z</time>
      </trkpt>
      <trkpt lat="43.57517" lon="1.44276">
        <ele>654</ele>
        <time>2020-10-18T08:06:49Z</time>
      </trkpt>
      <trkpt lat="43.57514" lon="1.44271">
        <ele>654</ele>
        <time>2020-10-18T08:06:50Z</time>
      </trkpt>
      <trkpt lat="43.57512" lon="1.44269">
        <ele>654</ele>
        <time>2020-10-18T08:06:51Z</time>
      </trkpt>
      <trkpt lat="43.57511" lon="1.44267">
        <ele>655</ele>
        <time>2020-10-18T08:06:53Z</time>
      </trkpt>
      <trkpt lat="43.57509" lon="1.44265">
        <ele>655</ele>
        <time>2020-10-18T08:06:54Z</time>
      </trkpt>
      <trkpt lat="43.57508" lon="1.44263">
        <ele>655</ele>
        <time>2020-10-18T08:06:55Z</time>
      </trkpt>
      <trkpt lat="43.57505" lon="1.4426">
        <ele>655</ele>
        <time>2020-10-18T08:06:57Z</time>
      </trkpt>
      <trkpt lat="43.57503" lon="1.44257">
        <ele>655</ele>
        <time>2020-10-18T08:06:58Z</time>
      </trkpt>
      <trkpt lat="43.575" lon="1.44253">
        <ele>655</ele>
        <time>2020-10-18T08:06:59Z</time>
      </trkpt>
      <trkpt lat="43.57498" lon="1.44251">
        <ele>655</ele>
        <time>2020-10-18T08:07:00Z</time>
      </trkpt>
      <trkpt lat="43.57495" lon="1.44247">
        <ele>655</ele>
        <time>2020-10-18T08:07:02Z</time>
      </trkpt>
      <trkpt lat="43.57493" lon="1.44245">
        <ele>655</ele>
        <time>2020-10-18T08:07:03Z</time>
      </trkpt>
      <trkpt lat="43.57492" lon="1.44242">
        <ele>656</ele>
        <time>2020-10-18T08:07:04Z</time>
      </trkpt>
      <trkpt lat="43.57491" lon="1.4424">
        <ele>656</ele>
        <time>2020-10-18T08:07:05Z</time>
      </trkpt>
      <trkpt lat="43.5749" lon="1.44238">
        <ele>656</ele>
        <time>2020-10-18T08:07:07Z</time>
      </trkpt>
      <trkpt lat="43.57488" lon="1.44235">
        <ele>656</ele>
        <time>2020-10-18T08:07:08Z</time>
      </trkpt>
      <trkpt lat="43.57487" lon="1.44233">
        <ele>657</ele>
        <time>2020-10-18T08:07:09Z</time>
      </trkpt>
      <trkpt lat="43.57484" lon="1.44231">
        <ele>657</ele>
        <time>2020-10-18T08:07:10Z</time>
      </trkpt>
      <trkpt lat="43.57482" lon="1.44229">
        <ele>657</ele>
        <time>2020-10-18T08:07:11Z</time>
      </trkpt>
      <trkpt lat="43.57479" lon="1.44225">
        <ele>658</ele>
        <time>2020-10-18T08:07:13Z</time>
      </trkpt>
      <trkpt lat="43.57474" lon="1.44219">
        <ele>658</ele>
        <time>2020-10-18T08:07:14Z</time>
      </trkpt>
      <trkpt lat="43.57472" lon="1.44215">
        <ele>659</ele>
        <time>2020-10-18T08:07:15Z</time>
      </trkpt>
      <trkpt lat="43.5747" lon="1.44212">
        <ele>660</ele>
        <time>2020-10-18T08:07:17Z</time>
      </trkpt>
      <trkpt lat="43.57468" lon="1.44209">
        <ele>660</ele>
        <time>2020-10-18T08:07:18Z</time>
      </trkpt>
      <trkpt lat="43.57467" lon="1.44206">
        <ele>660</ele>
        <time>2020-10-18T08:07:19Z</time>
      </trkpt>
      <trkpt lat="43.57465" lon="1.44203">
        <ele>661</ele>
        <time>2020-10-18T08:07:20Z</time>
      </trkpt>
      <trkpt lat="43.57464" lon="1.442">
        <ele>661</ele>
        <time>2020-10-18T08:07:21Z</time>
      </trkpt>
      <trkpt lat="43.57462" lon="1.44197">
        <ele>661</ele>
        <time>2020-10-18T08:07:22Z</time>
      </trkpt>
      <trkpt lat="43.5746" lon="1.44195">
        <ele>661</ele>
        <time>2020-10-18T08:07:23Z</time>
      </trkpt>
      <trkpt lat="43.57458" lon="1.44193">
        <ele>661</ele>
        <time>2020-10-18T08:07:24Z</time>
      </trkpt>
      <trkpt lat="43.57457" lon="1.4419">
        <ele>661</ele>
        <time>2020-10-18T08:07:25Z</time>
      </trkpt>
      <trkpt lat="43.57456" lon="1.44188">
        <ele>661</ele>
        <time>2020-10-18T08:07:26Z</time>
      </trkpt>
      <trkpt lat="43.57454" lon="1.44186">
        <ele>663</ele>
        <time>2020-10-18T08:07:27Z</time>
      </trkpt>
      <trkpt lat="43.57451" lon="1.44183">
        <ele>663</ele>
        <time>2020-10-18T08:07:28Z</time>
      </trkpt>
      <trkpt lat="43.5745" lon="1.44181">
        <ele>663</ele>
        <time>2020-10-18T08:07:29Z</time>
      </trkpt>
      <trkpt lat="43.57448" lon="1.44179">
        <ele>664</ele>
        <time>2020-10-18T08:07:31Z</time>
      </trkpt>
      <trkpt lat="43.57447" lon="1.44177">
        <ele>664</ele>
        <time>2020-10-18T08:07:32Z</time>
      </trkpt>
      <trkpt lat="43.57443" lon="1.44174">
        <ele>665</ele>
        <time>2020-10-18T08:07:33Z</time>
      </trkpt>
      <trkpt lat="43.57441" lon="1.44172">
        <ele>665</ele>
        <time>2020-10-18T08:07:34Z</time>
      </trkpt>
      <trkpt lat="43.5744" lon="1.44171">
        <ele>666</ele>
        <time>2020-10-18T08:07:35Z</time>
      </trkpt>
      <trkpt lat="43.57437" lon="1.44168">
        <ele>667</ele>
        <time>2020-10-18T08:07:38Z</time>
      </trkpt>
      <trkpt lat="43.57432" lon="1.44165">
        <ele>668</ele>
        <time>2020-10-18T08:07:40Z</time>
      </trkpt>
      <trkpt lat="43.57429" lon="1.44162">
        <ele>669</ele>
        <time>2020-10-18T08:07:43Z</time>
      </trkpt>
      <trkpt lat="43.57427" lon="1.44161">
        <ele>669</ele>
        <time>2020-10-18T08:07:44Z</time>
      </trkpt>
      <trkpt lat="43.57426" lon="1.44159">
        <ele>669</ele>
        <time>2020-10-18T08:07:45Z</time>
      </trkpt>
      <trkpt lat="43.57424" lon="1.44157">
        <ele>670</ele>
        <time>2020-10-18T08:07:46Z</time>
      </trkpt>
      <trkpt lat="43.57421" lon="1.44152">
        <ele>670</ele>
        <time>2020-10-18T08:07:47Z</time>
      </trkpt>
      <trkpt lat="43.5742" lon="1.44151">
        <ele>670</ele>
        <time>2020-10-18T08:07:48Z</time>
      </trkpt>
      <trkpt lat="43.57418" lon="1.44148">
        <ele>670</ele>
        <time>2020-10-18T08:07:49Z</time>
      </trkpt>
      <trkpt lat="43.57416" lon="1.44145">
        <ele>671</ele>
        <time>2020-10-18T08:07:50Z</time>
      </trkpt>
      <trkpt lat="43.57414" lon="1.44143">
        <ele>672</ele>
        <time>2020-10-18T08:07:52Z</time>
      </trkpt>
      <trkpt lat="43.57414" lon="1.4414">
        <ele>672</ele>
        <time>2020-10-18T08:07:53Z</time>
      </trkpt>
      <trkpt lat="43.57411" lon="1.44136">
        <ele>673</ele>
        <time>2020-10-18T08:07:54Z</time>
      </trkpt>
      <trkpt lat="43.5741" lon="1.44134">
        <ele>674</ele>
        <time>2020-10-18T08:07:55Z</time>
      </trkpt>
      <trkpt lat="43.57409" lon="1.44132">
        <ele>674</ele>
        <time>2020-10-18T08:07:56Z</time>
      </trkpt>
      <trkpt lat="43.57407" lon="1.4413">
        <ele>674</ele>
        <time>2020-10-18T08:07:57Z</time>
      </trkpt>
      <trkpt lat="43.57406" lon="1.44128">
        <ele>675</ele>
        <time>2020-10-18T08:07:58Z</time>
      </trkpt>
      <trkpt lat="43.57404" lon="1.44127">
        <ele>676</ele>
        <time>2020-10-18T08:08:00Z</time>
      </trkpt>
      <trkpt lat="43.57401" lon="1.44124">
        <ele>676</ele>
        <time>2020-10-18T08:08:02Z</time>
      </trkpt>
      <trkpt lat="43.57399" lon="1.44121">
        <ele>677</ele>
        <time>2020-10-18T08:08:03Z</time>
      </trkpt>
      <trkpt lat="43.57397" lon="1.44119">
        <ele>677</ele>
        <time>2020-10-18T08:08:05Z</time>
      </trkpt>
      <trkpt lat="43.57396" lon="1.44117">
        <ele>678</ele>
        <time>2020-10-18T08:08:06Z</time>
      </trkpt>
      <trkpt lat="43.57393" lon="1.44113">
        <ele>678</ele>
        <time>2020-10-18T08:08:07Z</time>
      </trkpt>
      <trkpt lat="43.57392" lon="1.44111">
        <ele>678</ele>
        <time>2020-10-18T08:08:08Z</time>
      </trkpt>
      <trkpt lat="43.5739" lon="1.44109">
        <ele>678</ele>
        <time>2020-10-18T08:08:10Z</time>
      </trkpt>
      <trkpt lat="43.57386" lon="1.44108">
        <ele>679</ele>
        <time>2020-10-18T08:08:11Z</time>
      </trkpt>
      <trkpt lat="43.57382" lon="1.44107">
        <ele>679</ele>
        <time>2020-10-18T08:08:14Z</time>
      </trkpt>
      <trkpt lat="43.57379" lon="1.44108">
        <ele>679</ele>
        <time>2020-10-18T08:08:15Z</time>
      </trkpt>
      <trkpt lat="43.57375" lon="1.44109">
        <ele>680</ele>
        <time>2020-10-18T08:08:17Z</time>
      </trkpt>
      <trkpt lat="43.57372" lon="1.4411">
        <ele>680</ele>
        <time>2020-10-18T08:08:18Z</time>
      </trkpt>
      <trkpt lat="43.5737" lon="1.4411">
        <ele>681</ele>
        <time>2020-10-18T08:08:20Z</time>
      </trkpt>
      <trkpt lat="43.57368" lon="1.44111">
        <ele>681</ele>
        <time>2020-10-18T08:08:21Z</time>
      </trkpt>
      <trkpt lat="43.57364" lon="1.44112">
        <ele>681</ele>
        <time>2020-10-18T08:08:22Z</time>
      </trkpt>
      <trkpt lat="43.5736" lon="1.44113">
        <ele>681</ele>
        <time>2020-10-18T08:08:24Z</time>
      </trkpt>
      <trkpt lat="43.57358" lon="1.44114">
        <ele>682</ele>
        <time>2020-10-18T08:08:25Z</time>
      </trkpt>
      <trkpt lat="43.57356" lon="1.44115">
        <ele>682</ele>
        <time>2020-10-18T08:08:27Z</time>
      </trkpt>
      <trkpt lat="43.57354" lon="1.44117">
        <ele>682</ele>
        <time>2020-10-18T08:08:28Z</time>
      </trkpt>
      <trkpt lat="43.57353" lon="1.44118">
        <ele>683</ele>
        <time>2020-10-18T08:08:29Z</time>
      </trkpt>
      <trkpt lat="43.5735" lon="1.4412">
        <ele>683</ele>
        <time>2020-10-18T08:08:30Z</time>
      </trkpt>
      <trkpt lat="43.57348" lon="1.44121">
        <ele>683</ele>
        <time>2020-10-18T08:08:31Z</time>
      </trkpt>
      <trkpt lat="43.57345" lon="1.44124">
        <ele>684</ele>
        <time>2020-10-18T08:08:34Z</time>
      </trkpt>
      <trkpt lat="43.57342" lon="1.44126">
        <ele>684</ele>
        <time>2020-10-18T08:08:36Z</time>
      </trkpt>
      <trkpt lat="43.57339" lon="1.44128">
        <ele>685</ele>
        <time>2020-10-18T08:08:37Z</time>
      </trkpt>
      <trkpt lat="43.57336" lon="1.44131">
        <ele>687</ele>
        <time>2020-10-18T08:08:39Z</time>
      </trkpt>
      <trkpt lat="43.57332" lon="1.44132">
        <ele>688</ele>
        <time>2020-10-18T08:08:41Z</time>
      </trkpt>
      <trkpt lat="43.5733" lon="1.44133">
        <ele>688</ele>
        <time>2020-10-18T08:08:43Z</time>
      </trkpt>
      <trkpt lat="43.57328" lon="1.44134">
        <ele>688</ele>
        <time>2020-10-18T08:08:44Z</time>
      </trkpt>
      <trkpt lat="43.57327" lon="1.44135">
        <ele>688</ele>
        <time>2020-10-18T08:08:45Z</time>
      </trkpt>
      <trkpt lat="43.57322" lon="1.44137">
        <ele>688</ele>
        <time>2020-10-18T08:08:46Z</time>
      </trkpt>
      <trkpt lat="43.5732" lon="1.44137">
        <ele>689</ele>
        <time>2020-10-18T08:08:47Z</time>
      </trkpt>
      <trkpt lat="43.57316" lon="1.44139">
        <ele>689</ele>
        <time>2020-10-18T08:08:49Z</time>
      </trkpt>
      <trkpt lat="43.57313" lon="1.44141">
        <ele>690</ele>
        <time>2020-10-18T08:08:51Z</time>
      </trkpt>
      <trkpt lat="43.57311" lon="1.44142">
        <ele>690</ele>
        <time>2020-10-18T08:08:52Z</time>
      </trkpt>
      <trkpt lat="43.57309" lon="1.44143">
        <ele>691</ele>
        <time>2020-10-18T08:08:54Z</time>
      </trkpt>
      <trkpt lat="43.57306" lon="1.44144">
        <ele>691</ele>
        <time>2020-10-18T08:08:55Z</time>
      </trkpt>
      <trkpt lat="43.57304" lon="1.44144">
        <ele>691</ele>
        <time>2020-10-18T08:08:56Z</time>
      </trkpt>
      <trkpt lat="43.57302" lon="1.44145">
        <ele>692</ele>
        <time>2020-10-18T08:08:57Z</time>
      </trkpt>
      <trkpt lat="43.57297" lon="1.44145">
        <ele>692</ele>
        <time>2020-10-18T08:08:58Z</time>
      </trkpt>
      <trkpt lat="43.57295" lon="1.44145">
        <ele>693</ele>
        <time>2020-10-18T08:08:59Z</time>
      </trkpt>
      <trkpt lat="43.57293" lon="1.44145">
        <ele>693</ele>
        <time>2020-10-18T08:09:01Z</time>
      </trkpt>
      <trkpt lat="43.57291" lon="1.44145">
        <ele>693</ele>
        <time>2020-10-18T08:09:02Z</time>
      </trkpt>
      <trkpt lat="43.57289" lon="1.44146">
        <ele>693</ele>
        <time>2020-10-18T08:09:03Z</time>
      </trkpt>
      <trkpt lat="43.57287" lon="1.44147">
        <ele>693</ele>
        <time>2020-10-18T08:09:04Z</time>
      </trkpt>
      <trkpt lat="43.57283" lon="1.44147">
        <ele>693</ele>
        <time>2020-10-18T08:09:05Z</time>
      </trkpt>
      <trkpt lat="43.57278" lon="1.44148">
        <ele>694</ele>
        <time>2020-10-18T08:09:07Z</time>
      </trkpt>
      <trkpt lat="43.57276" lon="1.44149">
        <ele>694</ele>
        <time>2020-10-18T08:09:08Z</time>
      </trkpt>
      <trkpt lat="43.57274" lon="1.44149">
        <ele>694</ele>
        <time>2020-10-18T08:09:09Z</time>
      </trkpt>
      <trkpt lat="43.57273" lon="1.4415">
        <ele>694</ele>
        <time>2020-10-18T08:09:10Z</time>
      </trkpt>
      <trkpt lat="43.5727" lon="1.4415">
        <ele>695</ele>
        <time>2020-10-18T08:09:12Z</time>
      </trkpt>
      <trkpt lat="43.57268" lon="1.44151">
        <ele>695</ele>
        <time>2020-10-18T08:09:13Z</time>
      </trkpt>
      <trkpt lat="43.57263" lon="1.44152">
        <ele>695</ele>
        <time>2020-10-18T08:09:14Z</time>
      </trkpt>
      <trkpt lat="43.57261" lon="1.44152">
        <ele>695</ele>
        <time>2020-10-18T08:09:15Z</time>
      </trkpt>
      <trkpt lat="43.57258" lon="1.44152">
        <ele>695</ele>
        <time>2020-10-18T08:09:17Z</time>
      </trkpt>
      <trkpt lat="43.57253" lon="1.44151">
        <ele>696</ele>
        <time>2020-10-18T08:09:18Z</time>
      </trkpt>
      <trkpt lat="43.57251" lon="1.44151">
        <ele>696</ele>
        <time>2020-10-18T08:09:19Z</time>
      </trkpt>
      <trkpt lat="43.57249" lon="1.44151">
        <ele>696</ele>
        <time>2020-10-18T08:09:21Z</time>
      </trkpt>
      <trkpt lat="43.57246" lon="1.44151">
        <ele>696</ele>
        <time>2020-10-18T08:09:22Z</time>
      </trkpt>
      <trkpt lat="43.57244" lon="1.4415">
        <ele>697</ele>
        <time>2020-10-18T08:09:23Z</time>
      </trkpt>
      <trkpt lat="43.5724" lon="1.44149">
        <ele>697</ele>
        <time>2020-10-18T08:09:25Z</time>
      </trkpt>
      <trkpt lat="43.57236" lon="1.44148">
        <ele>697</ele>
        <time>2020-10-18T08:09:26Z</time>
      </trkpt>
      <trkpt lat="43.57234" lon="1.44148">
        <ele>697</ele>
        <time>2020-10-18T08:09:27Z</time>
      </trkpt>
      <trkpt lat="43.5723" lon="1.44148">
        <ele>697</ele>
        <time>2020-10-18T08:09:29Z</time>
      </trkpt>
      <trkpt lat="43.57228" lon="1.44147">
        <ele>697</ele>
        <time>2020-10-18T08:09:30Z</time>
      </trkpt>
      <trkpt lat="43.57226" lon="1.44147">
        <ele>697</ele>
        <time>2020-10-18T08:09:31Z</time>
      </trkpt>
      <trkpt lat="43.57224" lon="1.44146">
        <ele>697</ele>
        <time>2020-10-18T08:09:32Z</time>
      </trkpt>
      <trkpt lat="43.57222" lon="1.44146">
        <ele>698</ele>
        <time>2020-10-18T08:09:34Z</time>
      </trkpt>
      <trkpt lat="43.5722" lon="1.44146">
        <ele>698</ele>
        <time>2020-10-18T08:09:35Z</time>
      </trkpt>
      <trkpt lat="43.57217" lon="1.44147">
        <ele>698</ele>
        <time>2020-10-18T08:09:36Z</time>
      </trkpt>
      <trkpt lat="43.57214" lon="1.44149">
        <ele>698</ele>
        <time>2020-10-18T08:09:37Z</time>
      </trkpt>
      <trkpt lat="43.57213" lon="1.4415">
        <ele>698</ele>
        <time>2020-10-18T08:09:38Z</time>
      </trkpt>
      <trkpt lat="43.57211" lon="1.44151">
        <ele>698</ele>
        <time>2020-10-18T08:09:40Z</time>
      </trkpt>
      <trkpt lat="43.57208" lon="1.44151">
        <ele>698</ele>
        <time>2020-10-18T08:09:41Z</time>
      </trkpt>
      <trkpt lat="43.57203" lon="1.44151">
        <ele>699</ele>
        <time>2020-10-18T08:09:42Z</time>
      </trkpt>
      <trkpt lat="43.572" lon="1.44152">
        <ele>699</ele>
        <time>2020-10-18T08:09:43Z</time>
      </trkpt>
      <trkpt lat="43.57198" lon="1.44153">
        <ele>699</ele>
        <time>2020-10-18T08:09:45Z</time>
      </trkpt>
      <trkpt lat="43.57193" lon="1.44154">
        <ele>699</ele>
        <time>2020-10-18T08:09:46Z</time>
      </trkpt>
      <trkpt lat="43.57191" lon="1.44153">
        <ele>699</ele>
        <time>2020-10-18T08:09:47Z</time>
      </trkpt>
      <trkpt lat="43.57188" lon="1.44153">
        <ele>699</ele>
        <time>2020-10-18T08:09:48Z</time>
      </trkpt>
      <trkpt lat="43.57186" lon="1.44153">
        <ele>700</ele>
        <time>2020-10-18T08:09:50Z</time>
      </trkpt>
      <trkpt lat="43.57184" lon="1.44154">
        <ele>700</ele>
        <time>2020-10-18T08:09:51Z</time>
      </trkpt>
      <trkpt lat="43.5718" lon="1.44154">
        <ele>701</ele>
        <time>2020-10-18T08:09:53Z</time>
      </trkpt>
      <trkpt lat="43.57176" lon="1.44155">
        <ele>701</ele>
        <time>2020-10-18T08:09:54Z</time>
      </trkpt>
      <trkpt lat="43.57173" lon="1.44154">
        <ele>701</ele>
        <time>2020-10-18T08:09:55Z</time>
      </trkpt>
      <trkpt lat="43.5717" lon="1.44153">
        <ele>701</ele>
        <time>2020-10-18T08:09:57Z</time>
      </trkpt>
      <trkpt lat="43.57168" lon="1.44153">
        <ele>701</ele>
        <time>2020-10-18T08:09:58Z</time>
      </trkpt>
      <trkpt lat="43.57166" lon="1.44153">
        <ele>702</ele>
        <time>2020-10-18T08:09:59Z</time>
      </trkpt>
      <trkpt lat="43.57164" lon="1.44152">
        <ele>702</ele>
        <time>2020-10-18T08:10:00Z</time>
      </trkpt>
      <trkpt lat="43.57161" lon="1.44153">
        <ele>703</ele>
        <time>2020-10-18T08:10:01Z</time>
      </trkpt>
      <trkpt lat="43.57157" lon="1.44151">
        <ele>703</ele>
        <time>2020-10-18T08:10:02Z</time>
      </trkpt>
      <trkpt lat="43.57154" lon="1.44151">
        <ele>704</ele>
        <time>2020-10-18T08:10:03Z</time>
      </trkpt>
      <trkpt lat="43.57152" lon="1.44151">
        <ele>704</ele>
        <time>2020-10-18T08:10:05Z</time>
      </trkpt>
      <trkpt lat="43.5715" lon="1.44152">
        <ele>704</ele>
        <time>2020-10-18T08:10:06Z</time>
      </trkpt>
      <trkpt lat="43.57148" lon="1.44153">
        <ele>704</ele>
        <time>2020-10-18T08:10:07Z</time>
      </trkpt>
      <trkpt lat="43.57145" lon="1.44154">
        <ele>706</ele>
        <time>2020-10-18T08:10:08Z</time>
      </trkpt>
      <trkpt lat="43.57143" lon="1.44156">
        <ele>706</ele>
        <time>2020-10-18T08:10:11Z</time>
      </trkpt>
      <trkpt lat="43.5714" lon="1.44159">
        <ele>707</ele>
        <time>2020-10-18T08:10:13Z</time>
      </trkpt>
      <trkpt lat="43.57138" lon="1.4416">
        <ele>707</ele>
        <time>2020-10-18T08:10:14Z</time>
      </trkpt>
      <trkpt lat="43.57134" lon="1.44162">
        <ele>708</ele>
        <time>2020-10-18T08:10:15Z</time>
      </trkpt>
      <trkpt lat="43.57133" lon="1.44163">
        <ele>708</ele>
        <time>2020-10-18T08:10:17Z</time>
      </trkpt>
      <trkpt lat="43.57128" lon="1.44164">
        <ele>708</ele>
        <time>2020-10-18T08:10:18Z</time>
      </trkpt>
      <trkpt lat="43.57126" lon="1.44165">
        <ele>708</ele>
        <time>2020-10-18T08:10:19Z</time>
      </trkpt>
      <trkpt lat="43.57124" lon="1.44165">
        <ele>708</ele>
        <time>2020-10-18T08:10:21Z</time>
      </trkpt>
      <trkpt lat="43.57122" lon="1.44165">
        <ele>709</ele>
        <time>2020-10-18T08:10:22Z</time>
      </trkpt>
      <trkpt lat="43.57119" lon="1.44166">
        <ele>709</ele>
        <time>2020-10-18T08:10:23Z</time>
      </trkpt>
      <trkpt lat="43.57117" lon="1.44167">
        <ele>710</ele>
        <time>2020-10-18T08:10:24Z</time>
      </trkpt>
      <trkpt lat="43.57115" lon="1.44168">
        <ele>710</ele>
        <time>2020-10-18T08:10:25Z</time>
      </trkpt>
      <trkpt lat="43.57113" lon="1.44168">
        <ele>710</ele>
        <time>2020-10-18T08:10:26Z</time>
      </trkpt>
      <trkpt lat="43.5711" lon="1.44167">
        <ele>711</ele>
        <time>2020-10-18T08:10:29Z</time>
      </trkpt>
      <trkpt lat="43.57108" lon="1.44167">
        <ele>711</ele>
        <time>2020-10-18T08:10:31Z</time>
      </trkpt>
      <trkpt lat="43.57105" lon="1.44168">
        <ele>711</ele>
        <time>2020-10-18T08:10:32Z</time>
      </trkpt>
      <trkpt lat="43.57102" lon="1.44169">
        <ele>711</ele>
        <time>2020-10-18T08:10:35Z</time>
      </trkpt>
      <trkpt lat="43.57099" lon="1.4417">
        <ele>712</ele>
        <time>2020-10-18T08:10:37Z</time>
      </trkpt>
      <trkpt lat="43.57096" lon="1.4417">
        <ele>712</ele>
        <time>2020-10-18T08:10:38Z</time>
      </trkpt>
      <trkpt lat="43.57093" lon="1.44171">
        <ele>712</ele>
        <time>2020-10-18T08:10:40Z</time>
      </trkpt>
      <trkpt lat="43.5709" lon="1.44172">
        <ele>713</ele>
        <time>2020-10-18T08:10:43Z</time>
      </trkpt>
      <trkpt lat="43.57087" lon="1.44173">
        <ele>713</ele>
        <time>2020-10-18T08:10:44Z</time>
      </trkpt>
      <trkpt lat="43.57084" lon="1.44174">
        <ele>713</ele>
        <time>2020-10-18T08:10:47Z</time>
      </trkpt>
      <trkpt lat="43.57082" lon="1.44175">
        <ele>714</ele>
        <time>2020-10-18T08:10:49Z</time>
      </trkpt>
      <trkpt lat="43.57079" lon="1.44176">
        <ele>715</ele>
        <time>2020-10-18T08:10:53Z</time>
      </trkpt>
      <trkpt lat="43.57077" lon="1.44177">
        <ele>715</ele>
        <time>2020-10-18T08:10:55Z</time>
      </trkpt>
      <trkpt lat="43.57074" lon="1.44178">
        <ele>715</ele>
        <time>2020-10-18T08:10:57Z</time>
      </trkpt>
      <trkpt lat="43.57071" lon="1.44179">
        <ele>715</ele>
        <time>2020-10-18T08:10:59Z</time>
      </trkpt>
      <trkpt lat="43.57068" lon="1.44181">
        <ele>715</ele>
        <time>2020-10-18T08:11:01Z</time>
      </trkpt>
      <trkpt lat="43.57066" lon="1.44182">
        <ele>715</ele>
        <time>2020-10-18T08:11:03Z</time>
      </trkpt>
      <trkpt lat="43.57063" lon="1.44183">
        <ele>716</ele>
        <time>2020-10-18T08:11:05Z</time>
      </trkpt>
      <trkpt lat="43.5706" lon="1.44185">
        <ele>716</ele>
        <time>2020-10-18T08:11:06Z</time>
      </trkpt>
      <trkpt lat="43.57057" lon="1.44185">
        <ele>717</ele>
        <time>2020-10-18T08:11:09Z</time>
      </trkpt>
      <trkpt lat="43.57055" lon="1.44186">
        <ele>717</ele>
        <time>2020-10-18T08:11:10Z</time>
      </trkpt>
      <trkpt lat="43.57053" lon="1.44188">
        <ele>717</ele>
        <time>2020-10-18T08:11:13Z</time>
      </trkpt>
      <trkpt lat="43.5705" lon="1.4419">
        <ele>717</ele>
        <time>2020-10-18T08:11:15Z</time>
      </trkpt>
      <trkpt lat="43.57047" lon="1.44191">
        <ele>718</ele>
        <time>2020-10-18T08:11:16Z</time>
      </trkpt>
      <trkpt lat="43.57045" lon="1.44193">
        <ele>718</ele>
        <time>2020-10-18T08:11:19Z</time>
      </trkpt>
      <trkpt lat="43.57042" lon="1.44195">
        <ele>718</ele>
        <time>2020-10-18T08:11:21Z</time>
      </trkpt>
      <trkpt lat="43.5704" lon="1.44196">
        <ele>718</ele>
        <time>2020-10-18T08:11:23Z</time>
      </trkpt>
      <trkpt lat="43.57037" lon="1.44197">
        <ele>719</ele>
        <time>2020-10-18T08:11:24Z</time>
      </trkpt>
      <trkpt lat="43.57034" lon="1.44197">
        <ele>719</ele>
        <time>2020-10-18T08:11:27Z</time>
      </trkpt>
      <trkpt lat="43.57032" lon="1.44197">
        <ele>719</ele>
        <time>2020-10-18T08:11:28Z</time>
      </trkpt>
      <trkpt lat="43.5703" lon="1.44198">
        <ele>720</ele>
        <time>2020-10-18T08:11:30Z</time>
      </trkpt>
      <trkpt lat="43.57027" lon="1.44199">
        <ele>720</ele>
        <time>2020-10-18T08:11:32Z</time>
      </trkpt>
      <trkpt lat="43.57024" lon="1.442">
        <ele>721</ele>
        <time>2020-10-18T08:11:35Z</time>
      </trkpt>
      <trkpt lat="43.5702" lon="1.44201">
        <ele>721</ele>
        <time>2020-10-18T08:11:36Z</time>
      </trkpt>
      <trkpt lat="43.57017" lon="1.44201">
        <ele>722</ele>
        <time>2020-10-18T08:11:39Z</time>
      </trkpt>
      <trkpt lat="43.57015" lon="1.44201">
        <ele>722</ele>
        <time>2020-10-18T08:11:41Z</time>
      </trkpt>
      <trkpt lat="43.57012" lon="1.44201">
        <ele>722</ele>
        <time>2020-10-18T08:11:43Z</time>
      </trkpt>
      <trkpt lat="43.57009" lon="1.44201">
        <ele>722</ele>
        <time>2020-10-18T08:11:44Z</time>
      </trkpt>
      <trkpt lat="43.57006" lon="1.44201">
        <ele>722</ele>
        <time>2020-10-18T08:11:47Z</time>
      </trkpt>
      <trkpt lat="43.57003" lon="1.44201">
        <ele>722</ele>
        <time>2020-10-18T08:11:49Z</time>
      </trkpt>
      <trkpt lat="43.57" lon="1.44201">
        <ele>723</ele>
        <time>2020-10-18T08:11:51Z</time>
      </trkpt>
      <trkpt lat="43.56997" lon="1.442">
        <ele>723</ele>
        <time>2020-10-18T08:11:53Z</time>
      </trkpt>
      <trkpt lat="43.56995" lon="1.442">
        <ele>723</ele>
        <time>2020-10-18T08:11:55Z</time>
      </trkpt>
      <trkpt lat="43.56992" lon="1.442">
        <ele>723</ele>
        <time>2020-10-18T08:11:57Z</time>
      </trkpt>
      <trkpt lat="43.56989" lon="1.442">
        <ele>723</ele>
        <time>2020-10-18T08:11:59Z</time>
      </trkpt>
      <trkpt lat="43.56986" lon="1.442">
        <ele>724</ele>
        <time>2020-10-18T08:12:01Z</time>
      </trkpt>
      <trkpt lat="43.56982" lon="1.44201">
        <ele>724</ele>
        <time>2020-10-18T08:12:02Z</time>
      </trkpt>
      <trkpt lat="43.56979" lon="1.44202">
        <ele>724</ele>
        <time>2020-10-18T08:12:05Z</time>
      </trkpt>
      <trkpt lat="43.56976" lon="1.44203">
        <ele>724</ele>
        <time>2020-10-18T08:12:06Z</time>
      </trkpt>
      <trkpt lat="43.56973" lon="1.44204">
        <ele>724</ele>
        <time>2020-10-18T08:12:09Z</time>
      </trkpt>
      <trkpt lat="43.5697" lon="1.44204">
        <ele>724</ele>
        <time>2020-10-18T08:12:10Z</time>
      </trkpt>
      <trkpt lat="43.56968" lon="1.44205">
        <ele>725</ele>
        <time>2020-10-18T08:12:13Z</time>
      </trkpt>
      <trkpt lat="43.56965" lon="1.44206">
        <ele>725</ele>
        <time>2020-10-18T08:12:14Z</time>
      </trkpt>
      <trkpt lat="43.56962" lon="1.44206">
        <ele>725</ele>
        <time>2020-10-18T08:12:17Z</time>
      </trkpt>
      <trkpt lat="43.56959" lon="1.44207">
        <ele>725</ele>
        <time>2020-10-18T08:12:18Z</time>
      </trkpt>
      <trkpt lat="43.56956" lon="1.44207">
        <ele>725</ele>
        <time>2020-10-18T08:12:20Z</time>
      </trkpt>
      <trkpt lat="43.56953" lon="1.44206">
        <ele>725</ele>
        <time>2020-10-18T08:12:22Z</time>
      </trkpt>
      <trkpt lat="43.5695" lon="1.44206">
        <ele>726</ele>
        <time>2020-10-18T08:12:24Z</time>
      </trkpt>
      <trkpt lat="43.56947" lon="1.44206">
        <ele>727</ele>
        <time>2020-10-18T08:12:26Z</time>
      </trkpt>
      <trkpt lat="43.56944" lon="1.44205">
        <ele>728</ele>
        <time>2020-10-18T08:12:29Z</time>
      </trkpt>
      <trkpt lat="43.56942" lon="1.44205">
        <ele>728</ele>
        <time>2020-10-18T08:12:31Z</time>
      </trkpt>
      <trkpt lat="43.5694" lon="1.44205">
        <ele>728</ele>
        <time>2020-10-18T08:12:33Z</time>
      </trkpt>
      <trkpt lat="43.56937" lon="1.44205">
        <ele>728</ele>
        <time>2020-10-18T08:12:34Z</time>
      </trkpt>
      <trkpt lat="43.56934" lon="1.44205">
        <ele>729</ele>
        <time>2020-10-18T08:12:37Z</time>
      </trkpt>
      <trkpt lat="43.56931" lon="1.44205">
        <ele>729</ele>
        <time>2020-10-18T08:12:38Z</time>
      </trkpt>
      <trkpt lat="43.56929" lon="1.44206">
        <ele>729</ele>
        <time>2020-10-18T08:12:41Z</time>
      </trkpt>
      <trkpt lat="43.56926" lon="1.44206">
        <ele>729</ele>
        <time>2020-10-18T08:12:43Z</time>
      </trkpt>
      <trkpt lat="43.56923" lon="1.44207">
        <ele>729</ele>
        <time>2020-10-18T08:12:44Z</time>
      </trkpt>
      <trkpt lat="43.56921" lon="1.44207">
        <ele>729</ele>
        <time>2020-10-18T08:12:46Z</time>
      </trkpt>
      <trkpt lat="43.56918" lon="1.44208">
        <ele>729</ele>
        <time>2020-10-18T08:12:48Z</time>
      </trkpt>
      <trkpt lat="43.56915" lon="1.44209">
        <ele>730</ele>
        <time>2020-10-18T08:12:51Z</time>
      </trkpt>
      <trkpt lat="43.56912" lon="1.4421">
        <ele>731</ele>
        <time>2020-10-18T08:12:53Z</time>
      </trkpt>
      <trkpt lat="43.56909" lon="1.4421">
        <ele>731</ele>
        <time>2020-10-18T08:12:55Z</time>
      </trkpt>
      <trkpt lat="43.56906" lon="1.44211">
        <ele>731</ele>
        <time>2020-10-18T08:12:57Z</time>
      </trkpt>
      <trkpt lat="43.56903" lon="1.44212">
        <ele>731</ele>
        <time>2020-10-18T08:12:59Z</time>
      </trkpt>
      <trkpt lat="43.569" lon="1.44213">
        <ele>732</ele>
        <time>2020-10-18T08:13:01Z</time>
      </trkpt>
      <trkpt lat="43.56897" lon="1.44213">
        <ele>732</ele>
        <time>2020-10-18T08:13:03Z</time>
      </trkpt>
      <trkpt lat="43.56894" lon="1.44213">
        <ele>732</ele>
        <time>2020-10-18T08:13:04Z</time>
      </trkpt>
      <trkpt lat="43.56892" lon="1.44214">
        <ele>732</ele>
        <time>2020-10-18T08:13:07Z</time>
      </trkpt>
      <trkpt lat="43.56889" lon="1.44215">
        <ele>732</ele>
        <time>2020-10-18T08:13:09Z</time>
      </trkpt>
      <trkpt lat="43.56885" lon="1.44215">
        <ele>733</ele>
        <time>2020-10-18T08:13:11Z</time>
      </trkpt>
      <trkpt lat="43.56882" lon="1.44215">
        <ele>733</ele>
        <time>2020-10-18T08:13:12Z</time>
      </trkpt>
      <trkpt lat="43.56879" lon="1.44216">
        <ele>733</ele>
        <time>2020-10-18T08:13:15Z</time>
      </trkpt>
      <trkpt lat="43.56877" lon="1.44217">
        <ele>733</ele>
        <time>2020-10-18T08:13:17Z</time>
      </trkpt>
      <trkpt lat="43.56874" lon="1.44217">
        <ele>733</ele>
        <time>2020-10-18T08:13:19Z</time>
      </trkpt>
      <trkpt lat="43.56871" lon="1.44218">
        <ele>733</ele>
        <time>2020-10-18T08:13:21Z</time>
      </trkpt>
      <trkpt lat="43.56868" lon="1.44219">
        <ele>734</ele>
        <time>2020-10-18T08:13:23Z</time>
      </trkpt>
      <trkpt lat="43.56865" lon="1.44219">
        <ele>734</ele>
        <time>2020-10-18T08:13:25Z</time>
      </trkpt>
      <trkpt lat="43.56862" lon="1.4422">
        <ele>734</ele>
        <time>2020-10-18T08:13:26Z</time>
      </trkpt>
      <trkpt lat="43.5686" lon="1.4422">
        <ele>735</ele>
        <time>2020-10-18T08:13:28Z</time>
      </trkpt>
      <trkpt lat="43.56857" lon="1.4422">
        <ele>735</ele>
        <time>2020-10-18T08:13:30Z</time>
      </trkpt>
      <trkpt lat="43.56854" lon="1.44221">
        <ele>735</ele>
        <time>2020-10-18T08:13:33Z</time>
      </trkpt>
      <trkpt lat="43.56848" lon="1.44223">
        <ele>735</ele>
        <time>2020-10-18T08:13:35Z</time>
      </trkpt>
      <trkpt lat="43.56845" lon="1.44224">
        <ele>735</ele>
        <time>2020-10-18T08:13:36Z</time>
      </trkpt>
      <trkpt lat="43.5684" lon="1.44226">
        <ele>735</ele>
        <time>2020-10-18T08:13:38Z</time>
      </trkpt>
      <trkpt lat="43.56838" lon="1.44227">
        <ele>736</ele>
        <time>2020-10-18T08:13:39Z</time>
      </trkpt>
      <trkpt lat="43.56835" lon="1.44228">
        <ele>736</ele>
        <time>2020-10-18T08:13:40Z</time>
      </trkpt>
      <trkpt lat="43.56833" lon="1.44229">
        <ele>736</ele>
        <time>2020-10-18T08:13:41Z</time>
      </trkpt>
      <trkpt lat="43.5683" lon="1.4423">
        <ele>736</ele>
        <time>2020-10-18T08:13:43Z</time>
      </trkpt>
      <trkpt lat="43.56828" lon="1.44232">
        <ele>736</ele>
        <time>2020-10-18T08:13:44Z</time>
      </trkpt>
      <trkpt lat="43.56823" lon="1.44234">
        <ele>736</ele>
        <time>2020-10-18T08:13:45Z</time>
      </trkpt>
      <trkpt lat="43.5682" lon="1.44234">
        <ele>736</ele>
        <time>2020-10-18T08:13:47Z</time>
      </trkpt>
      <trkpt lat="43.56815" lon="1.44234">
        <ele>736</ele>
        <time>2020-10-18T08:13:48Z</time>
      </trkpt>
      <trkpt lat="43.56812" lon="1.44233">
        <ele>736</ele>
        <time>2020-10-18T08:13:49Z</time>
      </trkpt>
      <trkpt lat="43.56809" lon="1.44233">
        <ele>736</ele>
        <time>2020-10-18T08:13:50Z</time>
      </trkpt>
      <trkpt lat="43.56807" lon="1.44232">
        <ele>736</ele>
        <time>2020-10-18T08:13:52Z</time>
      </trkpt>
      <trkpt lat="43.56801" lon="1.4423">
        <ele>736</ele>
        <time>2020-10-18T08:13:53Z</time>
      </trkpt>
      <trkpt lat="43.56798" lon="1.4423">
        <ele>736</ele>
        <time>2020-10-18T08:13:55Z</time>
      </trkpt>
      <trkpt lat="43.56795" lon="1.4423">
        <ele>736</ele>
        <time>2020-10-18T08:13:56Z</time>
      </trkpt>
      <trkpt lat="43.56793" lon="1.44229">
        <ele>736</ele>
        <time>2020-10-18T08:13:57Z</time>
      </trkpt>
      <trkpt lat="43.5679" lon="1.44228">
        <ele>736</ele>
        <time>2020-10-18T08:13:58Z</time>
      </trkpt>
      <trkpt lat="43.56785" lon="1.44227">
        <ele>736</ele>
        <time>2020-10-18T08:13:59Z</time>
      </trkpt>
      <trkpt lat="43.56783" lon="1.44226">
        <ele>736</ele>
        <time>2020-10-18T08:14:00Z</time>
      </trkpt>
      <trkpt lat="43.5678" lon="1.44226">
        <ele>735</ele>
        <time>2020-10-18T08:14:02Z</time>
      </trkpt>
      <trkpt lat="43.56775" lon="1.44225">
        <ele>735</ele>
        <time>2020-10-18T08:14:03Z</time>
      </trkpt>
      <trkpt lat="43.56773" lon="1.44224">
        <ele>735</ele>
        <time>2020-10-18T08:14:04Z</time>
      </trkpt>
      <trkpt lat="43.56767" lon="1.44224">
        <ele>735</ele>
        <time>2020-10-18T08:14:07Z</time>
      </trkpt>
      <trkpt lat="43.56765" lon="1.44223">
        <ele>734</ele>
        <time>2020-10-18T08:14:09Z</time>
      </trkpt>
      <trkpt lat="43.5676" lon="1.44222">
        <ele>734</ele>
        <time>2020-10-18T08:14:10Z</time>
      </trkpt>
      <trkpt lat="43.56757" lon="1.44222">
        <ele>734</ele>
        <time>2020-10-18T08:14:12Z</time>
      </trkpt>
      <trkpt lat="43.56752" lon="1.44222">
        <ele>734</ele>
        <time>2020-10-18T08:14:13Z</time>
      </trkpt>
      <trkpt lat="43.5675" lon="1.44221">
        <ele>734</ele>
        <time>2020-10-18T08:14:14Z</time>
      </trkpt>
      <trkpt lat="43.56747" lon="1.44221">
        <ele>733</ele>
        <time>2020-10-18T08:14:16Z</time>
      </trkpt>
      <trkpt lat="43.56744" lon="1.44221">
        <ele>733</ele>
        <time>2020-10-18T08:14:17Z</time>
      </trkpt>
      <trkpt lat="43.56742" lon="1.4422">
        <ele>733</ele>
        <time>2020-10-18T08:14:18Z</time>
      </trkpt>
      <trkpt lat="43.56736" lon="1.44219">
        <ele>733</ele>
        <time>2020-10-18T08:14:19Z</time>
      </trkpt>
      <trkpt lat="43.56734" lon="1.44219">
        <ele>733</ele>
        <time>2020-10-18T08:14:20Z</time>
      </trkpt>
      <trkpt lat="43.56731" lon="1.44218">
        <ele>733</ele>
        <time>2020-10-18T08:14:21Z</time>
      </trkpt>
      <trkpt lat="43.56728" lon="1.44218">
        <ele>733</ele>
        <time>2020-10-18T08:14:22Z</time>
      </trkpt>
      <trkpt lat="43.56725" lon="1.44218">
        <ele>733</ele>
        <time>2020-10-18T08:14:24Z</time>
      </trkpt>
      <trkpt lat="43.56723" lon="1.44218">
        <ele>733</ele>
        <time>2020-10-18T08:14:25Z</time>
      </trkpt>
      <trkpt lat="43.5672" lon="1.44217">
        <ele>733</ele>
        <time>2020-10-18T08:14:26Z</time>
      </trkpt>
      <trkpt lat="43.56717" lon="1.44217">
        <ele>732</ele>
        <time>2020-10-18T08:14:27Z</time>
      </trkpt>
      <trkpt lat="43.56712" lon="1.44215">
        <ele>732</ele>
        <time>2020-10-18T08:14:28Z</time>
      </trkpt>
      <trkpt lat="43.56709" lon="1.44214">
        <ele>733</ele>
        <time>2020-10-18T08:14:29Z</time>
      </trkpt>
      <trkpt lat="43.56704" lon="1.44214">
        <ele>733</ele>
        <time>2020-10-18T08:14:31Z</time>
      </trkpt>
      <trkpt lat="43.56702" lon="1.44214">
        <ele>733</ele>
        <time>2020-10-18T08:14:32Z</time>
      </trkpt>
      <trkpt lat="43.56699" lon="1.44214">
        <ele>733</ele>
        <time>2020-10-18T08:14:34Z</time>
      </trkpt>
      <trkpt lat="43.56696" lon="1.44214">
        <ele>733</ele>
        <time>2020-10-18T08:14:35Z</time>
      </trkpt>
      <trkpt lat="43.56693" lon="1.44214">
        <ele>733</ele>
        <time>2020-10-18T08:14:36Z</time>
      </trkpt>
      <trkpt lat="43.56688" lon="1.44214">
        <ele>733</ele>
        <time>2020-10-18T08:14:37Z</time>
      </trkpt>
      <trkpt lat="43.56686" lon="1.44213">
        <ele>733</ele>
        <time>2020-10-18T08:14:38Z</time>
      </trkpt>
      <trkpt lat="43.56683" lon="1.44214">
        <ele>732</ele>
        <time>2020-10-18T08:14:39Z</time>
      </trkpt>
      <trkpt lat="43.56681" lon="1.44214">
        <ele>732</ele>
        <time>2020-10-18T08:14:41Z</time>
      </trkpt>
      <trkpt lat="43.56678" lon="1.44214">
        <ele>732</ele>
        <time>2020-10-18T08:14:42Z</time>
      </trkpt>
      <trkpt lat="43.56676" lon="1.44215">
        <ele>732</ele>
        <time>2020-10-18T08:14:43Z</time>
      </trkpt>
      <trkpt lat="43.56674" lon="1.44216">
        <ele>732</ele>
        <time>2020-10-18T08:14:44Z</time>
      </trkpt>
      <trkpt lat="43.5667" lon="1.4422">
        <ele>732</ele>
        <time>2020-10-18T08:14:45Z</time>
      </trkpt>
      <trkpt lat="43.56669" lon="1.44222">
        <ele>732</ele>
        <time>2020-10-18T08:14:47Z</time>
      </trkpt>
      <trkpt lat="43.56667" lon="1.44223">
        <ele>732</ele>
        <time>2020-10-18T08:14:48Z</time>
      </trkpt>
      <trkpt lat="43.56662" lon="1.44227">
        <ele>732</ele>
        <time>2020-10-18T08:14:49Z</time>
      </trkpt>
      <trkpt lat="43.56658" lon="1.4423">
        <ele>732</ele>
        <time>2020-10-18T08:14:51Z</time>
      </trkpt>
      <trkpt lat="43.56655" lon="1.44232">
        <ele>732</ele>
        <time>2020-10-18T08:14:52Z</time>
      </trkpt>
      <trkpt lat="43.56653" lon="1.44233">
        <ele>732</ele>
        <time>2020-10-18T08:14:53Z</time>
      </trkpt>
      <trkpt lat="43.56651" lon="1.44235">
        <ele>732</ele>
        <time>2020-10-18T08:14:55Z</time>
      </trkpt>
      <trkpt lat="43.56648" lon="1.44237">
        <ele>732</ele>
        <time>2020-10-18T08:14:56Z</time>
      </trkpt>
      <trkpt lat="43.56646" lon="1.44238">
        <ele>732</ele>
        <time>2020-10-18T08:14:57Z</time>
      </trkpt>
      <trkpt lat="43.56644" lon="1.44239">
        <ele>732</ele>
        <time>2020-10-18T08:14:58Z</time>
      </trkpt>
      <trkpt lat="43.56642" lon="1.4424">
        <ele>732</ele>
        <time>2020-10-18T08:14:59Z</time>
      </trkpt>
      <trkpt lat="43.5664" lon="1.44242">
        <ele>732</ele>
        <time>2020-10-18T08:15:00Z</time>
      </trkpt>
      <trkpt lat="43.56637" lon="1.44244">
        <ele>732</ele>
        <time>2020-10-18T08:15:01Z</time>
      </trkpt>
      <trkpt lat="43.56635" lon="1.44246">
        <ele>732</ele>
        <time>2020-10-18T08:15:02Z</time>
      </trkpt>
      <trkpt lat="43.56632" lon="1.44247">
        <ele>732</ele>
        <time>2020-10-18T08:15:03Z</time>
      </trkpt>
      <trkpt lat="43.56627" lon="1.4425">
        <ele>732</ele>
        <time>2020-10-18T08:15:04Z</time>
      </trkpt>
      <trkpt lat="43.56623" lon="1.44254">
        <ele>731</ele>
        <time>2020-10-18T08:15:06Z</time>
      </trkpt>
      <trkpt lat="43.5662" lon="1.44256">
        <ele>731</ele>
        <time>2020-10-18T08:15:07Z</time>
      </trkpt>
      <trkpt lat="43.56616" lon="1.44259">
        <ele>731</ele>
        <time>2020-10-18T08:15:09Z</time>
      </trkpt>
      <trkpt lat="43.5661" lon="1.44261">
        <ele>730</ele>
        <time>2020-10-18T08:15:11Z</time>
      </trkpt>
      <trkpt lat="43.56607" lon="1.44263">
        <ele>730</ele>
        <time>2020-10-18T08:15:12Z</time>
      </trkpt>
      <trkpt lat="43.56605" lon="1.44265">
        <ele>729</ele>
        <time>2020-10-18T08:15:13Z</time>
      </trkpt>
      <trkpt lat="43.56598" lon="1.4427">
        <ele>728</ele>
        <time>2020-10-18T08:15:15Z</time>
      </trkpt>
      <trkpt lat="43.56595" lon="1.44272">
        <ele>727</ele>
        <time>2020-10-18T08:15:17Z</time>
      </trkpt>
      <trkpt lat="43.56592" lon="1.44273">
        <ele>727</ele>
        <time>2020-10-18T08:15:18Z</time>
      </trkpt>
      <trkpt lat="43.56589" lon="1.44276">
        <ele>727</ele>
        <time>2020-10-18T08:15:19Z</time>
      </trkpt>
      <trkpt lat="43.56586" lon="1.44278">
        <ele>727</ele>
        <time>2020-10-18T08:15:20Z</time>
      </trkpt>
      <trkpt lat="43.56583" lon="1.4428">
        <ele>727</ele>
        <time>2020-10-18T08:15:21Z</time>
      </trkpt>
      <trkpt lat="43.56581" lon="1.44283">
        <ele>727</ele>
        <time>2020-10-18T08:15:22Z</time>
      </trkpt>
      <trkpt lat="43.56577" lon="1.44287">
        <ele>726</ele>
        <time>2020-10-18T08:15:23Z</time>
      </trkpt>
      <trkpt lat="43.56574" lon="1.44289">
        <ele>725</ele>
        <time>2020-10-18T08:15:25Z</time>
      </trkpt>
      <trkpt lat="43.56572" lon="1.44291">
        <ele>725</ele>
        <time>2020-10-18T08:15:26Z</time>
      </trkpt>
      <trkpt lat="43.56567" lon="1.44295">
        <ele>725</ele>
        <time>2020-10-18T08:15:27Z</time>
      </trkpt>
      <trkpt lat="43.56565" lon="1.44297">
        <ele>725</ele>
        <time>2020-10-18T08:15:29Z</time>
      </trkpt>
      <trkpt lat="43.56561" lon="1.44301">
        <ele>725</ele>
        <time>2020-10-18T08:15:30Z</time>
      </trkpt>
      <trkpt lat="43.56559" lon="1.44302">
        <ele>725</ele>
        <time>2020-10-18T08:15:31Z</time>
      </trkpt>
      <trkpt lat="43.56554" lon="1.44306">
        <ele>725</ele>
        <time>2020-10-18T08:15:33Z</time>
      </trkpt>
      <trkpt lat="43.56552" lon="1.44308">
        <ele>725</ele>
        <time>2020-10-18T08:15:34Z</time>
      </trkpt>
      <trkpt lat="43.5655" lon="1.4431">
        <ele>725</ele>
        <time>2020-10-18T08:15:35Z</time>
      </trkpt>
      <trkpt lat="43.56547" lon="1.44312">
        <ele>725</ele>
        <time>2020-10-18T08:15:36Z</time>
      </trkpt>
      <trkpt lat="43.56543" lon="1.44313">
        <ele>725</ele>
        <time>2020-10-18T08:15:38Z</time>
      </trkpt>
      <trkpt lat="43.5654" lon="1.44313">
        <ele>724</ele>
        <time>2020-10-18T08:15:39Z</time>
      </trkpt>
      <trkpt lat="43.56537" lon="1.44313">
        <ele>724</ele>
        <time>2020-10-18T08:15:40Z</time>
      </trkpt>
      <trkpt lat="43.56534" lon="1.44314">
        <ele>724</ele>
        <time>2020-10-18T08:15:41Z</time>
      </trkpt>
      <trkpt lat="43.56531" lon="1.44314">
        <ele>724</ele>
        <time>2020-10-18T08:15:42Z</time>
      </trkpt>
      <trkpt lat="43.56528" lon="1.44314">
        <ele>724</ele>
        <time>2020-10-18T08:15:43Z</time>
      </trkpt>
      <trkpt lat="43.56522" lon="1.44314">
        <ele>722</ele>
        <time>2020-10-18T08:15:44Z</time>
      </trkpt>
      <trkpt lat="43.56519" lon="1.44314">
        <ele>722</ele>
        <time>2020-10-18T08:15:45Z</time>
      </trkpt>
      <trkpt lat="43.56517" lon="1.44314">
        <ele>722</ele>
        <time>2020-10-18T08:15:46Z</time>
      </trkpt>
      <trkpt lat="43.56515" lon="1.44315">
        <ele>721</ele>
        <time>2020-10-18T08:15:48Z</time>
      </trkpt>
      <trkpt lat="43.56512" lon="1.44315">
        <ele>721</ele>
        <time>2020-10-18T08:15:49Z</time>
      </trkpt>
      <trkpt lat="43.5651" lon="1.44316">
        <ele>721</ele>
        <time>2020-10-18T08:15:50Z</time>
      </trkpt>
      <trkpt lat="43.56508" lon="1.44317">
        <ele>721</ele>
        <time>2020-10-18T08:15:51Z</time>
      </trkpt>
      <trkpt lat="43.56506" lon="1.44317">
        <ele>721</ele>
        <time>2020-10-18T08:15:52Z</time>
      </trkpt>
      <trkpt lat="43.56503" lon="1.44318">
        <ele>721</ele>
        <time>2020-10-18T08:15:53Z</time>
      </trkpt>
      <trkpt lat="43.56501" lon="1.44319">
        <ele>720</ele>
        <time>2020-10-18T08:15:54Z</time>
      </trkpt>
      <trkpt lat="43.56496" lon="1.44321">
        <ele>720</ele>
        <time>2020-10-18T08:15:55Z</time>
      </trkpt>
      <trkpt lat="43.56493" lon="1.44323">
        <ele>719</ele>
        <time>2020-10-18T08:15:57Z</time>
      </trkpt>
      <trkpt lat="43.56491" lon="1.44324">
        <ele>719</ele>
        <time>2020-10-18T08:15:58Z</time>
      </trkpt>
      <trkpt lat="43.56488" lon="1.44326">
        <ele>719</ele>
        <time>2020-10-18T08:15:59Z</time>
      </trkpt>
      <trkpt lat="43.56486" lon="1.44327">
        <ele>719</ele>
        <time>2020-10-18T08:16:00Z</time>
      </trkpt>
      <trkpt lat="43.56481" lon="1.4433">
        <ele>719</ele>
        <time>2020-10-18T08:16:01Z</time>
      </trkpt>
      <trkpt lat="43.56479" lon="1.44331">
        <ele>719</ele>
        <time>2020-10-18T08:16:02Z</time>
      </trkpt>
      <trkpt lat="43.56476" lon="1.44332">
        <ele>719</ele>
        <time>2020-10-18T08:16:04Z</time>
      </trkpt>
      <trkpt lat="43.56474" lon="1.44334">
        <ele>719</ele>
        <time>2020-10-18T08:16:05Z</time>
      </trkpt>
      <trkpt lat="43.56471" lon="1.44335">
        <ele>719</ele>
        <time>2020-10-18T08:16:06Z</time>
      </trkpt>
      <trkpt lat="43.56468" lon="1.44336">
        <ele>719</ele>
        <time>2020-10-18T08:16:07Z</time>
      </trkpt>
      <trkpt lat="43.56463" lon="1.44338">
        <ele>719</ele>
        <time>2020-10-18T08:16:08Z</time>
      </trkpt>
      <trkpt lat="43.56458" lon="1.44341">
        <ele>718</ele>
        <time>2020-10-18T08:16:10Z</time>
      </trkpt>
      <trkpt lat="43.56456" lon="1.44342">
        <ele>717</ele>
        <time>2020-10-18T08:16:12Z</time>
      </trkpt>
      <trkpt lat="43.56454" lon="1.44343">
        <ele>717</ele>
        <time>2020-10-18T08:16:13Z</time>
      </trkpt>
      <trkpt lat="43.56445" lon="1.44347">
        <ele>717</ele>
        <time>2020-10-18T08:16:17Z</time>
      </trkpt>
      <trkpt lat="43.56433" lon="1.44352">
        <ele>717</ele>
        <time>2020-10-18T08:16:21Z</time>
      </trkpt>
      <trkpt lat="43.56431" lon="1.44353">
        <ele>716</ele>
        <time>2020-10-18T08:16:22Z</time>
      </trkpt>
      <trkpt lat="43.56427" lon="1.44355">
        <ele>716</ele>
        <time>2020-10-18T08:16:24Z</time>
      </trkpt>
      <trkpt lat="43.56416" lon="1.44357">
        <ele>715</ele>
        <time>2020-10-18T08:16:29Z</time>
      </trkpt>
      <trkpt lat="43.56406" lon="1.44359">
        <ele>714</ele>
        <time>2020-10-18T08:16:32Z</time>
      </trkpt>
      <trkpt lat="43.56395" lon="1.44362">
        <ele>714</ele>
        <time>2020-10-18T08:16:37Z</time>
      </trkpt>
      <trkpt lat="43.5639" lon="1.44364">
        <ele>712</ele>
        <time>2020-10-18T08:16:39Z</time>
      </trkpt>
      <trkpt lat="43.5638" lon="1.44371">
        <ele>713</ele>
        <time>2020-10-18T08:16:43Z</time>
      </trkpt>
      <trkpt lat="43.56377" lon="1.44371">
        <ele>713</ele>
        <time>2020-10-18T08:16:45Z</time>
      </trkpt>
      <trkpt lat="43.56373" lon="1.44371">
        <ele>711</ele>
        <time>2020-10-18T08:16:47Z</time>
      </trkpt>
      <trkpt lat="43.56371" lon="1.44374">
        <ele>712</ele>
        <time>2020-10-18T08:16:49Z</time>
      </trkpt>
      <trkpt lat="43.56368" lon="1.44378">
        <ele>712</ele>
        <time>2020-10-18T08:16:50Z</time>
      </trkpt>
      <trkpt lat="43.56365" lon="1.44385">
        <ele>712</ele>
        <time>2020-10-18T08:16:52Z</time>
      </trkpt>
      <trkpt lat="43.56364" lon="1.44388">
        <ele>712</ele>
        <time>2020-10-18T08:16:54Z</time>
      </trkpt>
      <trkpt lat="43.56361" lon="1.44393">
        <ele>712</ele>
        <time>2020-10-18T08:16:55Z</time>
      </trkpt>
      <trkpt lat="43.5636" lon="1.44395">
        <ele>712</ele>
        <time>2020-10-18T08:16:57Z</time>
      </trkpt>
      <trkpt lat="43.56351" lon="1.44387">
        <ele>712</ele>
        <time>2020-10-18T08:17:03Z</time>
      </trkpt>
      <trkpt lat="43.56343" lon="1.44378">
        <ele>712</ele>
        <time>2020-10-18T08:17:06Z</time>
      </trkpt>
      <trkpt lat="43.56336" lon="1.44368">
        <ele>713</ele>
        <time>2020-10-18T08:17:10Z</time>
      </trkpt>
      <trkpt lat="43.56333" lon="1.44364">
        <ele>713</ele>
        <time>2020-10-18T08:17:12Z</time>
      </trkpt>
      <trkpt lat="43.56333" lon="1.44362">
        <ele>713</ele>
        <time>2020-10-18T08:17:13Z</time>
      </trkpt>
      <trkpt lat="43.56331" lon="1.44359">
        <ele>712</ele>
        <time>2020-10-18T08:17:16Z</time>
      </trkpt>
      <trkpt lat="43.56329" lon="1.44358">
        <ele>712</ele>
        <time>2020-10-18T08:17:17Z</time>
      </trkpt>
      <trkpt lat="43.56326" lon="1.44359">
        <ele>713</ele>
        <time>2020-10-18T08:17:19Z</time>
      </trkpt>
      <trkpt lat="43.56324" lon="1.44362">
        <ele>714</ele>
        <time>2020-10-18T08:17:21Z</time>
      </trkpt>
      <trkpt lat="43.56321" lon="1.44367">
        <ele>715</ele>
        <time>2020-10-18T08:17:24Z</time>
      </trkpt>
      <trkpt lat="43.56316" lon="1.44379">
        <ele>716</ele>
        <time>2020-10-18T08:17:29Z</time>
      </trkpt>
      <trkpt lat="43.56309" lon="1.44391">
        <ele>718</ele>
        <time>2020-10-18T08:17:33Z</time>
      </trkpt>
      <trkpt lat="43.56307" lon="1.44395">
        <ele>719</ele>
        <time>2020-10-18T08:17:36Z</time>
      </trkpt>
      <trkpt lat="43.56306" lon="1.44397">
        <ele>719</ele>
        <time>2020-10-18T08:17:37Z</time>
      </trkpt>
      <trkpt lat="43.56304" lon="1.44401">
        <ele>719</ele>
        <time>2020-10-18T08:17:38Z</time>
      </trkpt>
      <trkpt lat="43.56303" lon="1.44404">
        <ele>720</ele>
        <time>2020-10-18T08:17:39Z</time>
      </trkpt>
      <trkpt lat="43.56301" lon="1.44406">
        <ele>720</ele>
        <time>2020-10-18T08:17:40Z</time>
      </trkpt>
      <trkpt lat="43.56299" lon="1.44409">
        <ele>722</ele>
        <time>2020-10-18T08:17:43Z</time>
      </trkpt>
      <trkpt lat="43.56296" lon="1.44415">
        <ele>722</ele>
        <time>2020-10-18T08:17:45Z</time>
      </trkpt>
      <trkpt lat="43.56294" lon="1.44419">
        <ele>723</ele>
        <time>2020-10-18T08:17:47Z</time>
      </trkpt>
      <trkpt lat="43.56292" lon="1.44421">
        <ele>724</ele>
        <time>2020-10-18T08:17:48Z</time>
      </trkpt>
      <trkpt lat="43.5629" lon="1.44423">
        <ele>724</ele>
        <time>2020-10-18T08:17:50Z</time>
      </trkpt>
      <trkpt lat="43.56289" lon="1.44425">
        <ele>724</ele>
        <time>2020-10-18T08:17:51Z</time>
      </trkpt>
      <trkpt lat="43.56287" lon="1.44428">
        <ele>725</ele>
        <time>2020-10-18T08:17:52Z</time>
      </trkpt>
      <trkpt lat="43.56285" lon="1.44429">
        <ele>725</ele>
        <time>2020-10-18T08:17:53Z</time>
      </trkpt>
      <trkpt lat="43.56282" lon="1.44432">
        <ele>725</ele>
        <time>2020-10-18T08:17:54Z</time>
      </trkpt>
      <trkpt lat="43.56281" lon="1.44434">
        <ele>725</ele>
        <time>2020-10-18T08:17:55Z</time>
      </trkpt>
      <trkpt lat="43.56278" lon="1.44438">
        <ele>725</ele>
        <time>2020-10-18T08:17:57Z</time>
      </trkpt>
      <trkpt lat="43.56276" lon="1.4444">
        <ele>726</ele>
        <time>2020-10-18T08:17:58Z</time>
      </trkpt>
      <trkpt lat="43.56274" lon="1.44442">
        <ele>727</ele>
        <time>2020-10-18T08:17:59Z</time>
      </trkpt>
      <trkpt lat="43.56271" lon="1.44446">
        <ele>728</ele>
        <time>2020-10-18T08:18:01Z</time>
      </trkpt>
      <trkpt lat="43.5627" lon="1.44447">
        <ele>728</ele>
        <time>2020-10-18T08:18:02Z</time>
      </trkpt>
      <trkpt lat="43.56268" lon="1.44449">
        <ele>728</ele>
        <time>2020-10-18T08:18:03Z</time>
      </trkpt>
      <trkpt lat="43.56266" lon="1.44451">
        <ele>729</ele>
        <time>2020-10-18T08:18:04Z</time>
      </trkpt>
      <trkpt lat="43.56264" lon="1.44454">
        <ele>729</ele>
        <time>2020-10-18T08:18:06Z</time>
      </trkpt>
      <trkpt lat="43.56262" lon="1.44457">
        <ele>731</ele>
        <time>2020-10-18T08:18:09Z</time>
      </trkpt>
      <trkpt lat="43.56259" lon="1.44459">
        <ele>731</ele>
        <time>2020-10-18T08:18:11Z</time>
      </trkpt>
      <trkpt lat="43.56257" lon="1.44462">
        <ele>731</ele>
        <time>2020-10-18T08:18:13Z</time>
      </trkpt>
      <trkpt lat="43.56254" lon="1.44464">
        <ele>732</ele>
        <time>2020-10-18T08:18:14Z</time>
      </trkpt>
      <trkpt lat="43.56252" lon="1.44466">
        <ele>732</ele>
        <time>2020-10-18T08:18:16Z</time>
      </trkpt>
      <trkpt lat="43.56251" lon="1.44468">
        <ele>733</ele>
        <time>2020-10-18T08:18:19Z</time>
      </trkpt>
      <trkpt lat="43.56248" lon="1.44471">
        <ele>733</ele>
        <time>2020-10-18T08:18:20Z</time>
      </trkpt>
      <trkpt lat="43.56246" lon="1.44473">
        <ele>733</ele>
        <time>2020-10-18T08:18:23Z</time>
      </trkpt>
      <trkpt lat="43.56245" lon="1.44475">
        <ele>733</ele>
        <time>2020-10-18T08:18:25Z</time>
      </trkpt>
      <trkpt lat="43.56243" lon="1.44477">
        <ele>733</ele>
        <time>2020-10-18T08:18:26Z</time>
      </trkpt>
      <trkpt lat="43.56241" lon="1.4448">
        <ele>734</ele>
        <time>2020-10-18T08:18:28Z</time>
      </trkpt>
      <trkpt lat="43.5624" lon="1.44482">
        <ele>734</ele>
        <time>2020-10-18T08:18:31Z</time>
      </trkpt>
      <trkpt lat="43.56238" lon="1.44484">
        <ele>734</ele>
        <time>2020-10-18T08:18:33Z</time>
      </trkpt>
      <trkpt lat="43.56236" lon="1.44487">
        <ele>734</ele>
        <time>2020-10-18T08:18:35Z</time>
      </trkpt>
      <trkpt lat="43.56234" lon="1.44489">
        <ele>735</ele>
        <time>2020-10-18T08:18:37Z</time>
      </trkpt>
      <trkpt lat="43.56232" lon="1.44492">
        <ele>735</ele>
        <time>2020-10-18T08:18:38Z</time>
      </trkpt>
      <trkpt lat="43.5623" lon="1.44494">
        <ele>736</ele>
        <time>2020-10-18T08:18:41Z</time>
      </trkpt>
      <trkpt lat="43.56228" lon="1.44497">
        <ele>736</ele>
        <time>2020-10-18T08:18:43Z</time>
      </trkpt>
      <trkpt lat="43.56226" lon="1.44499">
        <ele>736</ele>
        <time>2020-10-18T08:18:44Z</time>
      </trkpt>
      <trkpt lat="43.56224" lon="1.44502">
        <ele>736</ele>
        <time>2020-10-18T08:18:46Z</time>
      </trkpt>
      <trkpt lat="43.56222" lon="1.44505">
        <ele>736</ele>
        <time>2020-10-18T08:18:49Z</time>
      </trkpt>
      <trkpt lat="43.56219" lon="1.44507">
        <ele>736</ele>
        <time>2020-10-18T08:18:51Z</time>
      </trkpt>
      <trkpt lat="43.56217" lon="1.4451">
        <ele>737</ele>
        <time>2020-10-18T08:18:53Z</time>
      </trkpt>
      <trkpt lat="43.56215" lon="1.44513">
        <ele>738</ele>
        <time>2020-10-18T08:18:55Z</time>
      </trkpt>
      <trkpt lat="43.56213" lon="1.44516">
        <ele>738</ele>
        <time>2020-10-18T08:18:57Z</time>
      </trkpt>
      <trkpt lat="43.56211" lon="1.44518">
        <ele>738</ele>
        <time>2020-10-18T08:18:58Z</time>
      </trkpt>
      <trkpt lat="43.56209" lon="1.44521">
        <ele>739</ele>
        <time>2020-10-18T08:19:01Z</time>
      </trkpt>
      <trkpt lat="43.56207" lon="1.44523">
        <ele>739</ele>
        <time>2020-10-18T08:19:03Z</time>
      </trkpt>
      <trkpt lat="43.56205" lon="1.44526">
        <ele>739</ele>
        <time>2020-10-18T08:19:05Z</time>
      </trkpt>
      <trkpt lat="43.56204" lon="1.44528">
        <ele>739</ele>
        <time>2020-10-18T08:19:07Z</time>
      </trkpt>
      <trkpt lat="43.56202" lon="1.4453">
        <ele>739</ele>
        <time>2020-10-18T08:19:08Z</time>
      </trkpt>
      <trkpt lat="43.562" lon="1.44533">
        <ele>740</ele>
        <time>2020-10-18T08:19:11Z</time>
      </trkpt>
      <trkpt lat="43.56198" lon="1.44535">
        <ele>740</ele>
        <time>2020-10-18T08:19:12Z</time>
      </trkpt>
      <trkpt lat="43.56197" lon="1.44537">
        <ele>741</ele>
        <time>2020-10-18T08:19:15Z</time>
      </trkpt>
      <trkpt lat="43.56195" lon="1.4454">
        <ele>741</ele>
        <time>2020-10-18T08:19:17Z</time>
      </trkpt>
      <trkpt lat="43.56193" lon="1.44542">
        <ele>741</ele>
        <time>2020-10-18T08:19:18Z</time>
      </trkpt>
      <trkpt lat="43.5619" lon="1.44543">
        <ele>741</ele>
        <time>2020-10-18T08:19:21Z</time>
      </trkpt>
      <trkpt lat="43.56188" lon="1.4454">
        <ele>741</ele>
        <time>2020-10-18T08:19:23Z</time>
      </trkpt>
      <trkpt lat="43.56187" lon="1.44537">
        <ele>742</ele>
        <time>2020-10-18T08:19:24Z</time>
      </trkpt>
      <trkpt lat="43.56186" lon="1.44533">
        <ele>742</ele>
        <time>2020-10-18T08:19:27Z</time>
      </trkpt>
      <trkpt lat="43.56186" lon="1.4453">
        <ele>742</ele>
        <time>2020-10-18T08:19:28Z</time>
      </trkpt>
      <trkpt lat="43.56187" lon="1.44526">
        <ele>742</ele>
        <time>2020-10-18T08:19:29Z</time>
      </trkpt>
      <trkpt lat="43.56188" lon="1.44519">
        <ele>742</ele>
        <time>2020-10-18T08:19:30Z</time>
      </trkpt>
      <trkpt lat="43.56191" lon="1.44512">
        <ele>741</ele>
        <time>2020-10-18T08:19:32Z</time>
      </trkpt>
      <trkpt lat="43.56191" lon="1.44498">
        <ele>739</ele>
        <time>2020-10-18T08:19:37Z</time>
      </trkpt>
      <trkpt lat="43.5619" lon="1.44495">
        <ele>739</ele>
        <time>2020-10-18T08:19:39Z</time>
      </trkpt>
      <trkpt lat="43.56183" lon="1.44486">
        <ele>738</ele>
        <time>2020-10-18T08:19:43Z</time>
      </trkpt>
      <trkpt lat="43.56176" lon="1.44474">
        <ele>738</ele>
        <time>2020-10-18T08:19:46Z</time>
      </trkpt>
      <trkpt lat="43.5617" lon="1.44465">
        <ele>738</ele>
        <time>2020-10-18T08:19:51Z</time>
      </trkpt>
      <trkpt lat="43.56163" lon="1.44455">
        <ele>737</ele>
        <time>2020-10-18T08:19:54Z</time>
      </trkpt>
      <trkpt lat="43.56156" lon="1.44444">
        <ele>737</ele>
        <time>2020-10-18T08:19:59Z</time>
      </trkpt>
      <trkpt lat="43.5615" lon="1.44434">
        <ele>737</ele>
        <time>2020-10-18T08:20:03Z</time>
      </trkpt>
      <trkpt lat="43.56145" lon="1.44424">
        <ele>737</ele>
        <time>2020-10-18T08:20:07Z</time>
      </trkpt>
      <trkpt lat="43.56139" lon="1.44414">
        <ele>738</ele>
        <time>2020-10-18T08:20:11Z</time>
      </trkpt>
      <trkpt lat="43.56133" lon="1.44404">
        <ele>738</ele>
        <time>2020-10-18T08:20:14Z</time>
      </trkpt>
      <trkpt lat="43.56128" lon="1.44395">
        <ele>738</ele>
        <time>2020-10-18T08:20:18Z</time>
      </trkpt>
      <trkpt lat="43.56126" lon="1.44392">
        <ele>738</ele>
        <time>2020-10-18T08:20:19Z</time>
      </trkpt>
      <trkpt lat="43.56124" lon="1.44387">
        <ele>738</ele>
        <time>2020-10-18T08:20:20Z</time>
      </trkpt>
      <trkpt lat="43.56122" lon="1.44385">
        <ele>738</ele>
        <time>2020-10-18T08:20:21Z</time>
      </trkpt>
      <trkpt lat="43.56121" lon="1.44382">
        <ele>738</ele>
        <time>2020-10-18T08:20:23Z</time>
      </trkpt>
      <trkpt lat="43.56119" lon="1.44379">
        <ele>738</ele>
        <time>2020-10-18T08:20:25Z</time>
      </trkpt>
      <trkpt lat="43.56116" lon="1.44377">
        <ele>740</ele>
        <time>2020-10-18T08:20:27Z</time>
      </trkpt>
      <trkpt lat="43.56114" lon="1.44374">
        <ele>741</ele>
        <time>2020-10-18T08:20:29Z</time>
      </trkpt>
      <trkpt lat="43.56113" lon="1.44372">
        <ele>742</ele>
        <time>2020-10-18T08:20:31Z</time>
      </trkpt>
      <trkpt lat="43.56112" lon="1.44368">
        <ele>742</ele>
        <time>2020-10-18T08:20:32Z</time>
      </trkpt>
      <trkpt lat="43.56112" lon="1.44365">
        <ele>742</ele>
        <time>2020-10-18T08:20:34Z</time>
      </trkpt>
      <trkpt lat="43.5611" lon="1.44362">
        <ele>743</ele>
        <time>2020-10-18T08:20:35Z</time>
      </trkpt>
      <trkpt lat="43.56107" lon="1.4436">
        <ele>744</ele>
        <time>2020-10-18T08:20:37Z</time>
      </trkpt>
      <trkpt lat="43.56104" lon="1.44359">
        <ele>746</ele>
        <time>2020-10-18T08:20:40Z</time>
      </trkpt>
      <trkpt lat="43.56102" lon="1.44357">
        <ele>746</ele>
        <time>2020-10-18T08:20:42Z</time>
      </trkpt>
      <trkpt lat="43.56099" lon="1.44356">
        <ele>746</ele>
        <time>2020-10-18T08:20:44Z</time>
      </trkpt>
      <trkpt lat="43.56097" lon="1.44356">
        <ele>748</ele>
        <time>2020-10-18T08:20:46Z</time>
      </trkpt>
      <trkpt lat="43.56095" lon="1.44357">
        <ele>749</ele>
        <time>2020-10-18T08:20:47Z</time>
      </trkpt>
      <trkpt lat="43.56092" lon="1.44357">
        <ele>749</ele>
        <time>2020-10-18T08:20:50Z</time>
      </trkpt>
      <trkpt lat="43.5609" lon="1.44356">
        <ele>750</ele>
        <time>2020-10-18T08:20:52Z</time>
      </trkpt>
      <trkpt lat="43.56088" lon="1.44355">
        <ele>751</ele>
        <time>2020-10-18T08:20:54Z</time>
      </trkpt>
      <trkpt lat="43.56086" lon="1.44353">
        <ele>751</ele>
        <time>2020-10-18T08:20:56Z</time>
      </trkpt>
      <trkpt lat="43.56085" lon="1.44351">
        <ele>751</ele>
        <time>2020-10-18T08:20:58Z</time>
      </trkpt>
      <trkpt lat="43.56082" lon="1.44349">
        <ele>752</ele>
        <time>2020-10-18T08:20:59Z</time>
      </trkpt>
      <trkpt lat="43.5608" lon="1.44349">
        <ele>753</ele>
        <time>2020-10-18T08:21:02Z</time>
      </trkpt>
      <trkpt lat="43.56078" lon="1.4435">
        <ele>753</ele>
        <time>2020-10-18T08:21:04Z</time>
      </trkpt>
      <trkpt lat="43.56076" lon="1.44351">
        <ele>754</ele>
        <time>2020-10-18T08:21:06Z</time>
      </trkpt>
      <trkpt lat="43.56074" lon="1.44352">
        <ele>754</ele>
        <time>2020-10-18T08:21:08Z</time>
      </trkpt>
      <trkpt lat="43.56073" lon="1.44355">
        <ele>754</ele>
        <time>2020-10-18T08:21:10Z</time>
      </trkpt>
      <trkpt lat="43.56071" lon="1.44358">
        <ele>754</ele>
        <time>2020-10-18T08:21:11Z</time>
      </trkpt>
      <trkpt lat="43.5607" lon="1.44365">
        <ele>754</ele>
        <time>2020-10-18T08:21:14Z</time>
      </trkpt>
      <trkpt lat="43.56069" lon="1.44368">
        <ele>754</ele>
        <time>2020-10-18T08:21:16Z</time>
      </trkpt>
      <trkpt lat="43.56068" lon="1.44372">
        <ele>754</ele>
        <time>2020-10-18T08:21:17Z</time>
      </trkpt>
      <trkpt lat="43.56066" lon="1.44379">
        <ele>754</ele>
        <time>2020-10-18T08:21:18Z</time>
      </trkpt>
      <trkpt lat="43.56065" lon="1.44381">
        <ele>754</ele>
        <time>2020-10-18T08:21:19Z</time>
      </trkpt>
      <trkpt lat="43.56062" lon="1.44387">
        <ele>754</ele>
        <time>2020-10-18T08:21:21Z</time>
      </trkpt>
      <trkpt lat="43.56061" lon="1.4439">
        <ele>754</ele>
        <time>2020-10-18T08:21:23Z</time>
      </trkpt>
      <trkpt lat="43.56061" lon="1.44393">
        <ele>754</ele>
        <time>2020-10-18T08:21:24Z</time>
      </trkpt>
      <trkpt lat="43.5606" lon="1.44397">
        <ele>754</ele>
        <time>2020-10-18T08:21:25Z</time>
      </trkpt>
      <trkpt lat="43.56057" lon="1.44404">
        <ele>754</ele>
        <time>2020-10-18T08:21:26Z</time>
      </trkpt>
      <trkpt lat="43.56056" lon="1.44408">
        <ele>754</ele>
        <time>2020-10-18T08:21:27Z</time>
      </trkpt>
      <trkpt lat="43.56054" lon="1.44411">
        <ele>754</ele>
        <time>2020-10-18T08:21:29Z</time>
      </trkpt>
      <trkpt lat="43.56049" lon="1.44415">
        <ele>754</ele>
        <time>2020-10-18T08:21:30Z</time>
      </trkpt>
      <trkpt lat="43.56047" lon="1.44417">
        <ele>754</ele>
        <time>2020-10-18T08:21:31Z</time>
      </trkpt>
      <trkpt lat="43.56045" lon="1.4442">
        <ele>754</ele>
        <time>2020-10-18T08:21:33Z</time>
      </trkpt>
      <trkpt lat="43.56043" lon="1.44422">
        <ele>755</ele>
        <time>2020-10-18T08:21:34Z</time>
      </trkpt>
      <trkpt lat="43.56041" lon="1.44424">
        <ele>755</ele>
        <time>2020-10-18T08:21:35Z</time>
      </trkpt>
      <trkpt lat="43.56039" lon="1.44427">
        <ele>755</ele>
        <time>2020-10-18T08:21:36Z</time>
      </trkpt>
      <trkpt lat="43.56035" lon="1.44431">
        <ele>755</ele>
        <time>2020-10-18T08:21:37Z</time>
      </trkpt>
      <trkpt lat="43.56033" lon="1.44433">
        <ele>755</ele>
        <time>2020-10-18T08:21:38Z</time>
      </trkpt>
      <trkpt lat="43.5603" lon="1.44438">
        <ele>756</ele>
        <time>2020-10-18T08:21:40Z</time>
      </trkpt>
      <trkpt lat="43.56028" lon="1.44439">
        <ele>756</ele>
        <time>2020-10-18T08:21:42Z</time>
      </trkpt>
      <trkpt lat="43.56025" lon="1.44443">
        <ele>757</ele>
        <time>2020-10-18T08:21:43Z</time>
      </trkpt>
      <trkpt lat="43.56024" lon="1.44445">
        <ele>758</ele>
        <time>2020-10-18T08:21:45Z</time>
      </trkpt>
      <trkpt lat="43.56022" lon="1.44447">
        <ele>758</ele>
        <time>2020-10-18T08:21:46Z</time>
      </trkpt>
      <trkpt lat="43.5602" lon="1.44449">
        <ele>759</ele>
        <time>2020-10-18T08:21:47Z</time>
      </trkpt>
      <trkpt lat="43.56019" lon="1.44451">
        <ele>759</ele>
        <time>2020-10-18T08:21:48Z</time>
      </trkpt>
      <trkpt lat="43.56017" lon="1.44453">
        <ele>759</ele>
        <time>2020-10-18T08:21:49Z</time>
      </trkpt>
      <trkpt lat="43.56014" lon="1.44455">
        <ele>760</ele>
        <time>2020-10-18T08:21:52Z</time>
      </trkpt>
      <trkpt lat="43.56012" lon="1.44457">
        <ele>760</ele>
        <time>2020-10-18T08:21:54Z</time>
      </trkpt>
      <trkpt lat="43.5601" lon="1.44459">
        <ele>760</ele>
        <time>2020-10-18T08:21:56Z</time>
      </trkpt>
      <trkpt lat="43.56008" lon="1.44461">
        <ele>760</ele>
        <time>2020-10-18T08:21:57Z</time>
      </trkpt>
      <trkpt lat="43.56006" lon="1.44464">
        <ele>760</ele>
        <time>2020-10-18T08:22:00Z</time>
      </trkpt>
      <trkpt lat="43.56004" lon="1.44466">
        <ele>761</ele>
        <time>2020-10-18T08:22:02Z</time>
      </trkpt>
      <trkpt lat="43.56002" lon="1.44468">
        <ele>762</ele>
        <time>2020-10-18T08:22:04Z</time>
      </trkpt>
      <trkpt lat="43.56" lon="1.44471">
        <ele>762</ele>
        <time>2020-10-18T08:22:06Z</time>
      </trkpt>
      <trkpt lat="43.55999" lon="1.44473">
        <ele>762</ele>
        <time>2020-10-18T08:22:08Z</time>
      </trkpt>
      <trkpt lat="43.55997" lon="1.44476">
        <ele>763</ele>
        <time>2020-10-18T08:22:09Z</time>
      </trkpt>
      <trkpt lat="43.55995" lon="1.44478">
        <ele>764</ele>
        <time>2020-10-18T08:22:12Z</time>
      </trkpt>
      <trkpt lat="43.55994" lon="1.4448">
        <ele>764</ele>
        <time>2020-10-18T08:22:13Z</time>
      </trkpt>
      <trkpt lat="43.55992" lon="1.44483">
        <ele>765</ele>
        <time>2020-10-18T08:22:15Z</time>
      </trkpt>
      <trkpt lat="43.5599" lon="1.44486">
        <ele>765</ele>
        <time>2020-10-18T08:22:18Z</time>
      </trkpt>
      <trkpt lat="43.55988" lon="1.44488">
        <ele>765</ele>
        <time>2020-10-18T08:22:20Z</time>
      </trkpt>
      <trkpt lat="43.55986" lon="1.44492">
        <ele>765</ele>
        <time>2020-10-18T08:22:22Z</time>
      </trkpt>
      <trkpt lat="43.55985" lon="1.44494">
        <ele>766</ele>
        <time>2020-10-18T08:22:24Z</time>
      </trkpt>
      <trkpt lat="43.55983" lon="1.44496">
        <ele>766</ele>
        <time>2020-10-18T08:22:25Z</time>
      </trkpt>
      <trkpt lat="43.55981" lon="1.44499">
        <ele>767</ele>
        <time>2020-10-18T08:22:27Z</time>
      </trkpt>
      <trkpt lat="43.55979" lon="1.44501">
        <ele>767</ele>
        <time>2020-10-18T08:22:30Z</time>
      </trkpt>
      <trkpt lat="43.55978" lon="1.44503">
        <ele>767</ele>
        <time>2020-10-18T08:22:32Z</time>
      </trkpt>
      <trkpt lat="43.55976" lon="1.44505">
        <ele>768</ele>
        <time>2020-10-18T08:22:34Z</time>
      </trkpt>
      <trkpt lat="43.55974" lon="1.44507">
        <ele>768</ele>
        <time>2020-10-18T08:22:35Z</time>
      </trkpt>
      <trkpt lat="43.55972" lon="1.44508">
        <ele>769</ele>
        <time>2020-10-18T08:22:37Z</time>
      </trkpt>
      <trkpt lat="43.5597" lon="1.44511">
        <ele>769</ele>
        <time>2020-10-18T08:22:40Z</time>
      </trkpt>
      <trkpt lat="43.55968" lon="1.44513">
        <ele>769</ele>
        <time>2020-10-18T08:22:42Z</time>
      </trkpt>
      <trkpt lat="43.55966" lon="1.44516">
        <ele>769</ele>
        <time>2020-10-18T08:22:44Z</time>
      </trkpt>
      <trkpt lat="43.55964" lon="1.44518">
        <ele>769</ele>
        <time>2020-10-18T08:22:45Z</time>
      </trkpt>
      <trkpt lat="43.55962" lon="1.4452">
        <ele>770</ele>
        <time>2020-10-18T08:22:48Z</time>
      </trkpt>
      <trkpt lat="43.5596" lon="1.44522">
        <ele>770</ele>
        <time>2020-10-18T08:22:50Z</time>
      </trkpt>
      <trkpt lat="43.55957" lon="1.44524">
        <ele>771</ele>
        <time>2020-10-18T08:22:52Z</time>
      </trkpt>
      <trkpt lat="43.55955" lon="1.44526">
        <ele>771</ele>
        <time>2020-10-18T08:22:53Z</time>
      </trkpt>
      <trkpt lat="43.55954" lon="1.44528">
        <ele>771</ele>
        <time>2020-10-18T08:22:55Z</time>
      </trkpt>
      <trkpt lat="43.55951" lon="1.4453">
        <ele>771</ele>
        <time>2020-10-18T08:22:58Z</time>
      </trkpt>
      <trkpt lat="43.55949" lon="1.44532">
        <ele>772</ele>
        <time>2020-10-18T08:23:00Z</time>
      </trkpt>
      <trkpt lat="43.55947" lon="1.44535">
        <ele>772</ele>
        <time>2020-10-18T08:23:02Z</time>
      </trkpt>
      <trkpt lat="43.55945" lon="1.44536">
        <ele>773</ele>
        <time>2020-10-18T08:23:04Z</time>
      </trkpt>
      <trkpt lat="43.55942" lon="1.44537">
        <ele>773</ele>
        <time>2020-10-18T08:23:05Z</time>
      </trkpt>
      <trkpt lat="43.5594" lon="1.44539">
        <ele>774</ele>
        <time>2020-10-18T08:23:08Z</time>
      </trkpt>
      <trkpt lat="43.55937" lon="1.4454">
        <ele>774</ele>
        <time>2020-10-18T08:23:10Z</time>
      </trkpt>
      <trkpt lat="43.55934" lon="1.4454">
        <ele>775</ele>
        <time>2020-10-18T08:23:12Z</time>
      </trkpt>
      <trkpt lat="43.55932" lon="1.44541">
        <ele>775</ele>
        <time>2020-10-18T08:23:13Z</time>
      </trkpt>
      <trkpt lat="43.55929" lon="1.44542">
        <ele>775</ele>
        <time>2020-10-18T08:23:16Z</time>
      </trkpt>
      <trkpt lat="43.55926" lon="1.44543">
        <ele>775</ele>
        <time>2020-10-18T08:23:18Z</time>
      </trkpt>
      <trkpt lat="43.55924" lon="1.44544">
        <ele>776</ele>
        <time>2020-10-18T08:23:20Z</time>
      </trkpt>
      <trkpt lat="43.55921" lon="1.44544">
        <ele>776</ele>
        <time>2020-10-18T08:23:22Z</time>
      </trkpt>
      <trkpt lat="43.55917" lon="1.44546">
        <ele>776</ele>
        <time>2020-10-18T08:23:23Z</time>
      </trkpt>
      <trkpt lat="43.55915" lon="1.44548">
        <ele>776</ele>
        <time>2020-10-18T08:23:25Z</time>
      </trkpt>
      <trkpt lat="43.5591" lon="1.44551">
        <ele>776</ele>
        <time>2020-10-18T08:23:26Z</time>
      </trkpt>
      <trkpt lat="43.55906" lon="1.44554">
        <ele>776</ele>
        <time>2020-10-18T08:23:28Z</time>
      </trkpt>
      <trkpt lat="43.55904" lon="1.44556">
        <ele>776</ele>
        <time>2020-10-18T08:23:29Z</time>
      </trkpt>
      <trkpt lat="43.55902" lon="1.44558">
        <ele>776</ele>
        <time>2020-10-18T08:23:30Z</time>
      </trkpt>
      <trkpt lat="43.55899" lon="1.4456">
        <ele>776</ele>
        <time>2020-10-18T08:23:31Z</time>
      </trkpt>
      <trkpt lat="43.55897" lon="1.44562">
        <ele>776</ele>
        <time>2020-10-18T08:23:32Z</time>
      </trkpt>
      <trkpt lat="43.55895" lon="1.44564">
        <ele>776</ele>
        <time>2020-10-18T08:23:34Z</time>
      </trkpt>
      <trkpt lat="43.55892" lon="1.44565">
        <ele>776</ele>
        <time>2020-10-18T08:23:35Z</time>
      </trkpt>
      <trkpt lat="43.5589" lon="1.44567">
        <ele>776</ele>
        <time>2020-10-18T08:23:36Z</time>
      </trkpt>
      <trkpt lat="43.55886" lon="1.44571">
        <ele>776</ele>
        <time>2020-10-18T08:23:37Z</time>
      </trkpt>
      <trkpt lat="43.55882" lon="1.44576">
        <ele>775</ele>
        <time>2020-10-18T08:23:39Z</time>
      </trkpt>
      <trkpt lat="43.55879" lon="1.44577">
        <ele>775</ele>
        <time>2020-10-18T08:23:41Z</time>
      </trkpt>
      <trkpt lat="43.55877" lon="1.44578">
        <ele>776</ele>
        <time>2020-10-18T08:23:42Z</time>
      </trkpt>
      <trkpt lat="43.55872" lon="1.4458">
        <ele>776</ele>
        <time>2020-10-18T08:23:43Z</time>
      </trkpt>
      <trkpt lat="43.5587" lon="1.44581">
        <ele>776</ele>
        <time>2020-10-18T08:23:44Z</time>
      </trkpt>
      <trkpt lat="43.55865" lon="1.44583">
        <ele>776</ele>
        <time>2020-10-18T08:23:46Z</time>
      </trkpt>
      <trkpt lat="43.55863" lon="1.44584">
        <ele>776</ele>
        <time>2020-10-18T08:23:48Z</time>
      </trkpt>
      <trkpt lat="43.5586" lon="1.44585">
        <ele>776</ele>
        <time>2020-10-18T08:23:49Z</time>
      </trkpt>
      <trkpt lat="43.55855" lon="1.44587">
        <ele>776</ele>
        <time>2020-10-18T08:23:50Z</time>
      </trkpt>
      <trkpt lat="43.55853" lon="1.44587">
        <ele>776</ele>
        <time>2020-10-18T08:23:51Z</time>
      </trkpt>
      <trkpt lat="43.5585" lon="1.44587">
        <ele>775</ele>
        <time>2020-10-18T08:23:52Z</time>
      </trkpt>
      <trkpt lat="43.55848" lon="1.44588">
        <ele>775</ele>
        <time>2020-10-18T08:23:54Z</time>
      </trkpt>
      <trkpt lat="43.55845" lon="1.44588">
        <ele>775</ele>
        <time>2020-10-18T08:23:55Z</time>
      </trkpt>
      <trkpt lat="43.55843" lon="1.44589">
        <ele>775</ele>
        <time>2020-10-18T08:23:56Z</time>
      </trkpt>
      <trkpt lat="43.5584" lon="1.4459">
        <ele>775</ele>
        <time>2020-10-18T08:23:57Z</time>
      </trkpt>
      <trkpt lat="43.55837" lon="1.4459">
        <ele>776</ele>
        <time>2020-10-18T08:23:58Z</time>
      </trkpt>
      <trkpt lat="43.55835" lon="1.44591">
        <ele>776</ele>
        <time>2020-10-18T08:23:59Z</time>
      </trkpt>
      <trkpt lat="43.55833" lon="1.44591">
        <ele>776</ele>
        <time>2020-10-18T08:24:00Z</time>
      </trkpt>
      <trkpt lat="43.55827" lon="1.44592">
        <ele>775</ele>
        <time>2020-10-18T08:24:01Z</time>
      </trkpt>
      <trkpt lat="43.55825" lon="1.44592">
        <ele>775</ele>
        <time>2020-10-18T08:24:03Z</time>
      </trkpt>
      <trkpt lat="43.55822" lon="1.44591">
        <ele>775</ele>
        <time>2020-10-18T08:24:04Z</time>
      </trkpt>
      <trkpt lat="43.55819" lon="1.44591">
        <ele>775</ele>
        <time>2020-10-18T08:24:05Z</time>
      </trkpt>
      <trkpt lat="43.55816" lon="1.44591">
        <ele>775</ele>
        <time>2020-10-18T08:24:06Z</time>
      </trkpt>
      <trkpt lat="43.55811" lon="1.44588">
        <ele>775</ele>
        <time>2020-10-18T08:24:07Z</time>
      </trkpt>
      <trkpt lat="43.55808" lon="1.44587">
        <ele>775</ele>
        <time>2020-10-18T08:24:09Z</time>
      </trkpt>
      <trkpt lat="43.55805" lon="1.44585">
        <ele>774</ele>
        <time>2020-10-18T08:24:10Z</time>
      </trkpt>
      <trkpt lat="43.55803" lon="1.44584">
        <ele>774</ele>
        <time>2020-10-18T08:24:11Z</time>
      </trkpt>
      <trkpt lat="43.558" lon="1.44583">
        <ele>774</ele>
        <time>2020-10-18T08:24:12Z</time>
      </trkpt>
      <trkpt lat="43.55797" lon="1.44581">
        <ele>774</ele>
        <time>2020-10-18T08:24:13Z</time>
      </trkpt>
      <trkpt lat="43.55794" lon="1.4458">
        <ele>774</ele>
        <time>2020-10-18T08:24:14Z</time>
      </trkpt>
      <trkpt lat="43.55792" lon="1.44579">
        <ele>774</ele>
        <time>2020-10-18T08:24:15Z</time>
      </trkpt>
      <trkpt lat="43.55789" lon="1.44579">
        <ele>774</ele>
        <time>2020-10-18T08:24:16Z</time>
      </trkpt>
      <trkpt lat="43.55786" lon="1.44577">
        <ele>774</ele>
        <time>2020-10-18T08:24:17Z</time>
      </trkpt>
      <trkpt lat="43.55781" lon="1.44576">
        <ele>773</ele>
        <time>2020-10-18T08:24:18Z</time>
      </trkpt>
      <trkpt lat="43.55779" lon="1.44575">
        <ele>773</ele>
        <time>2020-10-18T08:24:19Z</time>
      </trkpt>
      <trkpt lat="43.55776" lon="1.44574">
        <ele>773</ele>
        <time>2020-10-18T08:24:20Z</time>
      </trkpt>
      <trkpt lat="43.55774" lon="1.44573">
        <ele>773</ele>
        <time>2020-10-18T08:24:21Z</time>
      </trkpt>
      <trkpt lat="43.55771" lon="1.44572">
        <ele>772</ele>
        <time>2020-10-18T08:24:23Z</time>
      </trkpt>
      <trkpt lat="43.55768" lon="1.44571">
        <ele>772</ele>
        <time>2020-10-18T08:24:24Z</time>
      </trkpt>
      <trkpt lat="43.55764" lon="1.44567">
        <ele>771</ele>
        <time>2020-10-18T08:24:25Z</time>
      </trkpt>
      <trkpt lat="43.55762" lon="1.44566">
        <ele>771</ele>
        <time>2020-10-18T08:24:26Z</time>
      </trkpt>
      <trkpt lat="43.55759" lon="1.44565">
        <ele>770</ele>
        <time>2020-10-18T08:24:27Z</time>
      </trkpt>
      <trkpt lat="43.55756" lon="1.44564">
        <ele>769</ele>
        <time>2020-10-18T08:24:28Z</time>
      </trkpt>
      <trkpt lat="43.55753" lon="1.44564">
        <ele>769</ele>
        <time>2020-10-18T08:24:30Z</time>
      </trkpt>
      <trkpt lat="43.55747" lon="1.44563">
        <ele>769</ele>
        <time>2020-10-18T08:24:31Z</time>
      </trkpt>
      <trkpt lat="43.55744" lon="1.44562">
        <ele>768</ele>
        <time>2020-10-18T08:24:33Z</time>
      </trkpt>
      <trkpt lat="43.55741" lon="1.4456">
        <ele>767</ele>
        <time>2020-10-18T08:24:34Z</time>
      </trkpt>
      <trkpt lat="43.55736" lon="1.44557">
        <ele>767</ele>
        <time>2020-10-18T08:24:35Z</time>
      </trkpt>
      <trkpt lat="43.55734" lon="1.44554">
        <ele>766</ele>
        <time>2020-10-18T08:24:36Z</time>
      </trkpt>
      <trkpt lat="43.55732" lon="1.44551">
        <ele>766</ele>
        <time>2020-10-18T08:24:38Z</time>
      </trkpt>
      <trkpt lat="43.5573" lon="1.44548">
        <ele>766</ele>
        <time>2020-10-18T08:24:39Z</time>
      </trkpt>
      <trkpt lat="43.55729" lon="1.44545">
        <ele>765</ele>
        <time>2020-10-18T08:24:40Z</time>
      </trkpt>
      <trkpt lat="43.55727" lon="1.44543">
        <ele>765</ele>
        <time>2020-10-18T08:24:41Z</time>
      </trkpt>
      <trkpt lat="43.55725" lon="1.44541">
        <ele>765</ele>
        <time>2020-10-18T08:24:42Z</time>
      </trkpt>
      <trkpt lat="43.5572" lon="1.44536">
        <ele>765</ele>
        <time>2020-10-18T08:24:43Z</time>
      </trkpt>
      <trkpt lat="43.55718" lon="1.44535">
        <ele>764</ele>
        <time>2020-10-18T08:24:45Z</time>
      </trkpt>
      <trkpt lat="43.55715" lon="1.44532">
        <ele>764</ele>
        <time>2020-10-18T08:24:46Z</time>
      </trkpt>
      <trkpt lat="43.55713" lon="1.44531">
        <ele>764</ele>
        <time>2020-10-18T08:24:47Z</time>
      </trkpt>
      <trkpt lat="43.55711" lon="1.4453">
        <ele>763</ele>
        <time>2020-10-18T08:24:48Z</time>
      </trkpt>
      <trkpt lat="43.55708" lon="1.44528">
        <ele>763</ele>
        <time>2020-10-18T08:24:49Z</time>
      </trkpt>
      <trkpt lat="43.55706" lon="1.44526">
        <ele>763</ele>
        <time>2020-10-18T08:24:50Z</time>
      </trkpt>
      <trkpt lat="43.55703" lon="1.44525">
        <ele>763</ele>
        <time>2020-10-18T08:24:51Z</time>
      </trkpt>
      <trkpt lat="43.55701" lon="1.44523">
        <ele>763</ele>
        <time>2020-10-18T08:24:52Z</time>
      </trkpt>
      <trkpt lat="43.55699" lon="1.44521">
        <ele>763</ele>
        <time>2020-10-18T08:24:53Z</time>
      </trkpt>
      <trkpt lat="43.55696" lon="1.44519">
        <ele>763</ele>
        <time>2020-10-18T08:24:54Z</time>
      </trkpt>
      <trkpt lat="43.55694" lon="1.44516">
        <ele>762</ele>
        <time>2020-10-18T08:24:55Z</time>
      </trkpt>
      <trkpt lat="43.55692" lon="1.44514">
        <ele>761</ele>
        <time>2020-10-18T08:24:56Z</time>
      </trkpt>
      <trkpt lat="43.5569" lon="1.44511">
        <ele>761</ele>
        <time>2020-10-18T08:24:57Z</time>
      </trkpt>
      <trkpt lat="43.55689" lon="1.44508">
        <ele>760</ele>
        <time>2020-10-18T08:24:58Z</time>
      </trkpt>
      <trkpt lat="43.55687" lon="1.44506">
        <ele>760</ele>
        <time>2020-10-18T08:24:59Z</time>
      </trkpt>
      <trkpt lat="43.55685" lon="1.44503">
        <ele>760</ele>
        <time>2020-10-18T08:25:00Z</time>
      </trkpt>
      <trkpt lat="43.55681" lon="1.44498">
        <ele>760</ele>
        <time>2020-10-18T08:25:01Z</time>
      </trkpt>
      <trkpt lat="43.5568" lon="1.44496">
        <ele>759</ele>
        <time>2020-10-18T08:25:03Z</time>
      </trkpt>
      <trkpt lat="43.55678" lon="1.44495">
        <ele>758</ele>
        <time>2020-10-18T08:25:04Z</time>
      </trkpt>
      <trkpt lat="43.55674" lon="1.44493">
        <ele>758</ele>
        <time>2020-10-18T08:25:05Z</time>
      </trkpt>
      <trkpt lat="43.5567" lon="1.44487">
        <ele>756</ele>
        <time>2020-10-18T08:25:07Z</time>
      </trkpt>
      <trkpt lat="43.55667" lon="1.44485">
        <ele>755</ele>
        <time>2020-10-18T08:25:08Z</time>
      </trkpt>
      <trkpt lat="43.55664" lon="1.44483">
        <ele>754</ele>
        <time>2020-10-18T08:25:09Z</time>
      </trkpt>
      <trkpt lat="43.55661" lon="1.44482">
        <ele>753</ele>
        <time>2020-10-18T08:25:11Z</time>
      </trkpt>
      <trkpt lat="43.55659" lon="1.44481">
        <ele>752</ele>
        <time>2020-10-18T08:25:12Z</time>
      </trkpt>
      <trkpt lat="43.55654" lon="1.4448">
        <ele>752</ele>
        <time>2020-10-18T08:25:13Z</time>
      </trkpt>
      <trkpt lat="43.55651" lon="1.44479">
        <ele>751</ele>
        <time>2020-10-18T08:25:14Z</time>
      </trkpt>
      <trkpt lat="43.55648" lon="1.44478">
        <ele>751</ele>
        <time>2020-10-18T08:25:16Z</time>
      </trkpt>
      <trkpt lat="43.55646" lon="1.44477">
        <ele>751</ele>
        <time>2020-10-18T08:25:17Z</time>
      </trkpt>
      <trkpt lat="43.5564" lon="1.44476">
        <ele>751</ele>
        <time>2020-10-18T08:25:18Z</time>
      </trkpt>
      <trkpt lat="43.55638" lon="1.44475">
        <ele>750</ele>
        <time>2020-10-18T08:25:20Z</time>
      </trkpt>
      <trkpt lat="43.55635" lon="1.44474">
        <ele>749</ele>
        <time>2020-10-18T08:25:21Z</time>
      </trkpt>
      <trkpt lat="43.55632" lon="1.44473">
        <ele>748</ele>
        <time>2020-10-18T08:25:22Z</time>
      </trkpt>
      <trkpt lat="43.55627" lon="1.44471">
        <ele>748</ele>
        <time>2020-10-18T08:25:23Z</time>
      </trkpt>
      <trkpt lat="43.55624" lon="1.44469">
        <ele>747</ele>
        <time>2020-10-18T08:25:24Z</time>
      </trkpt>
      <trkpt lat="43.55622" lon="1.44468">
        <ele>747</ele>
        <time>2020-10-18T08:25:26Z</time>
      </trkpt>
      <trkpt lat="43.55619" lon="1.44466">
        <ele>746</ele>
        <time>2020-10-18T08:25:27Z</time>
      </trkpt>
      <trkpt lat="43.55617" lon="1.44464">
        <ele>745</ele>
        <time>2020-10-18T08:25:28Z</time>
      </trkpt>
      <trkpt lat="43.55614" lon="1.44463">
        <ele>745</ele>
        <time>2020-10-18T08:25:29Z</time>
      </trkpt>
      <trkpt lat="43.55609" lon="1.44459">
        <ele>745</ele>
        <time>2020-10-18T08:25:30Z</time>
      </trkpt>
      <trkpt lat="43.55607" lon="1.44458">
        <ele>744</ele>
        <time>2020-10-18T08:25:31Z</time>
      </trkpt>
      <trkpt lat="43.55602" lon="1.44455">
        <ele>743</ele>
        <time>2020-10-18T08:25:33Z</time>
      </trkpt>
      <trkpt lat="43.55599" lon="1.44453">
        <ele>742</ele>
        <time>2020-10-18T08:25:35Z</time>
      </trkpt>
      <trkpt lat="43.55597" lon="1.44451">
        <ele>742</ele>
        <time>2020-10-18T08:25:36Z</time>
      </trkpt>
      <trkpt lat="43.55595" lon="1.4445">
        <ele>742</ele>
        <time>2020-10-18T08:25:37Z</time>
      </trkpt>
      <trkpt lat="43.55592" lon="1.44448">
        <ele>742</ele>
        <time>2020-10-18T08:25:38Z</time>
      </trkpt>
      <trkpt lat="43.5559" lon="1.44446">
        <ele>742</ele>
        <time>2020-10-18T08:25:39Z</time>
      </trkpt>
      <trkpt lat="43.55588" lon="1.44445">
        <ele>742</ele>
        <time>2020-10-18T08:25:40Z</time>
      </trkpt>
      <trkpt lat="43.55583" lon="1.44442">
        <ele>741</ele>
        <time>2020-10-18T08:25:41Z</time>
      </trkpt>
      <trkpt lat="43.55581" lon="1.4444">
        <ele>741</ele>
        <time>2020-10-18T08:25:42Z</time>
      </trkpt>
      <trkpt lat="43.55579" lon="1.44438">
        <ele>741</ele>
        <time>2020-10-18T08:25:44Z</time>
      </trkpt>
      <trkpt lat="43.55574" lon="1.44434">
        <ele>740</ele>
        <time>2020-10-18T08:25:45Z</time>
      </trkpt>
      <trkpt lat="43.55572" lon="1.44432">
        <ele>739</ele>
        <time>2020-10-18T08:25:47Z</time>
      </trkpt>
      <trkpt lat="43.5557" lon="1.44431">
        <ele>739</ele>
        <time>2020-10-18T08:25:48Z</time>
      </trkpt>
      <trkpt lat="43.55568" lon="1.44429">
        <ele>739</ele>
        <time>2020-10-18T08:25:49Z</time>
      </trkpt>
      <trkpt lat="43.55566" lon="1.44427">
        <ele>739</ele>
        <time>2020-10-18T08:25:50Z</time>
      </trkpt>
      <trkpt lat="43.55563" lon="1.44425">
        <ele>739</ele>
        <time>2020-10-18T08:25:51Z</time>
      </trkpt>
      <trkpt lat="43.55561" lon="1.44424">
        <ele>738</ele>
        <time>2020-10-18T08:25:52Z</time>
      </trkpt>
      <trkpt lat="43.55559" lon="1.44423">
        <ele>737</ele>
        <time>2020-10-18T08:25:53Z</time>
      </trkpt>
      <trkpt lat="43.55556" lon="1.44421">
        <ele>737</ele>
        <time>2020-10-18T08:25:54Z</time>
      </trkpt>
      <trkpt lat="43.55554" lon="1.4442">
        <ele>737</ele>
        <time>2020-10-18T08:25:55Z</time>
      </trkpt>
      <trkpt lat="43.55549" lon="1.44417">
        <ele>737</ele>
        <time>2020-10-18T08:25:56Z</time>
      </trkpt>
      <trkpt lat="43.55544" lon="1.44414">
        <ele>736</ele>
        <time>2020-10-18T08:25:58Z</time>
      </trkpt>
      <trkpt lat="43.55541" lon="1.44413">
        <ele>735</ele>
        <time>2020-10-18T08:25:59Z</time>
      </trkpt>
      <trkpt lat="43.55539" lon="1.44412">
        <ele>734</ele>
        <time>2020-10-18T08:26:01Z</time>
      </trkpt>
      <trkpt lat="43.55536" lon="1.4441">
        <ele>734</ele>
        <time>2020-10-18T08:26:02Z</time>
      </trkpt>
      <trkpt lat="43.55534" lon="1.44409">
        <ele>734</ele>
        <time>2020-10-18T08:26:03Z</time>
      </trkpt>
      <trkpt lat="43.55532" lon="1.44407">
        <ele>734</ele>
        <time>2020-10-18T08:26:04Z</time>
      </trkpt>
      <trkpt lat="43.55529" lon="1.44406">
        <ele>733</ele>
        <time>2020-10-18T08:26:05Z</time>
      </trkpt>
      <trkpt lat="43.55524" lon="1.44403">
        <ele>733</ele>
        <time>2020-10-18T08:26:06Z</time>
      </trkpt>
      <trkpt lat="43.55522" lon="1.44402">
        <ele>733</ele>
        <time>2020-10-18T08:26:08Z</time>
      </trkpt>
      <trkpt lat="43.55517" lon="1.444">
        <ele>732</ele>
        <time>2020-10-18T08:26:09Z</time>
      </trkpt>
      <trkpt lat="43.55515" lon="1.44398">
        <ele>730</ele>
        <time>2020-10-18T08:26:11Z</time>
      </trkpt>
      <trkpt lat="43.55512" lon="1.44396">
        <ele>729</ele>
        <time>2020-10-18T08:26:12Z</time>
      </trkpt>
      <trkpt lat="43.5551" lon="1.44394">
        <ele>729</ele>
        <time>2020-10-18T08:26:13Z</time>
      </trkpt>
      <trkpt lat="43.55505" lon="1.44391">
        <ele>729</ele>
        <time>2020-10-18T08:26:14Z</time>
      </trkpt>
      <trkpt lat="43.555" lon="1.44387">
        <ele>729</ele>
        <time>2020-10-18T08:26:16Z</time>
      </trkpt>
      <trkpt lat="43.55498" lon="1.44385">
        <ele>728</ele>
        <time>2020-10-18T08:26:17Z</time>
      </trkpt>
      <trkpt lat="43.55496" lon="1.44384">
        <ele>728</ele>
        <time>2020-10-18T08:26:18Z</time>
      </trkpt>
      <trkpt lat="43.55494" lon="1.44382">
        <ele>726</ele>
        <time>2020-10-18T08:26:20Z</time>
      </trkpt>
      <trkpt lat="43.55491" lon="1.4438">
        <ele>726</ele>
        <time>2020-10-18T08:26:21Z</time>
      </trkpt>
      <trkpt lat="43.55487" lon="1.44377">
        <ele>726</ele>
        <time>2020-10-18T08:26:22Z</time>
      </trkpt>
      <trkpt lat="43.55482" lon="1.44373">
        <ele>725</ele>
        <time>2020-10-18T08:26:24Z</time>
      </trkpt>
      <trkpt lat="43.5548" lon="1.44371">
        <ele>724</ele>
        <time>2020-10-18T08:26:25Z</time>
      </trkpt>
      <trkpt lat="43.55477" lon="1.44369">
        <ele>724</ele>
        <time>2020-10-18T08:26:27Z</time>
      </trkpt>
      <trkpt lat="43.55473" lon="1.44365">
        <ele>724</ele>
        <time>2020-10-18T08:26:28Z</time>
      </trkpt>
      <trkpt lat="43.5547" lon="1.44363">
        <ele>724</ele>
        <time>2020-10-18T08:26:30Z</time>
      </trkpt>
      <trkpt lat="43.55468" lon="1.44362">
        <ele>724</ele>
        <time>2020-10-18T08:26:31Z</time>
      </trkpt>
      <trkpt lat="43.55466" lon="1.4436">
        <ele>724</ele>
        <time>2020-10-18T08:26:32Z</time>
      </trkpt>
      <trkpt lat="43.55464" lon="1.44358">
        <ele>723</ele>
        <time>2020-10-18T08:26:33Z</time>
      </trkpt>
      <trkpt lat="43.55461" lon="1.44357">
        <ele>723</ele>
        <time>2020-10-18T08:26:34Z</time>
      </trkpt>
      <trkpt lat="43.55456" lon="1.44354">
        <ele>723</ele>
        <time>2020-10-18T08:26:35Z</time>
      </trkpt>
      <trkpt lat="43.55453" lon="1.44353">
        <ele>723</ele>
        <time>2020-10-18T08:26:36Z</time>
      </trkpt>
      <trkpt lat="43.55451" lon="1.44351">
        <ele>722</ele>
        <time>2020-10-18T08:26:38Z</time>
      </trkpt>
      <trkpt lat="43.55446" lon="1.44348">
        <ele>722</ele>
        <time>2020-10-18T08:26:39Z</time>
      </trkpt>
      <trkpt lat="43.55444" lon="1.44346">
        <ele>721</ele>
        <time>2020-10-18T08:26:40Z</time>
      </trkpt>
      <trkpt lat="43.55442" lon="1.44345">
        <ele>721</ele>
        <time>2020-10-18T08:26:41Z</time>
      </trkpt>
      <trkpt lat="43.5544" lon="1.44344">
        <ele>721</ele>
        <time>2020-10-18T08:26:42Z</time>
      </trkpt>
      <trkpt lat="43.55438" lon="1.44342">
        <ele>722</ele>
        <time>2020-10-18T08:26:43Z</time>
      </trkpt>
      <trkpt lat="43.55436" lon="1.4434">
        <ele>722</ele>
        <time>2020-10-18T08:26:45Z</time>
      </trkpt>
      <trkpt lat="43.55434" lon="1.44339">
        <ele>722</ele>
        <time>2020-10-18T08:26:46Z</time>
      </trkpt>
      <trkpt lat="43.55431" lon="1.44338">
        <ele>722</ele>
        <time>2020-10-18T08:26:47Z</time>
      </trkpt>
      <trkpt lat="43.55429" lon="1.44336">
        <ele>722</ele>
        <time>2020-10-18T08:26:48Z</time>
      </trkpt>
      <trkpt lat="43.55425" lon="1.44332">
        <ele>722</ele>
        <time>2020-10-18T08:26:49Z</time>
      </trkpt>
      <trkpt lat="43.55423" lon="1.4433">
        <ele>723</ele>
        <time>2020-10-18T08:26:50Z</time>
      </trkpt>
      <trkpt lat="43.5542" lon="1.44325">
        <ele>724</ele>
        <time>2020-10-18T08:26:52Z</time>
      </trkpt>
      <trkpt lat="43.55419" lon="1.44322">
        <ele>724</ele>
        <time>2020-10-18T08:26:54Z</time>
      </trkpt>
      <trkpt lat="43.55417" lon="1.44319">
        <ele>724</ele>
        <time>2020-10-18T08:26:55Z</time>
      </trkpt>
      <trkpt lat="43.55415" lon="1.44314">
        <ele>724</ele>
        <time>2020-10-18T08:26:56Z</time>
      </trkpt>
      <trkpt lat="43.55414" lon="1.44312">
        <ele>725</ele>
        <time>2020-10-18T08:26:57Z</time>
      </trkpt>
      <trkpt lat="43.55412" lon="1.4431">
        <ele>726</ele>
        <time>2020-10-18T08:26:58Z</time>
      </trkpt>
      <trkpt lat="43.5541" lon="1.44308">
        <ele>727</ele>
        <time>2020-10-18T08:27:00Z</time>
      </trkpt>
      <trkpt lat="43.55408" lon="1.44306">
        <ele>727</ele>
        <time>2020-10-18T08:27:01Z</time>
      </trkpt>
      <trkpt lat="43.55406" lon="1.44305">
        <ele>727</ele>
        <time>2020-10-18T08:27:02Z</time>
      </trkpt>
      <trkpt lat="43.55404" lon="1.44304">
        <ele>727</ele>
        <time>2020-10-18T08:27:03Z</time>
      </trkpt>
      <trkpt lat="43.55402" lon="1.44304">
        <ele>727</ele>
        <time>2020-10-18T08:27:04Z</time>
      </trkpt>
      <trkpt lat="43.55399" lon="1.44304">
        <ele>727</ele>
        <time>2020-10-18T08:27:05Z</time>
      </trkpt>
      <trkpt lat="43.55395" lon="1.44304">
        <ele>727</ele>
        <time>2020-10-18T08:27:06Z</time>
      </trkpt>
      <trkpt lat="43.55393" lon="1.44304">
        <ele>728</ele>
        <time>2020-10-18T08:27:07Z</time>
      </trkpt>
      <trkpt lat="43.55389" lon="1.44304">
        <ele>728</ele>
        <time>2020-10-18T08:27:09Z</time>
      </trkpt>
      <trkpt lat="43.55386" lon="1.44305">
        <ele>728</ele>
        <time>2020-10-18T08:27:11Z</time>
      </trkpt>
      <trkpt lat="43.55384" lon="1.44305">
        <ele>729</ele>
        <time>2020-10-18T08:27:12Z</time>
      </trkpt>
      <trkpt lat="43.55379" lon="1.44306">
        <ele>729</ele>
        <time>2020-10-18T08:27:13Z</time>
      </trkpt>
      <trkpt lat="43.55377" lon="1.44305">
        <ele>729</ele>
        <time>2020-10-18T08:27:14Z</time>
      </trkpt>
      <trkpt lat="43.55375" lon="1.44305">
        <ele>729</ele>
        <time>2020-10-18T08:27:16Z</time>
      </trkpt>
      <trkpt lat="43.55373" lon="1.44305">
        <ele>729</ele>
        <time>2020-10-18T08:27:17Z</time>
      </trkpt>
      <trkpt lat="43.55368" lon="1.44305">
        <ele>729</ele>
        <time>2020-10-18T08:27:18Z</time>
      </trkpt>
      <trkpt lat="43.55366" lon="1.44305">
        <ele>730</ele>
        <time>2020-10-18T08:27:19Z</time>
      </trkpt>
      <trkpt lat="43.55361" lon="1.44305">
        <ele>730</ele>
        <time>2020-10-18T08:27:21Z</time>
      </trkpt>
      <trkpt lat="43.55359" lon="1.44304">
        <ele>730</ele>
        <time>2020-10-18T08:27:22Z</time>
      </trkpt>
      <trkpt lat="43.55357" lon="1.44304">
        <ele>730</ele>
        <time>2020-10-18T08:27:24Z</time>
      </trkpt>
      <trkpt lat="43.55354" lon="1.44304">
        <ele>730</ele>
        <time>2020-10-18T08:27:25Z</time>
      </trkpt>
      <trkpt lat="43.55349" lon="1.44301">
        <ele>730</ele>
        <time>2020-10-18T08:27:26Z</time>
      </trkpt>
      <trkpt lat="43.55347" lon="1.44301">
        <ele>730</ele>
        <time>2020-10-18T08:27:27Z</time>
      </trkpt>
      <trkpt lat="43.55345" lon="1.443">
        <ele>730</ele>
        <time>2020-10-18T08:27:29Z</time>
      </trkpt>
      <trkpt lat="43.55342" lon="1.44301">
        <ele>730</ele>
        <time>2020-10-18T08:27:30Z</time>
      </trkpt>
      <trkpt lat="43.55341" lon="1.44303">
        <ele>730</ele>
        <time>2020-10-18T08:27:31Z</time>
      </trkpt>
      <trkpt lat="43.55337" lon="1.4431">
        <ele>730</ele>
        <time>2020-10-18T08:27:32Z</time>
      </trkpt>
      <trkpt lat="43.55335" lon="1.44313">
        <ele>730</ele>
        <time>2020-10-18T08:27:33Z</time>
      </trkpt>
      <trkpt lat="43.55334" lon="1.44316">
        <ele>730</ele>
        <time>2020-10-18T08:27:34Z</time>
      </trkpt>
      <trkpt lat="43.55332" lon="1.44319">
        <ele>730</ele>
        <time>2020-10-18T08:27:36Z</time>
      </trkpt>
      <trkpt lat="43.55331" lon="1.44322">
        <ele>730</ele>
        <time>2020-10-18T08:27:37Z</time>
      </trkpt>
      <trkpt lat="43.55328" lon="1.44328">
        <ele>730</ele>
        <time>2020-10-18T08:27:38Z</time>
      </trkpt>
      <trkpt lat="43.55327" lon="1.44331">
        <ele>730</ele>
        <time>2020-10-18T08:27:39Z</time>
      </trkpt>
      <trkpt lat="43.55326" lon="1.44334">
        <ele>730</ele>
        <time>2020-10-18T08:27:41Z</time>
      </trkpt>
      <trkpt lat="43.55325" lon="1.44337">
        <ele>730</ele>
        <time>2020-10-18T08:27:42Z</time>
      </trkpt>
      <trkpt lat="43.55324" lon="1.4434">
        <ele>730</ele>
        <time>2020-10-18T08:27:43Z</time>
      </trkpt>
      <trkpt lat="43.55323" lon="1.44343">
        <ele>730</ele>
        <time>2020-10-18T08:27:44Z</time>
      </trkpt>
      <trkpt lat="43.55322" lon="1.44346">
        <ele>730</ele>
        <time>2020-10-18T08:27:45Z</time>
      </trkpt>
      <trkpt lat="43.5532" lon="1.44352">
        <ele>731</ele>
        <time>2020-10-18T08:27:46Z</time>
      </trkpt>
      <trkpt lat="43.55318" lon="1.44355">
        <ele>730</ele>
        <time>2020-10-18T08:27:48Z</time>
      </trkpt>
      <trkpt lat="43.55316" lon="1.44361">
        <ele>730</ele>
        <time>2020-10-18T08:27:49Z</time>
      </trkpt>
      <trkpt lat="43.55315" lon="1.44363">
        <ele>731</ele>
        <time>2020-10-18T08:27:51Z</time>
      </trkpt>
      <trkpt lat="43.55313" lon="1.44366">
        <ele>731</ele>
        <time>2020-10-18T08:27:52Z</time>
      </trkpt>
      <trkpt lat="43.55311" lon="1.44371">
        <ele>731</ele>
        <time>2020-10-18T08:27:53Z</time>
      </trkpt>
      <trkpt lat="43.5531" lon="1.44374">
        <ele>731</ele>
        <time>2020-10-18T08:27:54Z</time>
      </trkpt>
      <trkpt lat="43.55309" lon="1.44376">
        <ele>731</ele>
        <time>2020-10-18T08:27:55Z</time>
      </trkpt>
      <trkpt lat="43.55308" lon="1.44379">
        <ele>731</ele>
        <time>2020-10-18T08:27:57Z</time>
      </trkpt>
      <trkpt lat="43.55306" lon="1.44382">
        <ele>731</ele>
        <time>2020-10-18T08:27:58Z</time>
      </trkpt>
      <trkpt lat="43.55305" lon="1.44385">
        <ele>732</ele>
        <time>2020-10-18T08:27:59Z</time>
      </trkpt>
      <trkpt lat="43.55303" lon="1.4439">
        <ele>732</ele>
        <time>2020-10-18T08:28:00Z</time>
      </trkpt>
      <trkpt lat="43.55303" lon="1.44393">
        <ele>732</ele>
        <time>2020-10-18T08:28:02Z</time>
      </trkpt>
      <trkpt lat="43.55301" lon="1.44399">
        <ele>732</ele>
        <time>2020-10-18T08:28:03Z</time>
      </trkpt>
      <trkpt lat="43.553" lon="1.44402">
        <ele>732</ele>
        <time>2020-10-18T08:28:05Z</time>
      </trkpt>
      <trkpt lat="43.553" lon="1.44405">
        <ele>732</ele>
        <time>2020-10-18T08:28:06Z</time>
      </trkpt>
      <trkpt lat="43.553" lon="1.44409">
        <ele>732</ele>
        <time>2020-10-18T08:28:07Z</time>
      </trkpt>
      <trkpt lat="43.55299" lon="1.44412">
        <ele>732</ele>
        <time>2020-10-18T08:28:08Z</time>
      </trkpt>
      <trkpt lat="43.55299" lon="1.44415">
        <ele>732</ele>
        <time>2020-10-18T08:28:09Z</time>
      </trkpt>
      <trkpt lat="43.55299" lon="1.44418">
        <ele>732</ele>
        <time>2020-10-18T08:28:10Z</time>
      </trkpt>
      <trkpt lat="43.55298" lon="1.44424">
        <ele>732</ele>
        <time>2020-10-18T08:28:11Z</time>
      </trkpt>
      <trkpt lat="43.55298" lon="1.44427">
        <ele>732</ele>
        <time>2020-10-18T08:28:12Z</time>
      </trkpt>
      <trkpt lat="43.55299" lon="1.44431">
        <ele>733</ele>
        <time>2020-10-18T08:28:14Z</time>
      </trkpt>
      <trkpt lat="43.55299" lon="1.44434">
        <ele>733</ele>
        <time>2020-10-18T08:28:15Z</time>
      </trkpt>
      <trkpt lat="43.553" lon="1.44438">
        <ele>733</ele>
        <time>2020-10-18T08:28:16Z</time>
      </trkpt>
      <trkpt lat="43.553" lon="1.44441">
        <ele>733</ele>
        <time>2020-10-18T08:28:17Z</time>
      </trkpt>
      <trkpt lat="43.55301" lon="1.44444">
        <ele>733</ele>
        <time>2020-10-18T08:28:18Z</time>
      </trkpt>
      <trkpt lat="43.55301" lon="1.44447">
        <ele>733</ele>
        <time>2020-10-18T08:28:19Z</time>
      </trkpt>
      <trkpt lat="43.55302" lon="1.4445">
        <ele>733</ele>
        <time>2020-10-18T08:28:20Z</time>
      </trkpt>
      <trkpt lat="43.55303" lon="1.44456">
        <ele>733</ele>
        <time>2020-10-18T08:28:21Z</time>
      </trkpt>
      <trkpt lat="43.55304" lon="1.44459">
        <ele>733</ele>
        <time>2020-10-18T08:28:23Z</time>
      </trkpt>
      <trkpt lat="43.55304" lon="1.44462">
        <ele>733</ele>
        <time>2020-10-18T08:28:24Z</time>
      </trkpt>
      <trkpt lat="43.55305" lon="1.44466">
        <ele>733</ele>
        <time>2020-10-18T08:28:25Z</time>
      </trkpt>
      <trkpt lat="43.55307" lon="1.44471">
        <ele>733</ele>
        <time>2020-10-18T08:28:26Z</time>
      </trkpt>
      <trkpt lat="43.55308" lon="1.44473">
        <ele>733</ele>
        <time>2020-10-18T08:28:27Z</time>
      </trkpt>
      <trkpt lat="43.55309" lon="1.44476">
        <ele>733</ele>
        <time>2020-10-18T08:28:29Z</time>
      </trkpt>
      <trkpt lat="43.5531" lon="1.44479">
        <ele>733</ele>
        <time>2020-10-18T08:28:30Z</time>
      </trkpt>
      <trkpt lat="43.5531" lon="1.44482">
        <ele>733</ele>
        <time>2020-10-18T08:28:31Z</time>
      </trkpt>
      <trkpt lat="43.55311" lon="1.44485">
        <ele>734</ele>
        <time>2020-10-18T08:28:32Z</time>
      </trkpt>
      <trkpt lat="43.55312" lon="1.44492">
        <ele>734</ele>
        <time>2020-10-18T08:28:33Z</time>
      </trkpt>
      <trkpt lat="43.55312" lon="1.44495">
        <ele>734</ele>
        <time>2020-10-18T08:28:34Z</time>
      </trkpt>
      <trkpt lat="43.55312" lon="1.44498">
        <ele>734</ele>
        <time>2020-10-18T08:28:35Z</time>
      </trkpt>
      <trkpt lat="43.55312" lon="1.44501">
        <ele>734</ele>
        <time>2020-10-18T08:28:36Z</time>
      </trkpt>
      <trkpt lat="43.55313" lon="1.44505">
        <ele>734</ele>
        <time>2020-10-18T08:28:38Z</time>
      </trkpt>
      <trkpt lat="43.55313" lon="1.44508">
        <ele>734</ele>
        <time>2020-10-18T08:28:39Z</time>
      </trkpt>
      <trkpt lat="43.55314" lon="1.4451">
        <ele>734</ele>
        <time>2020-10-18T08:28:40Z</time>
      </trkpt>
      <trkpt lat="43.55314" lon="1.44513">
        <ele>734</ele>
        <time>2020-10-18T08:28:41Z</time>
      </trkpt>
      <trkpt lat="43.55314" lon="1.44516">
        <ele>735</ele>
        <time>2020-10-18T08:28:42Z</time>
      </trkpt>
      <trkpt lat="43.55315" lon="1.44519">
        <ele>736</ele>
        <time>2020-10-18T08:28:43Z</time>
      </trkpt>
      <trkpt lat="43.55315" lon="1.44522">
        <ele>736</ele>
        <time>2020-10-18T08:28:44Z</time>
      </trkpt>
      <trkpt lat="43.55317" lon="1.44527">
        <ele>736</ele>
        <time>2020-10-18T08:28:45Z</time>
      </trkpt>
      <trkpt lat="43.55318" lon="1.4453">
        <ele>736</ele>
        <time>2020-10-18T08:28:47Z</time>
      </trkpt>
      <trkpt lat="43.55319" lon="1.44532">
        <ele>736</ele>
        <time>2020-10-18T08:28:48Z</time>
      </trkpt>
      <trkpt lat="43.5532" lon="1.44534">
        <ele>736</ele>
        <time>2020-10-18T08:28:49Z</time>
      </trkpt>
      <trkpt lat="43.55322" lon="1.44535">
        <ele>736</ele>
        <time>2020-10-18T08:28:50Z</time>
      </trkpt>
      <trkpt lat="43.55326" lon="1.44535">
        <ele>736</ele>
        <time>2020-10-18T08:28:52Z</time>
      </trkpt>
      <trkpt lat="43.5533" lon="1.44534">
        <ele>736</ele>
        <time>2020-10-18T08:28:53Z</time>
      </trkpt>
      <trkpt lat="43.55335" lon="1.44532">
        <ele>736</ele>
        <time>2020-10-18T08:28:55Z</time>
      </trkpt>
      <trkpt lat="43.55337" lon="1.44531">
        <ele>736</ele>
        <time>2020-10-18T08:28:57Z</time>
      </trkpt>
      <trkpt lat="43.55339" lon="1.44529">
        <ele>736</ele>
        <time>2020-10-18T08:28:58Z</time>
      </trkpt>
      <trkpt lat="43.55342" lon="1.44528">
        <ele>736</ele>
        <time>2020-10-18T08:28:59Z</time>
      </trkpt>
      <trkpt lat="43.55344" lon="1.44527">
        <ele>736</ele>
        <time>2020-10-18T08:29:00Z</time>
      </trkpt>
      <trkpt lat="43.55346" lon="1.44526">
        <ele>736</ele>
        <time>2020-10-18T08:29:01Z</time>
      </trkpt>
      <trkpt lat="43.55349" lon="1.44525">
        <ele>736</ele>
        <time>2020-10-18T08:29:02Z</time>
      </trkpt>
      <trkpt lat="43.55353" lon="1.44524">
        <ele>736</ele>
        <time>2020-10-18T08:29:03Z</time>
      </trkpt>
      <trkpt lat="43.55356" lon="1.44524">
        <ele>736</ele>
        <time>2020-10-18T08:29:05Z</time>
      </trkpt>
      <trkpt lat="43.55358" lon="1.44525">
        <ele>736</ele>
        <time>2020-10-18T08:29:06Z</time>
      </trkpt>
      <trkpt lat="43.5536" lon="1.44527">
        <ele>736</ele>
        <time>2020-10-18T08:29:07Z</time>
      </trkpt>
      <trkpt lat="43.55363" lon="1.44531">
        <ele>736</ele>
        <time>2020-10-18T08:29:08Z</time>
      </trkpt>
      <trkpt lat="43.55365" lon="1.44534">
        <ele>736</ele>
        <time>2020-10-18T08:29:09Z</time>
      </trkpt>
      <trkpt lat="43.55367" lon="1.44537">
        <ele>736</ele>
        <time>2020-10-18T08:29:11Z</time>
      </trkpt>
      <trkpt lat="43.55367" lon="1.4454">
        <ele>736</ele>
        <time>2020-10-18T08:29:12Z</time>
      </trkpt>
      <trkpt lat="43.55368" lon="1.44543">
        <ele>736</ele>
        <time>2020-10-18T08:29:13Z</time>
      </trkpt>
      <trkpt lat="43.55369" lon="1.44546">
        <ele>736</ele>
        <time>2020-10-18T08:29:14Z</time>
      </trkpt>
      <trkpt lat="43.55372" lon="1.44553">
        <ele>737</ele>
        <time>2020-10-18T08:29:15Z</time>
      </trkpt>
      <trkpt lat="43.55373" lon="1.44556">
        <ele>737</ele>
        <time>2020-10-18T08:29:16Z</time>
      </trkpt>
      <trkpt lat="43.55374" lon="1.44559">
        <ele>737</ele>
        <time>2020-10-18T08:29:18Z</time>
      </trkpt>
      <trkpt lat="43.55376" lon="1.44562">
        <ele>737</ele>
        <time>2020-10-18T08:29:19Z</time>
      </trkpt>
      <trkpt lat="43.55379" lon="1.44567">
        <ele>737</ele>
        <time>2020-10-18T08:29:20Z</time>
      </trkpt>
      <trkpt lat="43.55381" lon="1.44569">
        <ele>737</ele>
        <time>2020-10-18T08:29:22Z</time>
      </trkpt>
      <trkpt lat="43.55383" lon="1.44571">
        <ele>737</ele>
        <time>2020-10-18T08:29:23Z</time>
      </trkpt>
      <trkpt lat="43.55385" lon="1.44572">
        <ele>737</ele>
        <time>2020-10-18T08:29:24Z</time>
      </trkpt>
      <trkpt lat="43.55388" lon="1.44573">
        <ele>737</ele>
        <time>2020-10-18T08:29:25Z</time>
      </trkpt>
      <trkpt lat="43.5539" lon="1.44573">
        <ele>737</ele>
        <time>2020-10-18T08:29:26Z</time>
      </trkpt>
      <trkpt lat="43.55393" lon="1.44574">
        <ele>737</ele>
        <time>2020-10-18T08:29:27Z</time>
      </trkpt>
      <trkpt lat="43.55398" lon="1.44573">
        <ele>737</ele>
        <time>2020-10-18T08:29:28Z</time>
      </trkpt>
      <trkpt lat="43.554" lon="1.44573">
        <ele>737</ele>
        <time>2020-10-18T08:29:29Z</time>
      </trkpt>
      <trkpt lat="43.55404" lon="1.44574">
        <ele>737</ele>
        <time>2020-10-18T08:29:31Z</time>
      </trkpt>
      <trkpt lat="43.55409" lon="1.44575">
        <ele>737</ele>
        <time>2020-10-18T08:29:33Z</time>
      </trkpt>
      <trkpt lat="43.55411" lon="1.44577">
        <ele>737</ele>
        <time>2020-10-18T08:29:34Z</time>
      </trkpt>
      <trkpt lat="43.55413" lon="1.44579">
        <ele>737</ele>
        <time>2020-10-18T08:29:36Z</time>
      </trkpt>
      <trkpt lat="43.55417" lon="1.44583">
        <ele>737</ele>
        <time>2020-10-18T08:29:37Z</time>
      </trkpt>
      <trkpt lat="43.55419" lon="1.44585">
        <ele>737</ele>
        <time>2020-10-18T08:29:38Z</time>
      </trkpt>
      <trkpt lat="43.55421" lon="1.44587">
        <ele>737</ele>
        <time>2020-10-18T08:29:40Z</time>
      </trkpt>
      <trkpt lat="43.55424" lon="1.44589">
        <ele>737</ele>
        <time>2020-10-18T08:29:41Z</time>
      </trkpt>
      <trkpt lat="43.55426" lon="1.44591">
        <ele>738</ele>
        <time>2020-10-18T08:29:42Z</time>
      </trkpt>
      <trkpt lat="43.55428" lon="1.44593">
        <ele>738</ele>
        <time>2020-10-18T08:29:43Z</time>
      </trkpt>
      <trkpt lat="43.55429" lon="1.44595">
        <ele>738</ele>
        <time>2020-10-18T08:29:44Z</time>
      </trkpt>
      <trkpt lat="43.55431" lon="1.44598">
        <ele>738</ele>
        <time>2020-10-18T08:29:45Z</time>
      </trkpt>
      <trkpt lat="43.55434" lon="1.44597">
        <ele>738</ele>
        <time>2020-10-18T08:29:46Z</time>
      </trkpt>
      <trkpt lat="43.55436" lon="1.44596">
        <ele>738</ele>
        <time>2020-10-18T08:29:48Z</time>
      </trkpt>
      <trkpt lat="43.55441" lon="1.44595">
        <ele>738</ele>
        <time>2020-10-18T08:29:49Z</time>
      </trkpt>
      <trkpt lat="43.55444" lon="1.44595">
        <ele>738</ele>
        <time>2020-10-18T08:29:51Z</time>
      </trkpt>
      <trkpt lat="43.55446" lon="1.44595">
        <ele>738</ele>
        <time>2020-10-18T08:29:52Z</time>
      </trkpt>
      <trkpt lat="43.55448" lon="1.44595">
        <ele>738</ele>
        <time>2020-10-18T08:29:53Z</time>
      </trkpt>
      <trkpt lat="43.55451" lon="1.44594">
        <ele>738</ele>
        <time>2020-10-18T08:29:54Z</time>
      </trkpt>
      <trkpt lat="43.55453" lon="1.44594">
        <ele>738</ele>
        <time>2020-10-18T08:29:55Z</time>
      </trkpt>
      <trkpt lat="43.55455" lon="1.44594">
        <ele>738</ele>
        <time>2020-10-18T08:29:56Z</time>
      </trkpt>
      <trkpt lat="43.5546" lon="1.44592">
        <ele>739</ele>
        <time>2020-10-18T08:29:57Z</time>
      </trkpt>
      <trkpt lat="43.55462" lon="1.44592">
        <ele>739</ele>
        <time>2020-10-18T08:29:59Z</time>
      </trkpt>
      <trkpt lat="43.55465" lon="1.44591">
        <ele>739</ele>
        <time>2020-10-18T08:30:00Z</time>
      </trkpt>
      <trkpt lat="43.55467" lon="1.44591">
        <ele>739</ele>
        <time>2020-10-18T08:30:01Z</time>
      </trkpt>
      <trkpt lat="43.55472" lon="1.44591">
        <ele>739</ele>
        <time>2020-10-18T08:30:02Z</time>
      </trkpt>
      <trkpt lat="43.55474" lon="1.44591">
        <ele>739</ele>
        <time>2020-10-18T08:30:03Z</time>
      </trkpt>
      <trkpt lat="43.55476" lon="1.44591">
        <ele>739</ele>
        <time>2020-10-18T08:30:04Z</time>
      </trkpt>
      <trkpt lat="43.55479" lon="1.44592">
        <ele>739</ele>
        <time>2020-10-18T08:30:05Z</time>
      </trkpt>
      <trkpt lat="43.55481" lon="1.44592">
        <ele>739</ele>
        <time>2020-10-18T08:30:07Z</time>
      </trkpt>
      <trkpt lat="43.55486" lon="1.44591">
        <ele>739</ele>
        <time>2020-10-18T08:30:08Z</time>
      </trkpt>
      <trkpt lat="43.55488" lon="1.44591">
        <ele>739</ele>
        <time>2020-10-18T08:30:09Z</time>
      </trkpt>
      <trkpt lat="43.55491" lon="1.44591">
        <ele>740</ele>
        <time>2020-10-18T08:30:11Z</time>
      </trkpt>
      <trkpt lat="43.55493" lon="1.44591">
        <ele>740</ele>
        <time>2020-10-18T08:30:12Z</time>
      </trkpt>
      <trkpt lat="43.55497" lon="1.44591">
        <ele>741</ele>
        <time>2020-10-18T08:30:13Z</time>
      </trkpt>
      <trkpt lat="43.555" lon="1.44591">
        <ele>741</ele>
        <time>2020-10-18T08:30:15Z</time>
      </trkpt>
      <trkpt lat="43.55502" lon="1.44591">
        <ele>741</ele>
        <time>2020-10-18T08:30:16Z</time>
      </trkpt>
      <trkpt lat="43.55504" lon="1.44591">
        <ele>741</ele>
        <time>2020-10-18T08:30:17Z</time>
      </trkpt>
      <trkpt lat="43.55507" lon="1.4459">
        <ele>741</ele>
        <time>2020-10-18T08:30:18Z</time>
      </trkpt>
      <trkpt lat="43.55511" lon="1.4459">
        <ele>741</ele>
        <time>2020-10-18T08:30:19Z</time>
      </trkpt>
      <trkpt lat="43.55513" lon="1.4459">
        <ele>741</ele>
        <time>2020-10-18T08:30:21Z</time>
      </trkpt>
      <trkpt lat="43.55515" lon="1.4459">
        <ele>741</ele>
        <time>2020-10-18T08:30:22Z</time>
      </trkpt>
      <trkpt lat="43.55517" lon="1.4459">
        <ele>742</ele>
        <time>2020-10-18T08:30:23Z</time>
      </trkpt>
      <trkpt lat="43.55522" lon="1.44589">
        <ele>742</ele>
        <time>2020-10-18T08:30:24Z</time>
      </trkpt>
      <trkpt lat="43.55524" lon="1.44589">
        <ele>742</ele>
        <time>2020-10-18T08:30:25Z</time>
      </trkpt>
      <trkpt lat="43.55526" lon="1.44589">
        <ele>742</ele>
        <time>2020-10-18T08:30:26Z</time>
      </trkpt>
      <trkpt lat="43.55528" lon="1.44589">
        <ele>742</ele>
        <time>2020-10-18T08:30:28Z</time>
      </trkpt>
      <trkpt lat="43.55531" lon="1.44589">
        <ele>742</ele>
        <time>2020-10-18T08:30:29Z</time>
      </trkpt>
      <trkpt lat="43.55533" lon="1.44589">
        <ele>742</ele>
        <time>2020-10-18T08:30:30Z</time>
      </trkpt>
      <trkpt lat="43.55535" lon="1.44589">
        <ele>742</ele>
        <time>2020-10-18T08:30:31Z</time>
      </trkpt>
      <trkpt lat="43.55537" lon="1.44589">
        <ele>742</ele>
        <time>2020-10-18T08:30:32Z</time>
      </trkpt>
      <trkpt lat="43.55539" lon="1.44588">
        <ele>742</ele>
        <time>2020-10-18T08:30:33Z</time>
      </trkpt>
      <trkpt lat="43.55541" lon="1.44588">
        <ele>743</ele>
        <time>2020-10-18T08:30:34Z</time>
      </trkpt>
      <trkpt lat="43.55543" lon="1.44588">
        <ele>743</ele>
        <time>2020-10-18T08:30:35Z</time>
      </trkpt>
      <trkpt lat="43.55545" lon="1.44587">
        <ele>743</ele>
        <time>2020-10-18T08:30:36Z</time>
      </trkpt>
      <trkpt lat="43.55548" lon="1.44587">
        <ele>743</ele>
        <time>2020-10-18T08:30:37Z</time>
      </trkpt>
      <trkpt lat="43.5555" lon="1.44587">
        <ele>743</ele>
        <time>2020-10-18T08:30:38Z</time>
      </trkpt>
      <trkpt lat="43.55554" lon="1.44586">
        <ele>743</ele>
        <time>2020-10-18T08:30:39Z</time>
      </trkpt>
      <trkpt lat="43.55556" lon="1.44585">
        <ele>743</ele>
        <time>2020-10-18T08:30:40Z</time>
      </trkpt>
      <trkpt lat="43.55558" lon="1.44585">
        <ele>743</ele>
        <time>2020-10-18T08:30:42Z</time>
      </trkpt>
      <trkpt lat="43.5556" lon="1.44584">
        <ele>743</ele>
        <time>2020-10-18T08:30:43Z</time>
      </trkpt>
      <trkpt lat="43.55563" lon="1.44583">
        <ele>743</ele>
        <time>2020-10-18T08:30:44Z</time>
      </trkpt>
      <trkpt lat="43.55565" lon="1.44582">
        <ele>744</ele>
        <time>2020-10-18T08:30:45Z</time>
      </trkpt>
      <trkpt lat="43.55567" lon="1.44582">
        <ele>744</ele>
        <time>2020-10-18T08:30:46Z</time>
      </trkpt>
      <trkpt lat="43.55569" lon="1.44581">
        <ele>744</ele>
        <time>2020-10-18T08:30:47Z</time>
      </trkpt>
      <trkpt lat="43.55571" lon="1.4458">
        <ele>745</ele>
        <time>2020-10-18T08:30:48Z</time>
      </trkpt>
      <trkpt lat="43.55572" lon="1.44579">
        <ele>745</ele>
        <time>2020-10-18T08:30:49Z</time>
      </trkpt>
      <trkpt lat="43.55574" lon="1.44578">
        <ele>745</ele>
        <time>2020-10-18T08:30:50Z</time>
      </trkpt>
      <trkpt lat="43.55576" lon="1.44577">
        <ele>745</ele>
        <time>2020-10-18T08:30:51Z</time>
      </trkpt>
      <trkpt lat="43.55579" lon="1.44575">
        <ele>745</ele>
        <time>2020-10-18T08:30:52Z</time>
      </trkpt>
      <trkpt lat="43.5558" lon="1.44574">
        <ele>745</ele>
        <time>2020-10-18T08:30:53Z</time>
      </trkpt>
      <trkpt lat="43.55582" lon="1.44574">
        <ele>746</ele>
        <time>2020-10-18T08:30:54Z</time>
      </trkpt>
      <trkpt lat="43.55587" lon="1.44572">
        <ele>746</ele>
        <time>2020-10-18T08:30:55Z</time>
      </trkpt>
      <trkpt lat="43.55589" lon="1.44571">
        <ele>746</ele>
        <time>2020-10-18T08:30:57Z</time>
      </trkpt>
      <trkpt lat="43.55591" lon="1.4457">
        <ele>746</ele>
        <time>2020-10-18T08:30:58Z</time>
      </trkpt>
      <trkpt lat="43.55593" lon="1.44569">
        <ele>747</ele>
        <time>2020-10-18T08:30:59Z</time>
      </trkpt>
      <trkpt lat="43.55595" lon="1.44569">
        <ele>747</ele>
        <time>2020-10-18T08:31:00Z</time>
      </trkpt>
      <trkpt lat="43.55599" lon="1.44567">
        <ele>747</ele>
        <time>2020-10-18T08:31:01Z</time>
      </trkpt>
      <trkpt lat="43.55601" lon="1.44566">
        <ele>747</ele>
        <time>2020-10-18T08:31:02Z</time>
      </trkpt>
      <trkpt lat="43.55603" lon="1.44566">
        <ele>748</ele>
        <time>2020-10-18T08:31:04Z</time>
      </trkpt>
      <trkpt lat="43.55605" lon="1.44565">
        <ele>748</ele>
        <time>2020-10-18T08:31:05Z</time>
      </trkpt>
      <trkpt lat="43.55607" lon="1.44564">
        <ele>748</ele>
        <time>2020-10-18T08:31:06Z</time>
      </trkpt>
      <trkpt lat="43.55609" lon="1.44563">
        <ele>749</ele>
        <time>2020-10-18T08:31:07Z</time>
      </trkpt>
      <trkpt lat="43.55611" lon="1.44562">
        <ele>749</ele>
        <time>2020-10-18T08:31:08Z</time>
      </trkpt>
      <trkpt lat="43.55615" lon="1.44561">
        <ele>749</ele>
        <time>2020-10-18T08:31:09Z</time>
      </trkpt>
      <trkpt lat="43.55617" lon="1.4456">
        <ele>750</ele>
        <time>2020-10-18T08:31:10Z</time>
      </trkpt>
      <trkpt lat="43.55619" lon="1.44559">
        <ele>750</ele>
        <time>2020-10-18T08:31:12Z</time>
      </trkpt>
      <trkpt lat="43.55621" lon="1.44558">
        <ele>750</ele>
        <time>2020-10-18T08:31:13Z</time>
      </trkpt>
      <trkpt lat="43.55623" lon="1.44558">
        <ele>751</ele>
        <time>2020-10-18T08:31:14Z</time>
      </trkpt>
      <trkpt lat="43.55625" lon="1.44557">
        <ele>751</ele>
        <time>2020-10-18T08:31:15Z</time>
      </trkpt>
      <trkpt lat="43.55629" lon="1.44555">
        <ele>751</ele>
        <time>2020-10-18T08:31:17Z</time>
      </trkpt>
      <trkpt lat="43.55631" lon="1.44554">
        <ele>751</ele>
        <time>2020-10-18T08:31:18Z</time>
      </trkpt>
      <trkpt lat="43.55633" lon="1.44553">
        <ele>751</ele>
        <time>2020-10-18T08:31:19Z</time>
      </trkpt>
      <trkpt lat="43.55635" lon="1.44553">
        <ele>752</ele>
        <time>2020-10-18T08:31:20Z</time>
      </trkpt>
      <trkpt lat="43.55637" lon="1.44552">
        <ele>752</ele>
        <time>2020-10-18T08:31:21Z</time>
      </trkpt>
      <trkpt lat="43.55639" lon="1.44552">
        <ele>753</ele>
        <time>2020-10-18T08:31:22Z</time>
      </trkpt>
      <trkpt lat="43.55641" lon="1.44552">
        <ele>753</ele>
        <time>2020-10-18T08:31:23Z</time>
      </trkpt>
      <trkpt lat="43.55643" lon="1.44552">
        <ele>754</ele>
        <time>2020-10-18T08:31:24Z</time>
      </trkpt>
      <trkpt lat="43.55645" lon="1.44551">
        <ele>754</ele>
        <time>2020-10-18T08:31:25Z</time>
      </trkpt>
      <trkpt lat="43.55647" lon="1.4455">
        <ele>754</ele>
        <time>2020-10-18T08:31:26Z</time>
      </trkpt>
      <trkpt lat="43.55649" lon="1.4455">
        <ele>754</ele>
        <time>2020-10-18T08:31:27Z</time>
      </trkpt>
      <trkpt lat="43.55652" lon="1.44549">
        <ele>756</ele>
        <time>2020-10-18T08:31:29Z</time>
      </trkpt>
      <trkpt lat="43.55655" lon="1.44549">
        <ele>756</ele>
        <time>2020-10-18T08:31:31Z</time>
      </trkpt>
      <trkpt lat="43.55657" lon="1.44548">
        <ele>757</ele>
        <time>2020-10-18T08:31:33Z</time>
      </trkpt>
      <trkpt lat="43.5566" lon="1.44547">
        <ele>757</ele>
        <time>2020-10-18T08:31:35Z</time>
      </trkpt>
      <trkpt lat="43.55662" lon="1.44546">
        <ele>759</ele>
        <time>2020-10-18T08:31:37Z</time>
      </trkpt>
      <trkpt lat="43.55664" lon="1.44547">
        <ele>759</ele>
        <time>2020-10-18T08:31:40Z</time>
      </trkpt>
      <trkpt lat="43.55667" lon="1.44546">
        <ele>760</ele>
        <time>2020-10-18T08:31:43Z</time>
      </trkpt>
      <trkpt lat="43.55669" lon="1.44545">
        <ele>760</ele>
        <time>2020-10-18T08:31:45Z</time>
      </trkpt>
      <trkpt lat="43.55671" lon="1.44543">
        <ele>760</ele>
        <time>2020-10-18T08:31:47Z</time>
      </trkpt>
      <trkpt lat="43.55673" lon="1.44541">
        <ele>760</ele>
        <time>2020-10-18T08:31:49Z</time>
      </trkpt>
      <trkpt lat="43.55675" lon="1.44539">
        <ele>761</ele>
        <time>2020-10-18T08:31:51Z</time>
      </trkpt>
      <trkpt lat="43.55678" lon="1.44537">
        <ele>761</ele>
        <time>2020-10-18T08:31:53Z</time>
      </trkpt>
      <trkpt lat="43.5568" lon="1.44537">
        <ele>761</ele>
        <time>2020-10-18T08:31:55Z</time>
      </trkpt>
      <trkpt lat="43.55683" lon="1.44537">
        <ele>761</ele>
        <time>2020-10-18T08:31:57Z</time>
      </trkpt>
      <trkpt lat="43.55685" lon="1.44538">
        <ele>762</ele>
        <time>2020-10-18T08:31:59Z</time>
      </trkpt>
      <trkpt lat="43.55688" lon="1.4454">
        <ele>762</ele>
        <time>2020-10-18T08:32:01Z</time>
      </trkpt>
      <trkpt lat="43.5569" lon="1.44541">
        <ele>762</ele>
        <time>2020-10-18T08:32:03Z</time>
      </trkpt>
      <trkpt lat="43.55692" lon="1.44543">
        <ele>762</ele>
        <time>2020-10-18T08:32:05Z</time>
      </trkpt>
      <trkpt lat="43.55694" lon="1.44545">
        <ele>763</ele>
        <time>2020-10-18T08:32:07Z</time>
      </trkpt>
      <trkpt lat="43.55697" lon="1.44547">
        <ele>763</ele>
        <time>2020-10-18T08:32:09Z</time>
      </trkpt>
      <trkpt lat="43.557" lon="1.44549">
        <ele>763</ele>
        <time>2020-10-18T08:32:11Z</time>
      </trkpt>
      <trkpt lat="43.55702" lon="1.4455">
        <ele>763</ele>
        <time>2020-10-18T08:32:13Z</time>
      </trkpt>
      <trkpt lat="43.55704" lon="1.44553">
        <ele>763</ele>
        <time>2020-10-18T08:32:15Z</time>
      </trkpt>
      <trkpt lat="43.55706" lon="1.44555">
        <ele>764</ele>
        <time>2020-10-18T08:32:17Z</time>
      </trkpt>
      <trkpt lat="43.55708" lon="1.44556">
        <ele>764</ele>
        <time>2020-10-18T08:32:19Z</time>
      </trkpt>
      <trkpt lat="43.5571" lon="1.44557">
        <ele>764</ele>
        <time>2020-10-18T08:32:21Z</time>
      </trkpt>
      <trkpt lat="43.55713" lon="1.44558">
        <ele>764</ele>
        <time>2020-10-18T08:32:23Z</time>
      </trkpt>
      <trkpt lat="43.55716" lon="1.44559">
        <ele>765</ele>
        <time>2020-10-18T08:32:25Z</time>
      </trkpt>
      <trkpt lat="43.55719" lon="1.44559">
        <ele>765</ele>
        <time>2020-10-18T08:32:26Z</time>
      </trkpt>
      <trkpt lat="43.55721" lon="1.4456">
        <ele>765</ele>
        <time>2020-10-18T08:32:29Z</time>
      </trkpt>
      <trkpt lat="43.55724" lon="1.44561">
        <ele>765</ele>
        <time>2020-10-18T08:32:31Z</time>
      </trkpt>
      <trkpt lat="43.55727" lon="1.44561">
        <ele>765</ele>
        <time>2020-10-18T08:32:33Z</time>
      </trkpt>
      <trkpt lat="43.55729" lon="1.44561">
        <ele>765</ele>
        <time>2020-10-18T08:32:35Z</time>
      </trkpt>
      <trkpt lat="43.55732" lon="1.44562">
        <ele>766</ele>
        <time>2020-10-18T08:32:37Z</time>
      </trkpt>
      <trkpt lat="43.55734" lon="1.44563">
        <ele>766</ele>
        <time>2020-10-18T08:32:39Z</time>
      </trkpt>
      <trkpt lat="43.55736" lon="1.44564">
        <ele>767</ele>
        <time>2020-10-18T08:32:41Z</time>
      </trkpt>
      <trkpt lat="43.55738" lon="1.44564">
        <ele>767</ele>
        <time>2020-10-18T08:32:43Z</time>
      </trkpt>
      <trkpt lat="43.55741" lon="1.44565">
        <ele>767</ele>
        <time>2020-10-18T08:32:45Z</time>
      </trkpt>
      <trkpt lat="43.55743" lon="1.44565">
        <ele>767</ele>
        <time>2020-10-18T08:32:47Z</time>
      </trkpt>
      <trkpt lat="43.55745" lon="1.44566">
        <ele>768</ele>
        <time>2020-10-18T08:32:49Z</time>
      </trkpt>
      <trkpt lat="43.55748" lon="1.44567">
        <ele>768</ele>
        <time>2020-10-18T08:32:51Z</time>
      </trkpt>
      <trkpt lat="43.55751" lon="1.44567">
        <ele>769</ele>
        <time>2020-10-18T08:32:53Z</time>
      </trkpt>
      <trkpt lat="43.55753" lon="1.44569">
        <ele>769</ele>
        <time>2020-10-18T08:32:55Z</time>
      </trkpt>
      <trkpt lat="43.55756" lon="1.44569">
        <ele>769</ele>
        <time>2020-10-18T08:32:57Z</time>
      </trkpt>
      <trkpt lat="43.55759" lon="1.44568">
        <ele>770</ele>
        <time>2020-10-18T08:32:59Z</time>
      </trkpt>
      <trkpt lat="43.55762" lon="1.44569">
        <ele>770</ele>
        <time>2020-10-18T08:33:01Z</time>
      </trkpt>
      <trkpt lat="43.55764" lon="1.4457">
        <ele>770</ele>
        <time>2020-10-18T08:33:03Z</time>
      </trkpt>
      <trkpt lat="43.55767" lon="1.4457">
        <ele>770</ele>
        <time>2020-10-18T08:33:05Z</time>
      </trkpt>
      <trkpt lat="43.55769" lon="1.44571">
        <ele>771</ele>
        <time>2020-10-18T08:33:07Z</time>
      </trkpt>
      <trkpt lat="43.55772" lon="1.44572">
        <ele>771</ele>
        <time>2020-10-18T08:33:09Z</time>
      </trkpt>
      <trkpt lat="43.55775" lon="1.44573">
        <ele>771</ele>
        <time>2020-10-18T08:33:11Z</time>
      </trkpt>
      <trkpt lat="43.55779" lon="1.44575">
        <ele>772</ele>
        <time>2020-10-18T08:33:12Z</time>
      </trkpt>
      <trkpt lat="43.55782" lon="1.44575">
        <ele>772</ele>
        <time>2020-10-18T08:33:14Z</time>
      </trkpt>
      <trkpt lat="43.55784" lon="1.44576">
        <ele>772</ele>
        <time>2020-10-18T08:33:15Z</time>
      </trkpt>
      <trkpt lat="43.55787" lon="1.44577">
        <ele>772</ele>
        <time>2020-10-18T08:33:16Z</time>
      </trkpt>
      <trkpt lat="43.55789" lon="1.44578">
        <ele>773</ele>
        <time>2020-10-18T08:33:17Z</time>
      </trkpt>
      <trkpt lat="43.55791" lon="1.44579">
        <ele>773</ele>
        <time>2020-10-18T08:33:18Z</time>
      </trkpt>
      <trkpt lat="43.55793" lon="1.4458">
        <ele>773</ele>
        <time>2020-10-18T08:33:19Z</time>
      </trkpt>
      <trkpt lat="43.55798" lon="1.44582">
        <ele>773</ele>
        <time>2020-10-18T08:33:20Z</time>
      </trkpt>
      <trkpt lat="43.558" lon="1.44582">
        <ele>773</ele>
        <time>2020-10-18T08:33:21Z</time>
      </trkpt>
      <trkpt lat="43.55802" lon="1.44583">
        <ele>773</ele>
        <time>2020-10-18T08:33:23Z</time>
      </trkpt>
      <trkpt lat="43.55804" lon="1.44584">
        <ele>773</ele>
        <time>2020-10-18T08:33:24Z</time>
      </trkpt>
      <trkpt lat="43.55806" lon="1.44585">
        <ele>773</ele>
        <time>2020-10-18T08:33:25Z</time>
      </trkpt>
      <trkpt lat="43.5581" lon="1.44586">
        <ele>773</ele>
        <time>2020-10-18T08:33:26Z</time>
      </trkpt>
      <trkpt lat="43.55812" lon="1.44587">
        <ele>774</ele>
        <time>2020-10-18T08:33:27Z</time>
      </trkpt>
      <trkpt lat="43.55814" lon="1.44587">
        <ele>774</ele>
        <time>2020-10-18T08:33:28Z</time>
      </trkpt>
      <trkpt lat="43.55819" lon="1.44587">
        <ele>775</ele>
        <time>2020-10-18T08:33:30Z</time>
      </trkpt>
      <trkpt lat="43.55821" lon="1.44587">
        <ele>775</ele>
        <time>2020-10-18T08:33:32Z</time>
      </trkpt>
      <trkpt lat="43.55823" lon="1.44587">
        <ele>775</ele>
        <time>2020-10-18T08:33:33Z</time>
      </trkpt>
      <trkpt lat="43.55829" lon="1.44587">
        <ele>774</ele>
        <time>2020-10-18T08:33:34Z</time>
      </trkpt>
      <trkpt lat="43.55832" lon="1.44587">
        <ele>775</ele>
        <time>2020-10-18T08:33:36Z</time>
      </trkpt>
      <trkpt lat="43.55834" lon="1.44586">
        <ele>775</ele>
        <time>2020-10-18T08:33:37Z</time>
      </trkpt>
      <trkpt lat="43.55837" lon="1.44586">
        <ele>775</ele>
        <time>2020-10-18T08:33:38Z</time>
      </trkpt>
      <trkpt lat="43.5584" lon="1.44585">
        <ele>776</ele>
        <time>2020-10-18T08:33:39Z</time>
      </trkpt>
      <trkpt lat="43.55842" lon="1.44584">
        <ele>776</ele>
        <time>2020-10-18T08:33:40Z</time>
      </trkpt>
      <trkpt lat="43.55845" lon="1.44584">
        <ele>775</ele>
        <time>2020-10-18T08:33:41Z</time>
      </trkpt>
      <trkpt lat="43.55848" lon="1.44584">
        <ele>775</ele>
        <time>2020-10-18T08:33:42Z</time>
      </trkpt>
      <trkpt lat="43.5585" lon="1.44583">
        <ele>775</ele>
        <time>2020-10-18T08:33:43Z</time>
      </trkpt>
      <trkpt lat="43.55853" lon="1.44583">
        <ele>775</ele>
        <time>2020-10-18T08:33:44Z</time>
      </trkpt>
      <trkpt lat="43.55858" lon="1.44582">
        <ele>776</ele>
        <time>2020-10-18T08:33:45Z</time>
      </trkpt>
      <trkpt lat="43.55861" lon="1.44581">
        <ele>776</ele>
        <time>2020-10-18T08:33:47Z</time>
      </trkpt>
      <trkpt lat="43.55863" lon="1.4458">
        <ele>776</ele>
        <time>2020-10-18T08:33:48Z</time>
      </trkpt>
      <trkpt lat="43.55866" lon="1.44579">
        <ele>776</ele>
        <time>2020-10-18T08:33:49Z</time>
      </trkpt>
      <trkpt lat="43.55869" lon="1.44578">
        <ele>776</ele>
        <time>2020-10-18T08:33:50Z</time>
      </trkpt>
      <trkpt lat="43.55871" lon="1.44577">
        <ele>776</ele>
        <time>2020-10-18T08:33:51Z</time>
      </trkpt>
      <trkpt lat="43.55874" lon="1.44576">
        <ele>776</ele>
        <time>2020-10-18T08:33:52Z</time>
      </trkpt>
      <trkpt lat="43.55876" lon="1.44576">
        <ele>776</ele>
        <time>2020-10-18T08:33:53Z</time>
      </trkpt>
      <trkpt lat="43.55879" lon="1.44575">
        <ele>776</ele>
        <time>2020-10-18T08:33:54Z</time>
      </trkpt>
      <trkpt lat="43.55881" lon="1.44575">
        <ele>776</ele>
        <time>2020-10-18T08:33:55Z</time>
      </trkpt>
      <trkpt lat="43.55884" lon="1.44576">
        <ele>776</ele>
        <time>2020-10-18T08:33:56Z</time>
      </trkpt>
      <trkpt lat="43.55886" lon="1.44578">
        <ele>776</ele>
        <time>2020-10-18T08:33:57Z</time>
      </trkpt>
      <trkpt lat="43.55888" lon="1.4458">
        <ele>775</ele>
        <time>2020-10-18T08:33:58Z</time>
      </trkpt>
      <trkpt lat="43.55889" lon="1.44583">
        <ele>775</ele>
        <time>2020-10-18T08:33:59Z</time>
      </trkpt>
      <trkpt lat="43.55891" lon="1.44585">
        <ele>775</ele>
        <time>2020-10-18T08:34:00Z</time>
      </trkpt>
      <trkpt lat="43.55894" lon="1.44587">
        <ele>775</ele>
        <time>2020-10-18T08:34:01Z</time>
      </trkpt>
      <trkpt lat="43.55895" lon="1.4459">
        <ele>775</ele>
        <time>2020-10-18T08:34:02Z</time>
      </trkpt>
      <trkpt lat="43.55898" lon="1.44592">
        <ele>775</ele>
        <time>2020-10-18T08:34:03Z</time>
      </trkpt>
      <trkpt lat="43.55899" lon="1.44595">
        <ele>775</ele>
        <time>2020-10-18T08:34:04Z</time>
      </trkpt>
      <trkpt lat="43.55901" lon="1.44598">
        <ele>775</ele>
        <time>2020-10-18T08:34:05Z</time>
      </trkpt>
      <trkpt lat="43.55903" lon="1.44601">
        <ele>775</ele>
        <time>2020-10-18T08:34:06Z</time>
      </trkpt>
      <trkpt lat="43.55904" lon="1.44604">
        <ele>775</ele>
        <time>2020-10-18T08:34:07Z</time>
      </trkpt>
      <trkpt lat="43.55906" lon="1.44607">
        <ele>775</ele>
        <time>2020-10-18T08:34:08Z</time>
      </trkpt>
      <trkpt lat="43.55907" lon="1.44609">
        <ele>775</ele>
        <time>2020-10-18T08:34:09Z</time>
      </trkpt>
      <trkpt lat="43.55909" lon="1.44612">
        <ele>775</ele>
        <time>2020-10-18T08:34:10Z</time>
      </trkpt>
      <trkpt lat="43.55911" lon="1.44615">
        <ele>775</ele>
        <time>2020-10-18T08:34:11Z</time>
      </trkpt>
      <trkpt lat="43.55913" lon="1.44618">
        <ele>774</ele>
        <time>2020-10-18T08:34:12Z</time>
      </trkpt>
      <trkpt lat="43.55915" lon="1.44621">
        <ele>774</ele>
        <time>2020-10-18T08:34:13Z</time>
      </trkpt>
      <trkpt lat="43.55916" lon="1.44625">
        <ele>774</ele>
        <time>2020-10-18T08:34:14Z</time>
      </trkpt>
      <trkpt lat="43.55917" lon="1.44628">
        <ele>774</ele>
        <time>2020-10-18T08:34:15Z</time>
      </trkpt>
      <trkpt lat="43.55919" lon="1.44631">
        <ele>774</ele>
        <time>2020-10-18T08:34:16Z</time>
      </trkpt>
      <trkpt lat="43.5592" lon="1.44634">
        <ele>774</ele>
        <time>2020-10-18T08:34:17Z</time>
      </trkpt>
      <trkpt lat="43.55921" lon="1.44637">
        <ele>774</ele>
        <time>2020-10-18T08:34:18Z</time>
      </trkpt>
      <trkpt lat="43.55921" lon="1.44641">
        <ele>774</ele>
        <time>2020-10-18T08:34:19Z</time>
      </trkpt>
      <trkpt lat="43.55922" lon="1.44644">
        <ele>775</ele>
        <time>2020-10-18T08:34:20Z</time>
      </trkpt>
      <trkpt lat="43.55922" lon="1.44647">
        <ele>775</ele>
        <time>2020-10-18T08:34:21Z</time>
      </trkpt>
      <trkpt lat="43.55922" lon="1.4465">
        <ele>775</ele>
        <time>2020-10-18T08:34:22Z</time>
      </trkpt>
      <trkpt lat="43.55922" lon="1.44654">
        <ele>775</ele>
        <time>2020-10-18T08:34:23Z</time>
      </trkpt>
      <trkpt lat="43.55923" lon="1.44657">
        <ele>775</ele>
        <time>2020-10-18T08:34:24Z</time>
      </trkpt>
      <trkpt lat="43.55923" lon="1.4466">
        <ele>775</ele>
        <time>2020-10-18T08:34:25Z</time>
      </trkpt>
      <trkpt lat="43.55924" lon="1.44662">
        <ele>775</ele>
        <time>2020-10-18T08:34:26Z</time>
      </trkpt>
      <trkpt lat="43.55927" lon="1.44664">
        <ele>775</ele>
        <time>2020-10-18T08:34:28Z</time>
      </trkpt>
      <trkpt lat="43.5593" lon="1.44664">
        <ele>773</ele>
        <time>2020-10-18T08:34:29Z</time>
      </trkpt>
      <trkpt lat="43.55935" lon="1.44666">
        <ele>773</ele>
        <time>2020-10-18T08:34:30Z</time>
      </trkpt>
      <trkpt lat="43.55938" lon="1.44665">
        <ele>772</ele>
        <time>2020-10-18T08:34:31Z</time>
      </trkpt>
      <trkpt lat="43.55942" lon="1.44663">
        <ele>770</ele>
        <time>2020-10-18T08:34:33Z</time>
      </trkpt>
      <trkpt lat="43.55944" lon="1.44661">
        <ele>770</ele>
        <time>2020-10-18T08:34:35Z</time>
      </trkpt>
      <trkpt lat="43.55947" lon="1.44661">
        <ele>769</ele>
        <time>2020-10-18T08:34:36Z</time>
      </trkpt>
      <trkpt lat="43.55949" lon="1.44661">
        <ele>769</ele>
        <time>2020-10-18T08:34:37Z</time>
      </trkpt>
      <trkpt lat="43.55952" lon="1.44663">
        <ele>769</ele>
        <time>2020-10-18T08:34:38Z</time>
      </trkpt>
      <trkpt lat="43.55955" lon="1.44664">
        <ele>768</ele>
        <time>2020-10-18T08:34:39Z</time>
      </trkpt>
      <trkpt lat="43.55958" lon="1.44665">
        <ele>768</ele>
        <time>2020-10-18T08:34:40Z</time>
      </trkpt>
      <trkpt lat="43.55961" lon="1.44665">
        <ele>768</ele>
        <time>2020-10-18T08:34:41Z</time>
      </trkpt>
      <trkpt lat="43.55966" lon="1.44667">
        <ele>767</ele>
        <time>2020-10-18T08:34:42Z</time>
      </trkpt>
      <trkpt lat="43.55969" lon="1.44667">
        <ele>766</ele>
        <time>2020-10-18T08:34:44Z</time>
      </trkpt>
      <trkpt lat="43.55972" lon="1.44667">
        <ele>765</ele>
        <time>2020-10-18T08:34:45Z</time>
      </trkpt>
      <trkpt lat="43.55978" lon="1.44668">
        <ele>765</ele>
        <time>2020-10-18T08:34:46Z</time>
      </trkpt>
      <trkpt lat="43.55981" lon="1.44669">
        <ele>764</ele>
        <time>2020-10-18T08:34:48Z</time>
      </trkpt>
      <trkpt lat="43.55983" lon="1.44669">
        <ele>764</ele>
        <time>2020-10-18T08:34:49Z</time>
      </trkpt>
      <trkpt lat="43.55986" lon="1.4467">
        <ele>763</ele>
        <time>2020-10-18T08:34:50Z</time>
      </trkpt>
      <trkpt lat="43.55988" lon="1.44671">
        <ele>763</ele>
        <time>2020-10-18T08:34:51Z</time>
      </trkpt>
      <trkpt lat="43.55991" lon="1.44671">
        <ele>762</ele>
        <time>2020-10-18T08:34:52Z</time>
      </trkpt>
      <trkpt lat="43.55994" lon="1.44672">
        <ele>761</ele>
        <time>2020-10-18T08:34:53Z</time>
      </trkpt>
      <trkpt lat="43.55996" lon="1.44673">
        <ele>761</ele>
        <time>2020-10-18T08:34:54Z</time>
      </trkpt>
      <trkpt lat="43.55999" lon="1.44673">
        <ele>760</ele>
        <time>2020-10-18T08:34:55Z</time>
      </trkpt>
      <trkpt lat="43.56005" lon="1.44675">
        <ele>760</ele>
        <time>2020-10-18T08:34:56Z</time>
      </trkpt>
      <trkpt lat="43.56008" lon="1.44676">
        <ele>760</ele>
        <time>2020-10-18T08:34:57Z</time>
      </trkpt>
      <trkpt lat="43.5601" lon="1.44677">
        <ele>760</ele>
        <time>2020-10-18T08:34:59Z</time>
      </trkpt>
      <trkpt lat="43.56015" lon="1.44679">
        <ele>760</ele>
        <time>2020-10-18T08:35:00Z</time>
      </trkpt>
      <trkpt lat="43.56017" lon="1.4468">
        <ele>760</ele>
        <time>2020-10-18T08:35:01Z</time>
      </trkpt>
      <trkpt lat="43.56023" lon="1.44682">
        <ele>760</ele>
        <time>2020-10-18T08:35:03Z</time>
      </trkpt>
      <trkpt lat="43.56025" lon="1.44684">
        <ele>760</ele>
        <time>2020-10-18T08:35:05Z</time>
      </trkpt>
      <trkpt lat="43.56027" lon="1.44686">
        <ele>759</ele>
        <time>2020-10-18T08:35:06Z</time>
      </trkpt>
      <trkpt lat="43.5603" lon="1.44688">
        <ele>759</ele>
        <time>2020-10-18T08:35:07Z</time>
      </trkpt>
      <trkpt lat="43.56035" lon="1.44691">
        <ele>759</ele>
        <time>2020-10-18T08:35:08Z</time>
      </trkpt>
      <trkpt lat="43.56037" lon="1.44693">
        <ele>759</ele>
        <time>2020-10-18T08:35:09Z</time>
      </trkpt>
      <trkpt lat="43.5604" lon="1.44694">
        <ele>758</ele>
        <time>2020-10-18T08:35:10Z</time>
      </trkpt>
      <trkpt lat="43.56042" lon="1.44695">
        <ele>758</ele>
        <time>2020-10-18T08:35:11Z</time>
      </trkpt>
      <trkpt lat="43.56045" lon="1.44697">
        <ele>758</ele>
        <time>2020-10-18T08:35:12Z</time>
      </trkpt>
      <trkpt lat="43.56047" lon="1.44698">
        <ele>758</ele>
        <time>2020-10-18T08:35:14Z</time>
      </trkpt>
      <trkpt lat="43.56052" lon="1.447">
        <ele>757</ele>
        <time>2020-10-18T08:35:15Z</time>
      </trkpt>
      <trkpt lat="43.56055" lon="1.44701">
        <ele>757</ele>
        <time>2020-10-18T08:35:17Z</time>
      </trkpt>
      <trkpt lat="43.56057" lon="1.44703">
        <ele>757</ele>
        <time>2020-10-18T08:35:18Z</time>
      </trkpt>
      <trkpt lat="43.56059" lon="1.44704">
        <ele>757</ele>
        <time>2020-10-18T08:35:19Z</time>
      </trkpt>
      <trkpt lat="43.56064" lon="1.44706">
        <ele>757</ele>
        <time>2020-10-18T08:35:20Z</time>
      </trkpt>
      <trkpt lat="43.56067" lon="1.44708">
        <ele>757</ele>
        <time>2020-10-18T08:35:22Z</time>
      </trkpt>
      <trkpt lat="43.5607" lon="1.44708">
        <ele>756</ele>
        <time>2020-10-18T08:35:23Z</time>
      </trkpt>
      <trkpt lat="43.56072" lon="1.44709">
        <ele>756</ele>
        <time>2020-10-18T08:35:24Z</time>
      </trkpt>
      <trkpt lat="43.56075" lon="1.4471">
        <ele>756</ele>
        <time>2020-10-18T08:35:25Z</time>
      </trkpt>
      <trkpt lat="43.56078" lon="1.44711">
        <ele>756</ele>
        <time>2020-10-18T08:35:26Z</time>
      </trkpt>
      <trkpt lat="43.56083" lon="1.44712">
        <ele>755</ele>
        <time>2020-10-18T08:35:27Z</time>
      </trkpt>
      <trkpt lat="43.56085" lon="1.44713">
        <ele>755</ele>
        <time>2020-10-18T08:35:28Z</time>
      </trkpt>
      <trkpt lat="43.56087" lon="1.44713">
        <ele>755</ele>
        <time>2020-10-18T08:35:29Z</time>
      </trkpt>
      <trkpt lat="43.56089" lon="1.44714">
        <ele>755</ele>
        <time>2020-10-18T08:35:30Z</time>
      </trkpt>
      <trkpt lat="43.56089" lon="1.44714">
        <ele>755</ele>
        <time>2020-10-18T08:35:31Z</time>
      </trkpt>
    </trkseg>
  </trk>
</gpx>